<?xml version="1.0" encoding="UTF-8" standalone="no" ?><gpx xmlns="http://www.topografix.com/GPX/1/1" xmlns:gpxx="http://www.garmin.com/xmlschemas/GpxExtensions/v3" xmlns:wptx1="http://www.garmin.com/xmlschemas/WaypointExtension/v1" xmlns:gpxtpx="http://www.garmin.com/xmlschemas/TrackPointExtension/v1" creator="GuideVTT.com" version="1.1" xmlns:xsi="http://www.w3.org/2001/XMLSchema-instance" xsi:schemaLocation="http://www.topografix.com/GPX/1/1 http://www.topografix.com/GPX/1/1/gpx.xsd http://www.garmin.com/xmlschemas/GpxExtensions/v3 http://www8.garmin.com/xmlschemas/GpxExtensionsv3.xsd http://www.garmin.com/xmlschemas/WaypointExtension/v1 http://www8.garmin.com/xmlschemas/WaypointExtensionv1.xsd http://www.garmin.com/xmlschemas/TrackPointExtension/v1 http://www.garmin.com/xmlschemas/TrackPointExtensionv1.xsd">
<metadata><link href="http://www.garmin.com"><text>Garmin International</text></link><time>2013-06-22T15:13:50Z</time></metadata>
<trk><name>activity_934034117.gpx</name><extensions><gpxx:TrackExtension><gpxx:DisplayColor>Cyan</gpxx:DisplayColor></gpxx:TrackExtension></extensions><trkseg>
<trkpt lat="46.17056496441364" lon="7.192247919738293"><ele></ele><time>2015-11-5T7:30:0Z</time></trkpt>
<trkpt lat="46.17056496441364" lon="7.192247919738293"><ele></ele><time>2015-11-5T7:30:3Z</time></trkpt>
<trkpt lat="46.17068792693317" lon="7.192010963335633"><ele></ele><time>2015-11-5T7:30:6Z</time></trkpt>
<trkpt lat="46.17058893665671" lon="7.192200981080532"><ele></ele><time>2015-11-5T7:30:9Z</time></trkpt>
<trkpt lat="46.17074794135988" lon="7.19189596362412"><ele></ele><time>2015-11-5T7:30:12Z</time></trkpt>
<trkpt lat="46.17088892497122" lon="7.191623970866203"><ele></ele><time>2015-11-5T7:30:15Z</time></trkpt>
<trkpt lat="46.17102798074484" lon="7.1913559176027775"><ele></ele><time>2015-11-5T7:30:18Z</time></trkpt>
<trkpt lat="46.17112495936453" lon="7.19116891734302"><ele></ele><time>2015-11-5T7:30:21Z</time></trkpt>
<trkpt lat="46.17114691995084" lon="7.191124996170402"><ele></ele><time>2015-11-5T7:30:24Z</time></trkpt>
<trkpt lat="46.17114691995084" lon="7.191124996170402"><ele></ele><time>2015-11-5T7:30:27Z</time></trkpt>
<trkpt lat="46.17114691995084" lon="7.191124996170402"><ele></ele><time>2015-11-5T7:30:30Z</time></trkpt>
<trkpt lat="46.17118396796286" lon="7.1910549234598875"><ele></ele><time>2015-11-5T7:30:33Z</time></trkpt>
<trkpt lat="46.1712509393692" lon="7.1909259259700775"><ele></ele><time>2015-11-5T7:30:36Z</time></trkpt>
<trkpt lat="46.171361999586225" lon="7.190723922103643"><ele></ele><time>2015-11-5T7:30:39Z</time></trkpt>
<trkpt lat="46.171578923240304" lon="7.190333995968103"><ele></ele><time>2015-11-5T7:30:42Z</time></trkpt>
<trkpt lat="46.17178997956216" lon="7.189935939386487"><ele></ele><time>2015-11-5T7:30:45Z</time></trkpt>
<trkpt lat="46.1719539295882" lon="7.189607955515385"><ele></ele><time>2015-11-5T7:30:48Z</time></trkpt>
<trkpt lat="46.17215098813176" lon="7.189256921410561"><ele></ele><time>2015-11-5T7:30:51Z</time></trkpt>
<trkpt lat="46.172332959249616" lon="7.188904965296388"><ele></ele><time>2015-11-5T7:30:54Z</time></trkpt>
<trkpt lat="46.172459945082664" lon="7.188658956438303"><ele></ele><time>2015-11-5T7:30:57Z</time></trkpt>
<trkpt lat="46.17258299142122" lon="7.188423927873373"><ele></ele><time>2015-11-5T7:31:0Z</time></trkpt>
<trkpt lat="46.172632947564125" lon="7.1883289609104395"><ele></ele><time>2015-11-5T7:31:3Z</time></trkpt>
<trkpt lat="46.172700924798846" lon="7.188198957592249"><ele></ele><time>2015-11-5T7:31:6Z</time></trkpt>
<trkpt lat="46.17285297252238" lon="7.188342958688736"><ele></ele><time>2015-11-5T7:31:9Z</time></trkpt>
<trkpt lat="46.17298398166895" lon="7.1884929947555065"><ele></ele><time>2015-11-5T7:31:12Z</time></trkpt>
<trkpt lat="46.17306595668197" lon="7.188325943425298"><ele></ele><time>2015-11-5T7:31:15Z</time></trkpt>
<trkpt lat="46.17302496917546" lon="7.188270958140492"><ele></ele><time>2015-11-5T7:31:18Z</time></trkpt>
<trkpt lat="46.172740990296006" lon="7.187957977876067"><ele></ele><time>2015-11-5T7:31:21Z</time></trkpt>
<trkpt lat="46.17261693812907" lon="7.1878209337592125"><ele></ele><time>2015-11-5T7:31:24Z</time></trkpt>
<trkpt lat="46.17248894646764" lon="7.187678944319487"><ele></ele><time>2015-11-5T7:31:27Z</time></trkpt>
<trkpt lat="46.17228593677282" lon="7.187455985695124"><ele></ele><time>2015-11-5T7:31:30Z</time></trkpt>
<trkpt lat="46.17220798507333" lon="7.187368981540203"><ele></ele><time>2015-11-5T7:31:33Z</time></trkpt>
<trkpt lat="46.17201796732843" lon="7.187150968238711"><ele></ele><time>2015-11-5T7:31:36Z</time></trkpt>
<trkpt lat="46.171883940696716" lon="7.18699598684907"><ele></ele><time>2015-11-5T7:31:39Z</time></trkpt>
<trkpt lat="46.171709932386875" lon="7.186795994639397"><ele></ele><time>2015-11-5T7:31:42Z</time></trkpt>
<trkpt lat="46.17144296877086" lon="7.186496928334236"><ele></ele><time>2015-11-5T7:31:45Z</time></trkpt>
<trkpt lat="46.17119796574116" lon="7.186221918091178"><ele></ele><time>2015-11-5T7:31:48Z</time></trkpt>
<trkpt lat="46.17101297713816" lon="7.185956966131926"><ele></ele><time>2015-11-5T7:31:51Z</time></trkpt>
<trkpt lat="46.17077493108809" lon="7.1855599991977215"><ele></ele><time>2015-11-5T7:31:54Z</time></trkpt>
<trkpt lat="46.17051794193685" lon="7.185124978423119"><ele></ele><time>2015-11-5T7:31:57Z</time></trkpt>
<trkpt lat="46.17029397748411" lon="7.184744942933321"><ele></ele><time>2015-11-5T7:32:0Z</time></trkpt>
<trkpt lat="46.16999298334122" lon="7.184236999601126"><ele></ele><time>2015-11-5T7:32:3Z</time></trkpt>
<trkpt lat="46.16971495561302" lon="7.183828968554735"><ele></ele><time>2015-11-5T7:32:6Z</time></trkpt>
<trkpt lat="46.16940197534859" lon="7.183708939701319"><ele></ele><time>2015-11-5T7:32:9Z</time></trkpt>
<trkpt lat="46.169262919574976" lon="7.1834769286215305"><ele></ele><time>2015-11-5T7:32:12Z</time></trkpt>
<trkpt lat="46.16914599202573" lon="7.1832819655537605"><ele></ele><time>2015-11-5T7:32:15Z</time></trkpt>
<trkpt lat="46.16903099231422" lon="7.1831099689006805"><ele></ele><time>2015-11-5T7:32:18Z</time></trkpt>
<trkpt lat="46.16911296732724" lon="7.182925986126065"><ele></ele><time>2015-11-5T7:32:21Z</time></trkpt>
<trkpt lat="46.16926895454526" lon="7.182900924235582"><ele></ele><time>2015-11-5T7:32:24Z</time></trkpt>
<trkpt lat="46.16928798146546" lon="7.182622980326414"><ele></ele><time>2015-11-5T7:32:27Z</time></trkpt>
<trkpt lat="46.169146997854114" lon="7.182362973690033"><ele></ele><time>2015-11-5T7:32:30Z</time></trkpt>
<trkpt lat="46.168998973444104" lon="7.182017974555492"><ele></ele><time>2015-11-5T7:32:33Z</time></trkpt>
<trkpt lat="46.16892194375396" lon="7.181600974872708"><ele></ele><time>2015-11-5T7:32:36Z</time></trkpt>
<trkpt lat="46.168892942368984" lon="7.181363934651017"><ele></ele><time>2015-11-5T7:32:39Z</time></trkpt>
<trkpt lat="46.16915596649051" lon="7.1809459291398525"><ele></ele><time>2015-11-5T7:32:42Z</time></trkpt>
<trkpt lat="46.16938194260001" lon="7.180486936122179"><ele></ele><time>2015-11-5T7:32:45Z</time></trkpt>
<trkpt lat="46.16943298839033" lon="7.180376965552568"><ele></ele><time>2015-11-5T7:32:48Z</time></trkpt>
<trkpt lat="46.16952996701002" lon="7.18001595698297"><ele></ele><time>2015-11-5T7:32:51Z</time></trkpt>
<trkpt lat="46.16952996701002" lon="7.179947979748249"><ele></ele><time>2015-11-5T7:32:54Z</time></trkpt>
<trkpt lat="46.169454948976636" lon="7.1793909184634686"><ele></ele><time>2015-11-5T7:32:57Z</time></trkpt>
<trkpt lat="46.169322934001684" lon="7.178830923512578"><ele></ele><time>2015-11-5T7:33:0Z</time></trkpt>
<trkpt lat="46.16929292678833" lon="7.178686922416091"><ele></ele><time>2015-11-5T7:33:3Z</time></trkpt>
<trkpt lat="46.16926593706012" lon="7.17851391993463"><ele></ele><time>2015-11-5T7:33:6Z</time></trkpt>
<trkpt lat="46.16914297454059" lon="7.177870944142342"><ele></ele><time>2015-11-5T7:33:9Z</time></trkpt>
<trkpt lat="46.16914297454059" lon="7.177806990221143"><ele></ele><time>2015-11-5T7:33:12Z</time></trkpt>
<trkpt lat="46.169176921248436" lon="7.177562993019819"><ele></ele><time>2015-11-5T7:33:15Z</time></trkpt>
<trkpt lat="46.169342966750264" lon="7.177205923944712"><ele></ele><time>2015-11-5T7:33:18Z</time></trkpt>
<trkpt lat="46.16931698285043" lon="7.1770369447767735"><ele></ele><time>2015-11-5T7:33:21Z</time></trkpt>
<trkpt lat="46.16918597370386" lon="7.176698986440897"><ele></ele><time>2015-11-5T7:33:24Z</time></trkpt>
<trkpt lat="46.1690959520638" lon="7.176536964252591"><ele></ele><time>2015-11-5T7:33:27Z</time></trkpt>
<trkpt lat="46.16906896233559" lon="7.176259942352772"><ele></ele><time>2015-11-5T7:33:30Z</time></trkpt>
<trkpt lat="46.16914599202573" lon="7.175985937938094"><ele></ele><time>2015-11-5T7:33:33Z</time></trkpt>
<trkpt lat="46.1691649351269" lon="7.175917960703373"><ele></ele><time>2015-11-5T7:33:36Z</time></trkpt>
<trkpt lat="46.16930893622339" lon="7.175765996798873"><ele></ele><time>2015-11-5T7:33:39Z</time></trkpt>
<trkpt lat="46.16950197145343" lon="7.175694918259978"><ele></ele><time>2015-11-5T7:33:42Z</time></trkpt>
<trkpt lat="46.16952996701002" lon="7.175681926310062"><ele></ele><time>2015-11-5T7:33:45Z</time></trkpt>
<trkpt lat="46.16956299170852" lon="7.175575979053974"><ele></ele><time>2015-11-5T7:33:48Z</time></trkpt>
<trkpt lat="46.1694619897753" lon="7.175480928272009"><ele></ele><time>2015-11-5T7:33:51Z</time></trkpt>
<trkpt lat="46.16926895454526" lon="7.175408927723765"><ele></ele><time>2015-11-5T7:33:54Z</time></trkpt>
<trkpt lat="46.16922293789685" lon="7.175374981015921"><ele></ele><time>2015-11-5T7:33:57Z</time></trkpt>
<trkpt lat="46.168974917382" lon="7.1749509405344725"><ele></ele><time>2015-11-5T7:34:0Z</time></trkpt>
<trkpt lat="46.16893292404711" lon="7.1748849749565125"><ele></ele><time>2015-11-5T7:34:3Z</time></trkpt>
<trkpt lat="46.16884298622608" lon="7.174549950286746"><ele></ele><time>2015-11-5T7:34:6Z</time></trkpt>
<trkpt lat="46.16897097788751" lon="7.173810917884111"><ele></ele><time>2015-11-5T7:34:9Z</time></trkpt>
<trkpt lat="46.1690319981426" lon="7.173518976196647"><ele></ele><time>2015-11-5T7:34:12Z</time></trkpt>
<trkpt lat="46.16899495013058" lon="7.173052942380309"><ele></ele><time>2015-11-5T7:34:15Z</time></trkpt>
<trkpt lat="46.168979946523905" lon="7.172978930175304"><ele></ele><time>2015-11-5T7:34:18Z</time></trkpt>
<trkpt lat="46.1686849873513" lon="7.17256193049252"><ele></ele><time>2015-11-5T7:34:21Z</time></trkpt>
<trkpt lat="46.16834996268153" lon="7.172202933579683"><ele></ele><time>2015-11-5T7:34:24Z</time></trkpt>
<trkpt lat="46.16797495633364" lon="7.171737989410758"><ele></ele><time>2015-11-5T7:34:27Z</time></trkpt>
<trkpt lat="46.167710926383734" lon="7.171186963096261"><ele></ele><time>2015-11-5T7:34:30Z</time></trkpt>
<trkpt lat="46.16768393665552" lon="7.171132983639836"><ele></ele><time>2015-11-5T7:34:33Z</time></trkpt>
<trkpt lat="46.16752895526588" lon="7.170804999768734"><ele></ele><time>2015-11-5T7:34:36Z</time></trkpt>
<trkpt lat="46.16713399998844" lon="7.17028196901083"><ele></ele><time>2015-11-5T7:34:39Z</time></trkpt>
<trkpt lat="46.166788917034864" lon="7.169818952679634"><ele></ele><time>2015-11-5T7:34:42Z</time></trkpt>
<trkpt lat="46.16641097702086" lon="7.16929592192173"><ele></ele><time>2015-11-5T7:34:45Z</time></trkpt>
<trkpt lat="46.16611098870635" lon="7.168772974982858"><ele></ele><time>2015-11-5T7:34:48Z</time></trkpt>
<trkpt lat="46.165904961526394" lon="7.168178949505091"><ele></ele><time>2015-11-5T7:34:51Z</time></trkpt>
<trkpt lat="46.165844947099686" lon="7.167967977002263"><ele></ele><time>2015-11-5T7:34:54Z</time></trkpt>
<trkpt lat="46.165689965710044" lon="7.167608980089426"><ele></ele><time>2015-11-5T7:34:57Z</time></trkpt>
<trkpt lat="46.16564093157649" lon="7.167576961219311"><ele></ele><time>2015-11-5T7:35:0Z</time></trkpt>
<trkpt lat="46.165222926065326" lon="7.167308991774917"><ele></ele><time>2015-11-5T7:35:3Z</time></trkpt>
<trkpt lat="46.165088983252645" lon="7.167222993448377"><ele></ele><time>2015-11-5T7:35:6Z</time></trkpt>
<trkpt lat="46.16470894776285" lon="7.166933985427022"><ele></ele><time>2015-11-5T7:35:9Z</time></trkpt>
<trkpt lat="46.16449596360326" lon="7.166633997112513"><ele></ele><time>2015-11-5T7:35:12Z</time></trkpt>
<trkpt lat="46.16428893059492" lon="7.166243987157941"><ele></ele><time>2015-11-5T7:35:15Z</time></trkpt>
<trkpt lat="46.16403194144368" lon="7.1656739339232445"><ele></ele><time>2015-11-5T7:35:18Z</time></trkpt>
<trkpt lat="46.16377495229244" lon="7.165305968374014"><ele></ele><time>2015-11-5T7:35:21Z</time></trkpt>
<trkpt lat="46.16345291957259" lon="7.164907995611429"><ele></ele><time>2015-11-5T7:35:24Z</time></trkpt>
<trkpt lat="46.163094928488135" lon="7.164586968719959"><ele></ele><time>2015-11-5T7:35:27Z</time></trkpt>
<trkpt lat="46.16288596764207" lon="7.164397956803441"><ele></ele><time>2015-11-5T7:35:30Z</time></trkpt>
<trkpt lat="46.16269494406879" lon="7.164335930719972"><ele></ele><time>2015-11-5T7:35:33Z</time></trkpt>
<trkpt lat="46.16253895685077" lon="7.164465934038162"><ele></ele><time>2015-11-5T7:35:36Z</time></trkpt>
<trkpt lat="46.16200695745647" lon="7.165196919813752"><ele></ele><time>2015-11-5T7:35:39Z</time></trkpt>
<trkpt lat="46.161890951916575" lon="7.165059959515929"><ele></ele><time>2015-11-5T7:35:42Z</time></trkpt>
<trkpt lat="46.161587946116924" lon="7.163975927978754"><ele></ele><time>2015-11-5T7:35:45Z</time></trkpt>
<trkpt lat="46.161416955292225" lon="7.163359941914678"><ele></ele><time>2015-11-5T7:35:48Z</time></trkpt>
<trkpt lat="46.16127597168088" lon="7.162855938076973"><ele></ele><time>2015-11-5T7:35:51Z</time></trkpt>
<trkpt lat="46.16125795058906" lon="7.1627909783273935"><ele></ele><time>2015-11-5T7:35:54Z</time></trkpt>
<trkpt lat="46.1611919850111" lon="7.162539940327406"><ele></ele><time>2015-11-5T7:35:57Z</time></trkpt>
<trkpt lat="46.161160971969366" lon="7.16242091730237"><ele></ele><time>2015-11-5T7:36:0Z</time></trkpt>
<trkpt lat="46.16088998503983" lon="7.1618379559367895"><ele></ele><time>2015-11-5T7:36:3Z</time></trkpt>
<trkpt lat="46.16059192456305" lon="7.161280978471041"><ele></ele><time>2015-11-5T7:36:6Z</time></trkpt>
<trkpt lat="46.16032596677542" lon="7.1608139388263226"><ele></ele><time>2015-11-5T7:36:9Z</time></trkpt>
<trkpt lat="46.15995096042752" lon="7.160295937210321"><ele></ele><time>2015-11-5T7:36:12Z</time></trkpt>
<trkpt lat="46.15958299487829" lon="7.159765949472785"><ele></ele><time>2015-11-5T7:36:15Z</time></trkpt>
<trkpt lat="46.1592389177531" lon="7.159307962283492"><ele></ele><time>2015-11-5T7:36:18Z</time></trkpt>
<trkpt lat="46.15882996469736" lon="7.15872592292726"><ele></ele><time>2015-11-5T7:36:21Z</time></trkpt>
<trkpt lat="46.158557971939445" lon="7.158298948779702"><ele></ele><time>2015-11-5T7:36:24Z</time></trkpt>
<trkpt lat="46.15852695889771" lon="7.158250920474529"><ele></ele><time>2015-11-5T7:36:27Z</time></trkpt>
<trkpt lat="46.1584479175508" lon="7.158125946298242"><ele></ele><time>2015-11-5T7:36:30Z</time></trkpt>
<trkpt lat="46.15849091671407" lon="7.158038942143321"><ele></ele><time>2015-11-5T7:36:33Z</time></trkpt>
<trkpt lat="46.15857196971774" lon="7.1579709649086"><ele></ele><time>2015-11-5T7:36:36Z</time></trkpt>
<trkpt lat="46.15868294611573" lon="7.157796956598759"><ele></ele><time>2015-11-5T7:36:39Z</time></trkpt>
<trkpt lat="46.15864799357951" lon="7.157686986029148"><ele></ele><time>2015-11-5T7:36:42Z</time></trkpt>
<trkpt lat="46.15835999138653" lon="7.157039986923337"><ele></ele><time>2015-11-5T7:36:45Z</time></trkpt>
<trkpt lat="46.15813996642828" lon="7.1565689239650965"><ele></ele><time>2015-11-5T7:36:48Z</time></trkpt>
<trkpt lat="46.1579729989171" lon="7.156204981729388"><ele></ele><time>2015-11-5T7:36:51Z</time></trkpt>
<trkpt lat="46.15791097283363" lon="7.155935922637582"><ele></ele><time>2015-11-5T7:36:54Z</time></trkpt>
<trkpt lat="46.1578989867121" lon="7.155256988480687"><ele></ele><time>2015-11-5T7:36:57Z</time></trkpt>
<trkpt lat="46.1578989867121" lon="7.155035957694054"><ele></ele><time>2015-11-5T7:37:0Z</time></trkpt>
<trkpt lat="46.15776797756553" lon="7.154600936919451"><ele></ele><time>2015-11-5T7:37:3Z</time></trkpt>
<trkpt lat="46.157680973410606" lon="7.154401950538158"><ele></ele><time>2015-11-5T7:37:6Z</time></trkpt>
<trkpt lat="46.157504953444004" lon="7.153890989720821"><ele></ele><time>2015-11-5T7:37:9Z</time></trkpt>
<trkpt lat="46.1573669873178" lon="7.153325965628028"><ele></ele><time>2015-11-5T7:37:12Z</time></trkpt>
<trkpt lat="46.15724293515086" lon="7.152926987037063"><ele></ele><time>2015-11-5T7:37:15Z</time></trkpt>
<trkpt lat="46.15700195543468" lon="7.152272947132587"><ele></ele><time>2015-11-5T7:37:18Z</time></trkpt>
<trkpt lat="46.15684596821666" lon="7.151925936341286"><ele></ele><time>2015-11-5T7:37:21Z</time></trkpt>
<trkpt lat="46.15655394271016" lon="7.151716975495219"><ele></ele><time>2015-11-5T7:37:24Z</time></trkpt>
<trkpt lat="46.15609897300601" lon="7.151448922231793"><ele></ele><time>2015-11-5T7:37:27Z</time></trkpt>
<trkpt lat="46.155635956674814" lon="7.1512409672141075"><ele></ele><time>2015-11-5T7:37:30Z</time></trkpt>
<trkpt lat="46.15516799502075" lon="7.151074921712279"><ele></ele><time>2015-11-5T7:37:33Z</time></trkpt>
<trkpt lat="46.15502097643912" lon="7.150928992778063"><ele></ele><time>2015-11-5T7:37:36Z</time></trkpt>
<trkpt lat="46.1550029553473" lon="7.150897979736328"><ele></ele><time>2015-11-5T7:37:39Z</time></trkpt>
<trkpt lat="46.15506892092526" lon="7.150719948112965"><ele></ele><time>2015-11-5T7:37:42Z</time></trkpt>
<trkpt lat="46.15531895309687" lon="7.1501499786973"><ele></ele><time>2015-11-5T7:37:45Z</time></trkpt>
<trkpt lat="46.15543596446514" lon="7.149813948199153"><ele></ele><time>2015-11-5T7:37:48Z</time></trkpt>
<trkpt lat="46.15546798333526" lon="7.149517983198166"><ele></ele><time>2015-11-5T7:37:51Z</time></trkpt>
<trkpt lat="46.15532792173326" lon="7.149270968511701"><ele></ele><time>2015-11-5T7:37:54Z</time></trkpt>
<trkpt lat="46.15526597946882" lon="7.149188993498683"><ele></ele><time>2015-11-5T7:37:57Z</time></trkpt>
<trkpt lat="46.15509792231023" lon="7.148841982707381"><ele></ele><time>2015-11-5T7:38:0Z</time></trkpt>
<trkpt lat="46.1550029553473" lon="7.148219961673021"><ele></ele><time>2015-11-5T7:38:3Z</time></trkpt>
<trkpt lat="46.15494193509221" lon="7.1477339789271355"><ele></ele><time>2015-11-5T7:38:6Z</time></trkpt>
<trkpt lat="46.1548319645226" lon="7.147109946236014"><ele></ele><time>2015-11-5T7:38:9Z</time></trkpt>
<trkpt lat="46.15481696091592" lon="7.146645924076438"><ele></ele><time>2015-11-5T7:38:12Z</time></trkpt>
<trkpt lat="46.1547629814595" lon="7.14613395743072"><ele></ele><time>2015-11-5T7:38:15Z</time></trkpt>
<trkpt lat="46.15470196120441" lon="7.145578991621733"><ele></ele><time>2015-11-5T7:38:18Z</time></trkpt>
<trkpt lat="46.15470196120441" lon="7.145215971395373"><ele></ele><time>2015-11-5T7:38:21Z</time></trkpt>
<trkpt lat="46.154649993404746" lon="7.144766952842474"><ele></ele><time>2015-11-5T7:38:24Z</time></trkpt>
<trkpt lat="46.1545589659363" lon="7.144481968134642"><ele></ele><time>2015-11-5T7:38:27Z</time></trkpt>
<trkpt lat="46.154410941526294" lon="7.144099920988083"><ele></ele><time>2015-11-5T7:38:30Z</time></trkpt>
<trkpt lat="46.1542809382081" lon="7.143807979300618"><ele></ele><time>2015-11-5T7:38:33Z</time></trkpt>
<trkpt lat="46.15409896709025" lon="7.143535986542702"><ele></ele><time>2015-11-5T7:38:36Z</time></trkpt>
<trkpt lat="46.15388698875904" lon="7.1433269418776035"><ele></ele><time>2015-11-5T7:38:39Z</time></trkpt>
<trkpt lat="46.153554981574416" lon="7.142985966056585"><ele></ele><time>2015-11-5T7:38:42Z</time></trkpt>
<trkpt lat="46.1531949788332" lon="7.142491936683655"><ele></ele><time>2015-11-5T7:38:45Z</time></trkpt>
<trkpt lat="46.15307092666626" lon="7.142300996929407"><ele></ele><time>2015-11-5T7:38:48Z</time></trkpt>
<trkpt lat="46.15293698385358" lon="7.142022969201207"><ele></ele><time>2015-11-5T7:38:51Z</time></trkpt>
<trkpt lat="46.15272793918848" lon="7.141305981203914"><ele></ele><time>2015-11-5T7:38:54Z</time></trkpt>
<trkpt lat="46.1525559425354" lon="7.140593938529491"><ele></ele><time>2015-11-5T7:38:57Z</time></trkpt>
<trkpt lat="46.152542950585485" lon="7.140527972951531"><ele></ele><time>2015-11-5T7:39:0Z</time></trkpt>
<trkpt lat="46.15245192311704" lon="7.1402999851852655"><ele></ele><time>2015-11-5T7:39:3Z</time></trkpt>
<trkpt lat="46.152179930359125" lon="7.139736972749233"><ele></ele><time>2015-11-5T7:39:6Z</time></trkpt>
<trkpt lat="46.15203894674778" lon="7.139454921707511"><ele></ele><time>2015-11-5T7:39:9Z</time></trkpt>
<trkpt lat="46.15195596590638" lon="7.139193993061781"><ele></ele><time>2015-11-5T7:39:12Z</time></trkpt>
<trkpt lat="46.15191497839987" lon="7.139060972258449"><ele></ele><time>2015-11-5T7:39:15Z</time></trkpt>
<trkpt lat="46.15182294510305" lon="7.138799959793687"><ele></ele><time>2015-11-5T7:39:18Z</time></trkpt>
<trkpt lat="46.151707945391536" lon="7.138389917090535"><ele></ele><time>2015-11-5T7:39:21Z</time></trkpt>
<trkpt lat="46.15164399147034" lon="7.1382259670645"><ele></ele><time>2015-11-5T7:39:24Z</time></trkpt>
<trkpt lat="46.15148196928203" lon="7.137866970151663"><ele></ele><time>2015-11-5T7:39:27Z</time></trkpt>
<trkpt lat="46.151191955432296" lon="7.137373946607113"><ele></ele><time>2015-11-5T7:39:30Z</time></trkpt>
<trkpt lat="46.150997998192906" lon="7.136894920840859"><ele></ele><time>2015-11-5T7:39:33Z</time></trkpt>
<trkpt lat="46.150845950469375" lon="7.136417990550399"><ele></ele><time>2015-11-5T7:39:36Z</time></trkpt>
<trkpt lat="46.15058192051947" lon="7.13558298535645"><ele></ele><time>2015-11-5T7:39:39Z</time></trkpt>
<trkpt lat="46.15032593719661" lon="7.13472593575716"><ele></ele><time>2015-11-5T7:39:42Z</time></trkpt>
<trkpt lat="46.15011295303702" lon="7.133935941383243"><ele></ele><time>2015-11-5T7:39:45Z</time></trkpt>
<trkpt lat="46.15006794221699" lon="7.1331949811428785"><ele></ele><time>2015-11-5T7:39:48Z</time></trkpt>
<trkpt lat="46.15004598163068" lon="7.1325199864804745"><ele></ele><time>2015-11-5T7:39:51Z</time></trkpt>
<trkpt lat="46.15003692917526" lon="7.1320549584925175"><ele></ele><time>2015-11-5T7:39:54Z</time></trkpt>
<trkpt lat="46.150027960538864" lon="7.131977928802371"><ele></ele><time>2015-11-5T7:39:57Z</time></trkpt>
<trkpt lat="46.150005999952555" lon="7.131762932986021"><ele></ele><time>2015-11-5T7:40:0Z</time></trkpt>
<trkpt lat="46.14991991780698" lon="7.1315619349479675"><ele></ele><time>2015-11-5T7:40:3Z</time></trkpt>
<trkpt lat="46.1497479211539" lon="7.131298994645476"><ele></ele><time>2015-11-5T7:40:6Z</time></trkpt>
<trkpt lat="46.14943494088948" lon="7.130931951105595"><ele></ele><time>2015-11-5T7:40:9Z</time></trkpt>
<trkpt lat="46.14925799891353" lon="7.130767917260528"><ele></ele><time>2015-11-5T7:40:12Z</time></trkpt>
<trkpt lat="46.14912095479667" lon="7.130661970004439"><ele></ele><time>2015-11-5T7:40:15Z</time></trkpt>
<trkpt lat="46.1488329526037" lon="7.130458960309625"><ele></ele><time>2015-11-5T7:40:18Z</time></trkpt>
<trkpt lat="46.14846398122609" lon="7.130145980045199"><ele></ele><time>2015-11-5T7:40:21Z</time></trkpt>
<trkpt lat="46.14820699207485" lon="7.12993199005723"><ele></ele><time>2015-11-5T7:40:24Z</time></trkpt>
<trkpt lat="46.14765395410359" lon="7.1297739911824465"><ele></ele><time>2015-11-5T7:40:27Z</time></trkpt>
<trkpt lat="46.14725296385586" lon="7.129376940429211"><ele></ele><time>2015-11-5T7:40:30Z</time></trkpt>
<trkpt lat="46.14698197692633" lon="7.129080975428224"><ele></ele><time>2015-11-5T7:40:33Z</time></trkpt>
<trkpt lat="46.14684292115271" lon="7.12877394631505"><ele></ele><time>2015-11-5T7:40:36Z</time></trkpt>
<trkpt lat="46.146741919219494" lon="7.128465995192528"><ele></ele><time>2015-11-5T7:40:39Z</time></trkpt>
<trkpt lat="46.146698920056224" lon="7.128332974389195"><ele></ele><time>2015-11-5T7:40:42Z</time></trkpt>
<trkpt lat="46.146658938378096" lon="7.128210933879018"><ele></ele><time>2015-11-5T7:40:45Z</time></trkpt>
<trkpt lat="46.14661795087159" lon="7.128086965531111"><ele></ele><time>2015-11-5T7:40:48Z</time></trkpt>
<trkpt lat="46.14656891673803" lon="7.12793399579823"><ele></ele><time>2015-11-5T7:40:51Z</time></trkpt>
<trkpt lat="46.14653497003019" lon="7.127810949459672"><ele></ele><time>2015-11-5T7:40:54Z</time></trkpt>
<trkpt lat="46.14650898613036" lon="7.127713970839977"><ele></ele><time>2015-11-5T7:40:57Z</time></trkpt>
<trkpt lat="46.14659992977977" lon="7.1279029827564955"><ele></ele><time>2015-11-5T7:41:0Z</time></trkpt>
<trkpt lat="46.14652298390865" lon="7.127767950296402"><ele></ele><time>2015-11-5T7:41:3Z</time></trkpt>
<trkpt lat="46.14655399695039" lon="7.127878926694393"><ele></ele><time>2015-11-5T7:41:6Z</time></trkpt>
<trkpt lat="46.14660495892167" lon="7.127896947786212"><ele></ele><time>2015-11-5T7:41:9Z</time></trkpt>
<trkpt lat="46.146550979465246" lon="7.127869958058"><ele></ele><time>2015-11-5T7:41:12Z</time></trkpt>
<trkpt lat="46.146547961980104" lon="7.127856966108084"><ele></ele><time>2015-11-5T7:41:15Z</time></trkpt>
<trkpt lat="46.14660898223519" lon="7.127891918644309"><ele></ele><time>2015-11-5T7:41:18Z</time></trkpt>
<trkpt lat="46.14662499167025" lon="7.127873981371522"><ele></ele><time>2015-11-5T7:41:21Z</time></trkpt>
<trkpt lat="46.14676798693836" lon="7.127704918384552"><ele></ele><time>2015-11-5T7:41:24Z</time></trkpt>
<trkpt lat="46.14689799025655" lon="7.127551948651671"><ele></ele><time>2015-11-5T7:41:27Z</time></trkpt>
<trkpt lat="46.14701894111931" lon="7.127424962818623"><ele></ele><time>2015-11-5T7:41:30Z</time></trkpt>
<trkpt lat="46.14711793139577" lon="7.127324966713786"><ele></ele><time>2015-11-5T7:41:33Z</time></trkpt>
<trkpt lat="46.14722798578441" lon="7.1271799597889185"><ele></ele><time>2015-11-5T7:41:36Z</time></trkpt>
<trkpt lat="46.14728498272598" lon="7.1270279958844185"><ele></ele><time>2015-11-5T7:41:39Z</time></trkpt>
<trkpt lat="46.147320941090584" lon="7.126892963424325"><ele></ele><time>2015-11-5T7:41:42Z</time></trkpt>
<trkpt lat="46.147320941090584" lon="7.1268009301275015"><ele></ele><time>2015-11-5T7:41:45Z</time></trkpt>
<trkpt lat="46.14730694331229" lon="7.1266719326376915"><ele></ele><time>2015-11-5T7:41:48Z</time></trkpt>
<trkpt lat="46.147298980504274" lon="7.126575959846377"><ele></ele><time>2015-11-5T7:41:51Z</time></trkpt>
<trkpt lat="46.1473529599607" lon="7.126513933762908"><ele></ele><time>2015-11-5T7:41:54Z</time></trkpt>
<trkpt lat="46.147406939417124" lon="7.126500941812992"><ele></ele><time>2015-11-5T7:41:57Z</time></trkpt>
<trkpt lat="46.147449938580394" lon="7.126478981226683"><ele></ele><time>2015-11-5T7:42:0Z</time></trkpt>
<trkpt lat="46.147234942764044" lon="7.125770961865783"><ele></ele><time>2015-11-5T7:42:3Z</time></trkpt>
<trkpt lat="46.147407945245504" lon="7.126263985410333"><ele></ele><time>2015-11-5T7:42:6Z</time></trkpt>
<trkpt lat="46.147320941090584" lon="7.126078996807337"><ele></ele><time>2015-11-5T7:42:9Z</time></trkpt>
<trkpt lat="46.1472509521991" lon="7.125933989882469"><ele></ele><time>2015-11-5T7:42:12Z</time></trkpt>
<trkpt lat="46.147213988006115" lon="7.125813961029053"><ele></ele><time>2015-11-5T7:42:15Z</time></trkpt>
<trkpt lat="46.14724994637072" lon="7.125741960480809"><ele></ele><time>2015-11-5T7:42:18Z</time></trkpt>
<trkpt lat="46.14731892943382" lon="7.125706924125552"><ele></ele><time>2015-11-5T7:42:21Z</time></trkpt>
<trkpt lat="46.147407945245504" lon="7.125772973522544"><ele></ele><time>2015-11-5T7:42:24Z</time></trkpt>
<trkpt lat="46.14752294495702" lon="7.125847991555929"><ele></ele><time>2015-11-5T7:42:27Z</time></trkpt>
<trkpt lat="46.147605925798416" lon="7.125847991555929"><ele></ele><time>2015-11-5T7:42:30Z</time></trkpt>
<trkpt lat="46.147623946890235" lon="7.125819995999336"><ele></ele><time>2015-11-5T7:42:33Z</time></trkpt>
<trkpt lat="46.147691924124956" lon="7.125694938004017"><ele></ele><time>2015-11-5T7:42:36Z</time></trkpt>
<trkpt lat="46.14774095825851" lon="7.125560995191336"><ele></ele><time>2015-11-5T7:42:39Z</time></trkpt>
<trkpt lat="46.1477499268949" lon="7.1254379488527775"><ele></ele><time>2015-11-5T7:42:42Z</time></trkpt>
<trkpt lat="46.1477189976722" lon="7.125304928049445"><ele></ele><time>2015-11-5T7:42:45Z</time></trkpt>
<trkpt lat="46.147641967982054" lon="7.1251169219613075"><ele></ele><time>2015-11-5T7:42:48Z</time></trkpt>
<trkpt lat="46.14752797409892" lon="7.124924976378679"><ele></ele><time>2015-11-5T7:42:51Z</time></trkpt>
<trkpt lat="46.14750199019909" lon="7.124890945851803"><ele></ele><time>2015-11-5T7:42:54Z</time></trkpt>
<trkpt lat="46.147406939417124" lon="7.124768989160657"><ele></ele><time>2015-11-5T7:42:57Z</time></trkpt>
<trkpt lat="46.14717895165086" lon="7.124572936445475"><ele></ele><time>2015-11-5T7:43:0Z</time></trkpt>
<trkpt lat="46.14714693278074" lon="7.124466989189386"><ele></ele><time>2015-11-5T7:43:3Z</time></trkpt>
<trkpt lat="46.14712094888091" lon="7.124278983101249"><ele></ele><time>2015-11-5T7:43:6Z</time></trkpt>
<trkpt lat="46.147083984687924" lon="7.124001961201429"><ele></ele><time>2015-11-5T7:43:9Z</time></trkpt>
<trkpt lat="46.147062946110964" lon="7.123766932636499"><ele></ele><time>2015-11-5T7:43:12Z</time></trkpt>
<trkpt lat="46.14723293110728" lon="7.123669954016805"><ele></ele><time>2015-11-5T7:43:15Z</time></trkpt>
<trkpt lat="46.147303925827146" lon="7.12357297539711"><ele></ele><time>2015-11-5T7:43:18Z</time></trkpt>
<trkpt lat="46.147366957738996" lon="7.123413970693946"><ele></ele><time>2015-11-5T7:43:21Z</time></trkpt>
<trkpt lat="46.14741993136704" lon="7.123225964605808"><ele></ele><time>2015-11-5T7:43:24Z</time></trkpt>
<trkpt lat="46.1474599968642" lon="7.12305698543787"><ele></ele><time>2015-11-5T7:43:27Z</time></trkpt>
<trkpt lat="46.14750299602747" lon="7.122874930500984"><ele></ele><time>2015-11-5T7:43:30Z</time></trkpt>
<trkpt lat="46.14755194634199" lon="7.122676949948072"><ele></ele><time>2015-11-5T7:43:33Z</time></trkpt>
<trkpt lat="46.147598968818784" lon="7.122503947466612"><ele></ele><time>2015-11-5T7:43:36Z</time></trkpt>
<trkpt lat="46.14761397242546" lon="7.12245499715209"><ele></ele><time>2015-11-5T7:43:39Z</time></trkpt>
<trkpt lat="46.147642973810434" lon="7.122358940541744"><ele></ele><time>2015-11-5T7:43:42Z</time></trkpt>
<trkpt lat="46.14753493107855" lon="7.122250981628895"><ele></ele><time>2015-11-5T7:43:45Z</time></trkpt>
<trkpt lat="46.14747994579375" lon="7.122206976637244"><ele></ele><time>2015-11-5T7:43:48Z</time></trkpt>
<trkpt lat="46.14742294885218" lon="7.122196918353438"><ele></ele><time>2015-11-5T7:43:51Z</time></trkpt>
<trkpt lat="46.147281965240836" lon="7.122187949717045"><ele></ele><time>2015-11-5T7:43:54Z</time></trkpt>
<trkpt lat="46.14716093055904" lon="7.122184932231903"><ele></ele><time>2015-11-5T7:43:57Z</time></trkpt>
<trkpt lat="46.14707292057574" lon="7.122158948332071"><ele></ele><time>2015-11-5T7:44:0Z</time></trkpt>
<trkpt lat="46.14701298996806" lon="7.1221129316836596"><ele></ele><time>2015-11-5T7:44:3Z</time></trkpt>
<trkpt lat="46.146956998854876" lon="7.122017964720726"><ele></ele><time>2015-11-5T7:44:6Z</time></trkpt>
<trkpt lat="46.14687996916473" lon="7.121863989159465"><ele></ele><time>2015-11-5T7:44:9Z</time></trkpt>
<trkpt lat="46.14683294668794" lon="7.121731974184513"><ele></ele><time>2015-11-5T7:44:12Z</time></trkpt>
<trkpt lat="46.14679195918143" lon="7.121610939502716"><ele></ele><time>2015-11-5T7:44:15Z</time></trkpt>
<trkpt lat="46.14677393808961" lon="7.12155494838953"><ele></ele><time>2015-11-5T7:44:18Z</time></trkpt>
<trkpt lat="46.14672993309796" lon="7.121397955343127"><ele></ele><time>2015-11-5T7:44:21Z</time></trkpt>
<trkpt lat="46.14671199582517" lon="7.121330983936787"><ele></ele><time>2015-11-5T7:44:24Z</time></trkpt>
<trkpt lat="46.146696992218494" lon="7.12127692066133"><ele></ele><time>2015-11-5T7:44:27Z</time></trkpt>
<trkpt lat="46.146659944206476" lon="7.121135937049985"><ele></ele><time>2015-11-5T7:44:30Z</time></trkpt>
<trkpt lat="46.14662893116474" lon="7.12101892568171"><ele></ele><time>2015-11-5T7:44:33Z</time></trkpt>
<trkpt lat="46.14659791812301" lon="7.120903925970197"><ele></ele><time>2015-11-5T7:44:36Z</time></trkpt>
<trkpt lat="46.14657796919346" lon="7.120826980099082"><ele></ele><time>2015-11-5T7:44:39Z</time></trkpt>
<trkpt lat="46.14656598307192" lon="7.120782975107431"><ele></ele><time>2015-11-5T7:44:42Z</time></trkpt>
<trkpt lat="46.14652591757476" lon="7.120632939040661"><ele></ele><time>2015-11-5T7:44:45Z</time></trkpt>
<trkpt lat="46.14649197086692" lon="7.120471922680736"><ele></ele><time>2015-11-5T7:44:48Z</time></trkpt>
<trkpt lat="46.146462969481945" lon="7.1202669851481915"><ele></ele><time>2015-11-5T7:44:51Z</time></trkpt>
<trkpt lat="46.14647596143186" lon="7.120093982666731"><ele></ele><time>2015-11-5T7:44:54Z</time></trkpt>
<trkpt lat="46.14664292894304" lon="7.119873957708478"><ele></ele><time>2015-11-5T7:44:57Z</time></trkpt>
<trkpt lat="46.146740997210145" lon="7.1196649968624115"><ele></ele><time>2015-11-5T7:45:0Z</time></trkpt>
<trkpt lat="46.146787935867906" lon="7.11936492472887"><ele></ele><time>2015-11-5T7:45:3Z</time></trkpt>
<trkpt lat="46.14679195918143" lon="7.119154958054423"><ele></ele><time>2015-11-5T7:45:6Z</time></trkpt>
<trkpt lat="46.14679698832333" lon="7.118944991379976"><ele></ele><time>2015-11-5T7:45:9Z</time></trkpt>
<trkpt lat="46.14680092781782" lon="7.118731923401356"><ele></ele><time>2015-11-5T7:45:12Z</time></trkpt>
<trkpt lat="46.146805956959724" lon="7.118508964776993"><ele></ele><time>2015-11-5T7:45:15Z</time></trkpt>
<trkpt lat="46.146805956959724" lon="7.118300925940275"><ele></ele><time>2015-11-5T7:45:18Z</time></trkpt>
<trkpt lat="46.146805956959724" lon="7.118242923170328"><ele></ele><time>2015-11-5T7:45:21Z</time></trkpt>
<trkpt lat="46.146805956959724" lon="7.118204953148961"><ele></ele><time>2015-11-5T7:45:24Z</time></trkpt>
<trkpt lat="46.146805956959724" lon="7.118204953148961"><ele></ele><time>2015-11-5T7:45:27Z</time></trkpt>
<trkpt lat="46.1468899436295" lon="7.118190955370665"><ele></ele><time>2015-11-5T7:45:30Z</time></trkpt>
<trkpt lat="46.146913999691606" lon="7.118263961747289"><ele></ele><time>2015-11-5T7:45:33Z</time></trkpt>
<trkpt lat="46.14696999080479" lon="7.118429923430085"><ele></ele><time>2015-11-5T7:45:36Z</time></trkpt>
<trkpt lat="46.14703897386789" lon="7.118626981973648"><ele></ele><time>2015-11-5T7:45:39Z</time></trkpt>
<trkpt lat="46.14711893722415" lon="7.118846923112869"><ele></ele><time>2015-11-5T7:45:42Z</time></trkpt>
<trkpt lat="46.14720191806555" lon="7.119066948071122"><ele></ele><time>2015-11-5T7:45:45Z</time></trkpt>
<trkpt lat="46.147279953584075" lon="7.1192579716444016"><ele></ele><time>2015-11-5T7:45:48Z</time></trkpt>
<trkpt lat="46.14735899493098" lon="7.11945092305541"><ele></ele><time>2015-11-5T7:45:51Z</time></trkpt>
<trkpt lat="46.14745697937906" lon="7.11972895078361"><ele></ele><time>2015-11-5T7:45:54Z</time></trkpt>
<trkpt lat="46.14753099158406" lon="7.119926931336522"><ele></ele><time>2015-11-5T7:45:57Z</time></trkpt>
<trkpt lat="46.1476309876889" lon="7.120139999315143"><ele></ele><time>2015-11-5T7:46:0Z</time></trkpt>
<trkpt lat="46.14773592911661" lon="7.120318952947855"><ele></ele><time>2015-11-5T7:46:3Z</time></trkpt>
<trkpt lat="46.14785394631326" lon="7.120486926287413"><ele></ele><time>2015-11-5T7:46:6Z</time></trkpt>
<trkpt lat="46.14794799126685" lon="7.120595974847674"><ele></ele><time>2015-11-5T7:46:9Z</time></trkpt>
<trkpt lat="46.14810599014163" lon="7.120722960680723"><ele></ele><time>2015-11-5T7:46:12Z</time></trkpt>
<trkpt lat="46.14829491823912" lon="7.120825974270701"><ele></ele><time>2015-11-5T7:46:15Z</time></trkpt>
<trkpt lat="46.14844696596265" lon="7.120894957333803"><ele></ele><time>2015-11-5T7:46:18Z</time></trkpt>
<trkpt lat="46.14860395900905" lon="7.1209269762039185"><ele></ele><time>2015-11-5T7:46:21Z</time></trkpt>
<trkpt lat="46.14868291653693" lon="7.120940973982215"><ele></ele><time>2015-11-5T7:46:24Z</time></trkpt>
<trkpt lat="46.14884393289685" lon="7.120957989245653"><ele></ele><time>2015-11-5T7:46:27Z</time></trkpt>
<trkpt lat="46.148999920114875" lon="7.1209649462252855"><ele></ele><time>2015-11-5T7:46:30Z</time></trkpt>
<trkpt lat="46.14913797006011" lon="7.120999982580543"><ele></ele><time>2015-11-5T7:46:33Z</time></trkpt>
<trkpt lat="46.14927099086344" lon="7.1210939437150955"><ele></ele><time>2015-11-5T7:46:36Z</time></trkpt>
<trkpt lat="46.14935891702771" lon="7.1211999747902155"><ele></ele><time>2015-11-5T7:46:39Z</time></trkpt>
<trkpt lat="46.149362940341234" lon="7.121211960911751"><ele></ele><time>2015-11-5T7:46:42Z</time></trkpt>
<trkpt lat="46.14942094311118" lon="7.1213869750499725"><ele></ele><time>2015-11-5T7:46:45Z</time></trkpt>
<trkpt lat="46.14942396059632" lon="7.121580932289362"><ele></ele><time>2015-11-5T7:46:48Z</time></trkpt>
<trkpt lat="46.14940191619098" lon="7.12176994420588"><ele></ele><time>2015-11-5T7:46:51Z</time></trkpt>
<trkpt lat="46.14935891702771" lon="7.122002961114049"><ele></ele><time>2015-11-5T7:46:54Z</time></trkpt>
<trkpt lat="46.14931692369282" lon="7.122227931395173"><ele></ele><time>2015-11-5T7:46:57Z</time></trkpt>
<trkpt lat="46.14933293312788" lon="7.12239196524024"><ele></ele><time>2015-11-5T7:47:0Z</time></trkpt>
<trkpt lat="46.149381967261434" lon="7.122515933588147"><ele></ele><time>2015-11-5T7:47:3Z</time></trkpt>
<trkpt lat="46.149444999173284" lon="7.122616935521364"><ele></ele><time>2015-11-5T7:47:6Z</time></trkpt>
<trkpt lat="46.14958891645074" lon="7.122678961604834"><ele></ele><time>2015-11-5T7:47:9Z</time></trkpt>
<trkpt lat="46.149729983881116" lon="7.122701928019524"><ele></ele><time>2015-11-5T7:47:12Z</time></trkpt>
<trkpt lat="46.149877924472094" lon="7.122724978253245"><ele></ele><time>2015-11-5T7:47:15Z</time></trkpt>
<trkpt lat="46.15002393722534" lon="7.122748950496316"><ele></ele><time>2015-11-5T7:47:18Z</time></trkpt>
<trkpt lat="46.15012896247208" lon="7.122763954102993"><ele></ele><time>2015-11-5T7:47:21Z</time></trkpt>
<trkpt lat="46.15027698688209" lon="7.122773928567767"><ele></ele><time>2015-11-5T7:47:24Z</time></trkpt>
<trkpt lat="46.15043397992849" lon="7.122782981023192"><ele></ele><time>2015-11-5T7:47:27Z</time></trkpt>
<trkpt lat="46.15058594383299" lon="7.1227929554879665"><ele></ele><time>2015-11-5T7:47:30Z</time></trkpt>
<trkpt lat="46.1507979221642" lon="7.122828997671604"><ele></ele><time>2015-11-5T7:47:33Z</time></trkpt>
<trkpt lat="46.15094695240259" lon="7.1229849848896265"><ele></ele><time>2015-11-5T7:47:36Z</time></trkpt>
<trkpt lat="46.151036974042654" lon="7.123181959614158"><ele></ele><time>2015-11-5T7:47:39Z</time></trkpt>
<trkpt lat="46.15109296515584" lon="7.123416988179088"><ele></ele><time>2015-11-5T7:47:42Z</time></trkpt>
<trkpt lat="46.151128923520446" lon="7.123623937368393"><ele></ele><time>2015-11-5T7:47:45Z</time></trkpt>
<trkpt lat="46.15117695182562" lon="7.123850919306278"><ele></ele><time>2015-11-5T7:47:48Z</time></trkpt>
<trkpt lat="46.151258926838636" lon="7.124028950929642"><ele></ele><time>2015-11-5T7:47:51Z</time></trkpt>
<trkpt lat="46.15136596374214" lon="7.1242619678378105"><ele></ele><time>2015-11-5T7:47:54Z</time></trkpt>
<trkpt lat="46.15145397372544" lon="7.1244539972394705"><ele></ele><time>2015-11-5T7:47:57Z</time></trkpt>
<trkpt lat="46.15150895901024" lon="7.124574948102236"><ele></ele><time>2015-11-5T7:48:0Z</time></trkpt>
<trkpt lat="46.15160099230707" lon="7.124748956412077"><ele></ele><time>2015-11-5T7:48:3Z</time></trkpt>
<trkpt lat="46.1517099570483" lon="7.124945931136608"><ele></ele><time>2015-11-5T7:48:6Z</time></trkpt>
<trkpt lat="46.15180492401123" lon="7.125102924183011"><ele></ele><time>2015-11-5T7:48:9Z</time></trkpt>
<trkpt lat="46.15193098783493" lon="7.1252859849482775"><ele></ele><time>2015-11-5T7:48:12Z</time></trkpt>
<trkpt lat="46.152049927040935" lon="7.125453958287835"><ele></ele><time>2015-11-5T7:48:15Z</time></trkpt>
<trkpt lat="46.15208395756781" lon="7.125470973551273"><ele></ele><time>2015-11-5T7:48:18Z</time></trkpt>
<trkpt lat="46.15210591815412" lon="7.125470973551273"><ele></ele><time>2015-11-5T7:48:21Z</time></trkpt>
<trkpt lat="46.15214296616614" lon="7.125360919162631"><ele></ele><time>2015-11-5T7:48:24Z</time></trkpt>
<trkpt lat="46.15209896117449" lon="7.125191939994693"><ele></ele><time>2015-11-5T7:48:27Z</time></trkpt>
<trkpt lat="46.152003994211555" lon="7.1249879244714975"><ele></ele><time>2015-11-5T7:48:30Z</time></trkpt>
<trkpt lat="46.15193392150104" lon="7.124830931425095"><ele></ele><time>2015-11-5T7:48:33Z</time></trkpt>
<trkpt lat="46.15186996757984" lon="7.124651977792382"><ele></ele><time>2015-11-5T7:48:36Z</time></trkpt>
<trkpt lat="46.151836942881346" lon="7.124435976147652"><ele></ele><time>2015-11-5T7:48:39Z</time></trkpt>
<trkpt lat="46.151814982295036" lon="7.124215951189399"><ele></ele><time>2015-11-5T7:48:42Z</time></trkpt>
<trkpt lat="46.15178095176816" lon="7.124000955373049"><ele></ele><time>2015-11-5T7:48:45Z</time></trkpt>
<trkpt lat="46.15173099562526" lon="7.123834993690252"><ele></ele><time>2015-11-5T7:48:48Z</time></trkpt>
<trkpt lat="46.15167399868369" lon="7.123613962903619"><ele></ele><time>2015-11-5T7:48:51Z</time></trkpt>
<trkpt lat="46.15166092291474" lon="7.1234809421002865"><ele></ele><time>2015-11-5T7:48:54Z</time></trkpt>
<trkpt lat="46.15167994983494" lon="7.123270975425839"><ele></ele><time>2015-11-5T7:48:57Z</time></trkpt>
<trkpt lat="46.151704927906394" lon="7.12305991910398"><ele></ele><time>2015-11-5T7:49:0Z</time></trkpt>
<trkpt lat="46.151725966483355" lon="7.122891945764422"><ele></ele><time>2015-11-5T7:49:3Z</time></trkpt>
<trkpt lat="46.151745999231935" lon="7.122738976031542"><ele></ele><time>2015-11-5T7:49:6Z</time></trkpt>
<trkpt lat="46.15176293067634" lon="7.122524986043572"><ele></ele><time>2015-11-5T7:49:9Z</time></trkpt>
<trkpt lat="46.15176393650472" lon="7.1222669910639524"><ele></ele><time>2015-11-5T7:49:12Z</time></trkpt>
<trkpt lat="46.15179595537484" lon="7.122087953612208"><ele></ele><time>2015-11-5T7:49:15Z</time></trkpt>
<trkpt lat="46.15184197202325" lon="7.121903970837593"><ele></ele><time>2015-11-5T7:49:18Z</time></trkpt>
<trkpt lat="46.15186996757984" lon="7.1217159647494555"><ele></ele><time>2015-11-5T7:49:21Z</time></trkpt>
<trkpt lat="46.151855969801545" lon="7.1215239353477955"><ele></ele><time>2015-11-5T7:49:24Z</time></trkpt>
<trkpt lat="46.15178992040455" lon="7.121345987543464"><ele></ele><time>2015-11-5T7:49:27Z</time></trkpt>
<trkpt lat="46.151724960654974" lon="7.1211999747902155"><ele></ele><time>2015-11-5T7:49:30Z</time></trkpt>
<trkpt lat="46.15161197260022" lon="7.121118921786547"><ele></ele><time>2015-11-5T7:49:33Z</time></trkpt>
<trkpt lat="46.15149898454547" lon="7.121067959815264"><ele></ele><time>2015-11-5T7:49:36Z</time></trkpt>
<trkpt lat="46.15138993598521" lon="7.121051950380206"><ele></ele><time>2015-11-5T7:49:39Z</time></trkpt>
<trkpt lat="46.15128398872912" lon="7.121036946773529"><ele></ele><time>2015-11-5T7:49:42Z</time></trkpt>
<trkpt lat="46.151208970695734" lon="7.121010962873697"><ele></ele><time>2015-11-5T7:49:45Z</time></trkpt>
<trkpt lat="46.151148956269026" lon="7.12095195427537"><ele></ele><time>2015-11-5T7:49:48Z</time></trkpt>
<trkpt lat="46.15109296515584" lon="7.120880959555507"><ele></ele><time>2015-11-5T7:49:51Z</time></trkpt>
<trkpt lat="46.15105298347771" lon="7.1207069512456656"><ele></ele><time>2015-11-5T7:49:54Z</time></trkpt>
<trkpt lat="46.15104996599257" lon="7.120490949600935"><ele></ele><time>2015-11-5T7:49:57Z</time></trkpt>
<trkpt lat="46.1510759498924" lon="7.120300931856036"><ele></ele><time>2015-11-5T7:50:0Z</time></trkpt>
<trkpt lat="46.1511449329555" lon="7.1200749557465315"><ele></ele><time>2015-11-5T7:50:3Z</time></trkpt>
<trkpt lat="46.151149962097406" lon="7.119853924959898"><ele></ele><time>2015-11-5T7:50:6Z</time></trkpt>
<trkpt lat="46.151127917692065" lon="7.119678994640708"><ele></ele><time>2015-11-5T7:50:9Z</time></trkpt>
<trkpt lat="46.151082990691066" lon="7.11953398771584"><ele></ele><time>2015-11-5T7:50:12Z</time></trkpt>
<trkpt lat="46.150997998192906" lon="7.119390992447734"><ele></ele><time>2015-11-5T7:50:15Z</time></trkpt>
<trkpt lat="46.15088693797588" lon="7.119291918352246"><ele></ele><time>2015-11-5T7:50:18Z</time></trkpt>
<trkpt lat="46.150736985728145" lon="7.1192229352891445"><ele></ele><time>2015-11-5T7:50:21Z</time></trkpt>
<trkpt lat="46.15062491968274" lon="7.119154958054423"><ele></ele><time>2015-11-5T7:50:24Z</time></trkpt>
<trkpt lat="46.150525929406285" lon="7.119077928364277"><ele></ele><time>2015-11-5T7:50:27Z</time></trkpt>
<trkpt lat="46.15045493468642" lon="7.11899695917964"><ele></ele><time>2015-11-5T7:50:30Z</time></trkpt>
<trkpt lat="46.15033993497491" lon="7.118839966133237"><ele></ele><time>2015-11-5T7:50:33Z</time></trkpt>
<trkpt lat="46.15027095191181" lon="7.118710968643427"><ele></ele><time>2015-11-5T7:50:36Z</time></trkpt>
<trkpt lat="46.15020599216223" lon="7.118581971153617"><ele></ele><time>2015-11-5T7:50:39Z</time></trkpt>
<trkpt lat="46.15014899522066" lon="7.118465965613723"><ele></ele><time>2015-11-5T7:50:42Z</time></trkpt>
<trkpt lat="46.15003793500364" lon="7.11824594065547"><ele></ele><time>2015-11-5T7:50:45Z</time></trkpt>
<trkpt lat="46.1499899905175" lon="7.118148962035775"><ele></ele><time>2015-11-5T7:50:48Z</time></trkpt>
<trkpt lat="46.14995394833386" lon="7.118035973981023"><ele></ele><time>2015-11-5T7:50:51Z</time></trkpt>
<trkpt lat="46.14990692585707" lon="7.117875963449478"><ele></ele><time>2015-11-5T7:50:54Z</time></trkpt>
<trkpt lat="46.14987297914922" lon="7.117761969566345"><ele></ele><time>2015-11-5T7:50:57Z</time></trkpt>
<trkpt lat="46.14983199164271" lon="7.117618974298239"><ele></ele><time>2015-11-5T7:51:0Z</time></trkpt>
<trkpt lat="46.149772983044386" lon="7.117453934624791"><ele></ele><time>2015-11-5T7:51:3Z</time></trkpt>
<trkpt lat="46.149682961404324" lon="7.117258971557021"><ele></ele><time>2015-11-5T7:51:6Z</time></trkpt>
<trkpt lat="46.149603920057416" lon="7.117144977673888"><ele></ele><time>2015-11-5T7:51:9Z</time></trkpt>
<trkpt lat="46.14944692701101" lon="7.116987984627485"><ele></ele><time>2015-11-5T7:51:12Z</time></trkpt>
<trkpt lat="46.14930694922805" lon="7.116851946339011"><ele></ele><time>2015-11-5T7:51:15Z</time></trkpt>
<trkpt lat="46.14918298088014" lon="7.116717919707298"><ele></ele><time>2015-11-5T7:51:18Z</time></trkpt>
<trkpt lat="46.14909094758332" lon="7.11661197245121"><ele></ele><time>2015-11-5T7:51:21Z</time></trkpt>
<trkpt lat="46.148996986448765" lon="7.116465959697962"><ele></ele><time>2015-11-5T7:51:24Z</time></trkpt>
<trkpt lat="46.14892791956663" lon="7.116292957216501"><ele></ele><time>2015-11-5T7:51:27Z</time></trkpt>
<trkpt lat="46.148891961202025" lon="7.116139987483621"><ele></ele><time>2015-11-5T7:51:30Z</time></trkpt>
<trkpt lat="46.1488519795239" lon="7.115906970575452"><ele></ele><time>2015-11-5T7:51:33Z</time></trkpt>
<trkpt lat="46.148828929290175" lon="7.115701949223876"><ele></ele><time>2015-11-5T7:51:36Z</time></trkpt>
<trkpt lat="46.148822978138924" lon="7.115444960072637"><ele></ele><time>2015-11-5T7:51:39Z</time></trkpt>
<trkpt lat="46.148822978138924" lon="7.115272963419557"><ele></ele><time>2015-11-5T7:51:42Z</time></trkpt>
<trkpt lat="46.14885298535228" lon="7.115123933181167"><ele></ele><time>2015-11-5T7:51:45Z</time></trkpt>
<trkpt lat="46.14886094816029" lon="7.1149219293147326"><ele></ele><time>2015-11-5T7:51:48Z</time></trkpt>
<trkpt lat="46.148849967867136" lon="7.114733923226595"><ele></ele><time>2015-11-5T7:51:51Z</time></trkpt>
<trkpt lat="46.148827923461795" lon="7.114544995129108"><ele></ele><time>2015-11-5T7:51:54Z</time></trkpt>
<trkpt lat="46.14879196509719" lon="7.11435497738421"><ele></ele><time>2015-11-5T7:51:57Z</time></trkpt>
<trkpt lat="46.14873396232724" lon="7.114116931334138"><ele></ele><time>2015-11-5T7:52:0Z</time></trkpt>
<trkpt lat="46.14868291653693" lon="7.1139229740947485"><ele></ele><time>2015-11-5T7:52:3Z</time></trkpt>
<trkpt lat="46.14862591959536" lon="7.113725999370217"><ele></ele><time>2015-11-5T7:52:6Z</time></trkpt>
<trkpt lat="46.148568922653794" lon="7.113530952483416"><ele></ele><time>2015-11-5T7:52:9Z</time></trkpt>
<trkpt lat="46.14852994680405" lon="7.113340934738517"><ele></ele><time>2015-11-5T7:52:12Z</time></trkpt>
<trkpt lat="46.14864494651556" lon="7.113267928361893"><ele></ele><time>2015-11-5T7:52:15Z</time></trkpt>
<trkpt lat="46.14868794567883" lon="7.113358955830336"><ele></ele><time>2015-11-5T7:52:18Z</time></trkpt>
<trkpt lat="46.148742930963635" lon="7.113588955253363"><ele></ele><time>2015-11-5T7:52:21Z</time></trkpt>
<trkpt lat="46.14880193956196" lon="7.113777967169881"><ele></ele><time>2015-11-5T7:52:24Z</time></trkpt>
<trkpt lat="46.14887494593859" lon="7.113969996571541"><ele></ele><time>2015-11-5T7:52:27Z</time></trkpt>
<trkpt lat="46.148935966193676" lon="7.11414098739624"><ele></ele><time>2015-11-5T7:52:30Z</time></trkpt>
<trkpt lat="46.14902397617698" lon="7.114308960735798"><ele></ele><time>2015-11-5T7:52:33Z</time></trkpt>
<trkpt lat="46.14911299198866" lon="7.114456985145807"><ele></ele><time>2015-11-5T7:52:36Z</time></trkpt>
<trkpt lat="46.14922497421503" lon="7.114617917686701"><ele></ele><time>2015-11-5T7:52:39Z</time></trkpt>
<trkpt lat="46.14936092868447" lon="7.114811958745122"><ele></ele><time>2015-11-5T7:52:42Z</time></trkpt>
<trkpt lat="46.14946494810283" lon="7.114968951791525"><ele></ele><time>2015-11-5T7:52:45Z</time></trkpt>
<trkpt lat="46.14955195225775" lon="7.115106917917728"><ele></ele><time>2015-11-5T7:52:48Z</time></trkpt>
<trkpt lat="46.14964993670583" lon="7.115253936499357"><ele></ele><time>2015-11-5T7:52:51Z</time></trkpt>
<trkpt lat="46.14973593503237" lon="7.115376982837915"><ele></ele><time>2015-11-5T7:52:54Z</time></trkpt>
<trkpt lat="46.14990298636258" lon="7.115513943135738"><ele></ele><time>2015-11-5T7:52:57Z</time></trkpt>
<trkpt lat="46.14999393001199" lon="7.115585943683982"><ele></ele><time>2015-11-5T7:53:0Z</time></trkpt>
<trkpt lat="46.150095937773585" lon="7.115643946453929"><ele></ele><time>2015-11-5T7:53:3Z</time></trkpt>
<trkpt lat="46.15010398440063" lon="7.115648975595832"><ele></ele><time>2015-11-5T7:53:6Z</time></trkpt>
<trkpt lat="46.15010398440063" lon="7.115648975595832"><ele></ele><time>2015-11-5T7:53:9Z</time></trkpt>
<trkpt lat="46.150177996605635" lon="7.115718964487314"><ele></ele><time>2015-11-5T7:53:12Z</time></trkpt>
<trkpt lat="46.1502849496901" lon="7.115870928391814"><ele></ele><time>2015-11-5T7:53:15Z</time></trkpt>
<trkpt lat="46.15036893635988" lon="7.116043930873275"><ele></ele><time>2015-11-5T7:53:18Z</time></trkpt>
<trkpt lat="46.15046893246472" lon="7.116226991638541"><ele></ele><time>2015-11-5T7:53:21Z</time></trkpt>
<trkpt lat="46.15053598769009" lon="7.116339979693294"><ele></ele><time>2015-11-5T7:53:24Z</time></trkpt>
<trkpt lat="46.15064696408808" lon="7.116510970517993"><ele></ele><time>2015-11-5T7:53:27Z</time></trkpt>
<trkpt lat="46.15075198933482" lon="7.116660922765732"><ele></ele><time>2015-11-5T7:53:30Z</time></trkpt>
<trkpt lat="46.150867994874716" lon="7.116827974095941"><ele></ele><time>2015-11-5T7:53:33Z</time></trkpt>
<trkpt lat="46.151016941294074" lon="7.117033917456865"><ele></ele><time>2015-11-5T7:53:36Z</time></trkpt>
<trkpt lat="46.15115398541093" lon="7.117201974615455"><ele></ele><time>2015-11-5T7:53:39Z</time></trkpt>
<trkpt lat="46.15126898512244" lon="7.117345975711942"><ele></ele><time>2015-11-5T7:53:42Z</time></trkpt>
<trkpt lat="46.15140996873379" lon="7.117533981800079"><ele></ele><time>2015-11-5T7:53:45Z</time></trkpt>
<trkpt lat="46.15152698010206" lon="7.117678988724947"><ele></ele><time>2015-11-5T7:53:48Z</time></trkpt>
<trkpt lat="46.15166997537017" lon="7.117804968729615"><ele></ele><time>2015-11-5T7:53:51Z</time></trkpt>
<trkpt lat="46.15177592262626" lon="7.117834975942969"><ele></ele><time>2015-11-5T7:53:54Z</time></trkpt>
<trkpt lat="46.15190198644996" lon="7.117847967892885"><ele></ele><time>2015-11-5T7:53:57Z</time></trkpt>
<trkpt lat="46.15203894674778" lon="7.117833970114589"><ele></ele><time>2015-11-5T7:54:0Z</time></trkpt>
<trkpt lat="46.15214891731739" lon="7.117847967892885"><ele></ele><time>2015-11-5T7:54:3Z</time></trkpt>
<trkpt lat="46.15225394256413" lon="7.117865988984704"><ele></ele><time>2015-11-5T7:54:6Z</time></trkpt>
<trkpt lat="46.15240498445928" lon="7.11796497926116"><ele></ele><time>2015-11-5T7:54:9Z</time></trkpt>
<trkpt lat="46.152519984170794" lon="7.1181099861860275"><ele></ele><time>2015-11-5T7:54:12Z</time></trkpt>
<trkpt lat="46.15261897444725" lon="7.1183049492537975"><ele></ele><time>2015-11-5T7:54:15Z</time></trkpt>
<trkpt lat="46.15268594585359" lon="7.118477951735258"><ele></ele><time>2015-11-5T7:54:18Z</time></trkpt>
<trkpt lat="46.15274696610868" lon="7.1186059433966875"><ele></ele><time>2015-11-5T7:54:21Z</time></trkpt>
<trkpt lat="46.152819972485304" lon="7.118692947551608"><ele></ele><time>2015-11-5T7:54:24Z</time></trkpt>
<trkpt lat="46.15295995026827" lon="7.118765953928232"><ele></ele><time>2015-11-5T7:54:27Z</time></trkpt>
<trkpt lat="46.15314996801317" lon="7.118864944204688"><ele></ele><time>2015-11-5T7:54:30Z</time></trkpt>
<trkpt lat="46.15332799963653" lon="7.1189649403095245"><ele></ele><time>2015-11-5T7:54:33Z</time></trkpt>
<trkpt lat="46.153465965762734" lon="7.11910299025476"><ele></ele><time>2015-11-5T7:54:36Z</time></trkpt>
<trkpt lat="46.153552969917655" lon="7.119245985522866"><ele></ele><time>2015-11-5T7:54:39Z</time></trkpt>
<trkpt lat="46.15356897935271" lon="7.11927792057395"><ele></ele><time>2015-11-5T7:54:42Z</time></trkpt>
<trkpt lat="46.153596974909306" lon="7.119332989677787"><ele></ele><time>2015-11-5T7:54:45Z</time></trkpt>
<trkpt lat="46.15364894270897" lon="7.1194479893893"><ele></ele><time>2015-11-5T7:54:48Z</time></trkpt>
<trkpt lat="46.15365497767925" lon="7.119461987167597"><ele></ele><time>2015-11-5T7:54:51Z</time></trkpt>
<trkpt lat="46.153663946315646" lon="7.119483947753906"><ele></ele><time>2015-11-5T7:54:54Z</time></trkpt>
<trkpt lat="46.15367894992232" lon="7.119522923603654"><ele></ele><time>2015-11-5T7:54:57Z</time></trkpt>
<trkpt lat="46.153706945478916" lon="7.119591990485787"><ele></ele><time>2015-11-5T7:55:0Z</time></trkpt>
<trkpt lat="46.153724966570735" lon="7.119628954678774"><ele></ele><time>2015-11-5T7:55:3Z</time></trkpt>
<trkpt lat="46.15381599403918" lon="7.119763987138867"><ele></ele><time>2015-11-5T7:55:6Z</time></trkpt>
<trkpt lat="46.15386896766722" lon="7.119827941060066"><ele></ele><time>2015-11-5T7:55:9Z</time></trkpt>
<trkpt lat="46.15388195961714" lon="7.119842944666743"><ele></ele><time>2015-11-5T7:55:12Z</time></trkpt>
<trkpt lat="46.153961922973394" lon="7.119933972135186"><ele></ele><time>2015-11-5T7:55:15Z</time></trkpt>
<trkpt lat="46.15410894155502" lon="7.1202239859849215"><ele></ele><time>2015-11-5T7:55:18Z</time></trkpt>
<trkpt lat="46.15415998734534" lon="7.1203759498894215"><ele></ele><time>2015-11-5T7:55:21Z</time></trkpt>
<trkpt lat="46.15420499816537" lon="7.120515927672386"><ele></ele><time>2015-11-5T7:55:24Z</time></trkpt>
<trkpt lat="46.154153952375054" lon="7.120360946282744"><ele></ele><time>2015-11-5T7:55:27Z</time></trkpt>
<trkpt lat="46.1542259529233" lon="7.120591951534152"><ele></ele><time>2015-11-5T7:55:30Z</time></trkpt>
<trkpt lat="46.154283955693245" lon="7.12078096345067"><ele></ele><time>2015-11-5T7:55:33Z</time></trkpt>
<trkpt lat="46.15433491766453" lon="7.120936950668693"><ele></ele><time>2015-11-5T7:55:36Z</time></trkpt>
<trkpt lat="46.154411947354674" lon="7.121150940656662"><ele></ele><time>2015-11-5T7:55:39Z</time></trkpt>
<trkpt lat="46.15445293486118" lon="7.121301982551813"><ele></ele><time>2015-11-5T7:55:42Z</time></trkpt>
<trkpt lat="46.15448193624616" lon="7.121541956439614"><ele></ele><time>2015-11-5T7:55:45Z</time></trkpt>
<trkpt lat="46.154518984258175" lon="7.121749995276332"><ele></ele><time>2015-11-5T7:55:48Z</time></trkpt>
<trkpt lat="46.15457899868488" lon="7.1219109278172255"><ele></ele><time>2015-11-5T7:55:51Z</time></trkpt>
<trkpt lat="46.15466499701142" lon="7.122052917256951"><ele></ele><time>2015-11-5T7:55:54Z</time></trkpt>
<trkpt lat="46.15475191734731" lon="7.122145956382155"><ele></ele><time>2015-11-5T7:55:57Z</time></trkpt>
<trkpt lat="46.15488996729255" lon="7.1222819946706295"><ele></ele><time>2015-11-5T7:56:0Z</time></trkpt>
<trkpt lat="46.15495794452727" lon="7.122388947755098"><ele></ele><time>2015-11-5T7:56:3Z</time></trkpt>
<trkpt lat="46.15502592176199" lon="7.122528925538063"><ele></ele><time>2015-11-5T7:56:6Z</time></trkpt>
<trkpt lat="46.15507294423878" lon="7.122654989361763"><ele></ele><time>2015-11-5T7:56:9Z</time></trkpt>
<trkpt lat="46.15510395728052" lon="7.122740987688303"><ele></ele><time>2015-11-5T7:56:12Z</time></trkpt>
<trkpt lat="46.155145950615406" lon="7.1228559873998165"><ele></ele><time>2015-11-5T7:56:15Z</time></trkpt>
<trkpt lat="46.15520998835564" lon="7.123031923547387"><ele></ele><time>2015-11-5T7:56:18Z</time></trkpt>
<trkpt lat="46.15525793284178" lon="7.123161926865578"><ele></ele><time>2015-11-5T7:56:21Z</time></trkpt>
<trkpt lat="46.15530998446047" lon="7.123305927962065"><ele></ele><time>2015-11-5T7:56:24Z</time></trkpt>
<trkpt lat="46.15532498806715" lon="7.123345993459225"><ele></ele><time>2015-11-5T7:56:27Z</time></trkpt>
<trkpt lat="46.155316941440105" lon="7.123760981485248"><ele></ele><time>2015-11-5T7:56:30Z</time></trkpt>
<trkpt lat="46.15532599389553" lon="7.123984945937991"><ele></ele><time>2015-11-5T7:56:33Z</time></trkpt>
<trkpt lat="46.15533194504678" lon="7.124232966452837"><ele></ele><time>2015-11-5T7:56:36Z</time></trkpt>
<trkpt lat="46.155337980017066" lon="7.124479981139302"><ele></ele><time>2015-11-5T7:56:39Z</time></trkpt>
<trkpt lat="46.15534393116832" lon="7.124728923663497"><ele></ele><time>2015-11-5T7:56:42Z</time></trkpt>
<trkpt lat="46.15537494421005" lon="7.124912990257144"><ele></ele><time>2015-11-5T7:56:45Z</time></trkpt>
<trkpt lat="46.15545599721372" lon="7.125083981081843"><ele></ele><time>2015-11-5T7:56:48Z</time></trkpt>
<trkpt lat="46.15551793947816" lon="7.125169979408383"><ele></ele><time>2015-11-5T7:56:51Z</time></trkpt>
<trkpt lat="46.15551793947816" lon="7.125169979408383"><ele></ele><time>2015-11-5T7:56:54Z</time></trkpt>
<trkpt lat="46.15578096359968" lon="7.125596953555942"><ele></ele><time>2015-11-5T7:56:57Z</time></trkpt>
<trkpt lat="46.15586092695594" lon="7.125727962702513"><ele></ele><time>2015-11-5T7:57:0Z</time></trkpt>
<trkpt lat="46.156303994357586" lon="7.125768950209022"><ele></ele><time>2015-11-5T7:57:3Z</time></trkpt>
<trkpt lat="46.156394938007" lon="7.12602199986577"><ele></ele><time>2015-11-5T7:57:6Z</time></trkpt>
<trkpt lat="46.15649099461734" lon="7.126234984025359"><ele></ele><time>2015-11-5T7:57:9Z</time></trkpt>
<trkpt lat="46.15657699294388" lon="7.1264089923352"><ele></ele><time>2015-11-5T7:57:12Z</time></trkpt>
<trkpt lat="46.156646981835365" lon="7.126548970118165"><ele></ele><time>2015-11-5T7:57:15Z</time></trkpt>
<trkpt lat="46.15670599043369" lon="7.12666698731482"><ele></ele><time>2015-11-5T7:57:18Z</time></trkpt>
<trkpt lat="46.15677899681032" lon="7.126831943169236"><ele></ele><time>2015-11-5T7:57:21Z</time></trkpt>
<trkpt lat="46.15687496960163" lon="7.127051968127489"><ele></ele><time>2015-11-5T7:57:24Z</time></trkpt>
<trkpt lat="46.15695392712951" lon="7.127236956730485"><ele></ele><time>2015-11-5T7:57:27Z</time></trkpt>
<trkpt lat="46.157035985961556" lon="7.1274329256266356"><ele></ele><time>2015-11-5T7:57:30Z</time></trkpt>
<trkpt lat="46.15710496902466" lon="7.127528982236981"><ele></ele><time>2015-11-5T7:57:33Z</time></trkpt>
<trkpt lat="46.157187949866056" lon="7.127571981400251"><ele></ele><time>2015-11-5T7:57:36Z</time></trkpt>
<trkpt lat="46.15720094181597" lon="7.127563934773207"><ele></ele><time>2015-11-5T7:57:39Z</time></trkpt>
<trkpt lat="46.15721292793751" lon="7.127551948651671"><ele></ele><time>2015-11-5T7:57:42Z</time></trkpt>
<trkpt lat="46.15721292793751" lon="7.1275009866803885"><ele></ele><time>2015-11-5T7:57:45Z</time></trkpt>
<trkpt lat="46.15719691850245" lon="7.1273749228566885"><ele></ele><time>2015-11-5T7:57:48Z</time></trkpt>
<trkpt lat="46.15717998705804" lon="7.127253971993923"><ele></ele><time>2015-11-5T7:57:51Z</time></trkpt>
<trkpt lat="46.15717797540128" lon="7.127146935090423"><ele></ele><time>2015-11-5T7:57:54Z</time></trkpt>
<trkpt lat="46.15718292072415" lon="7.127122962847352"><ele></ele><time>2015-11-5T7:57:57Z</time></trkpt>
<trkpt lat="46.157206976786256" lon="7.127031935378909"><ele></ele><time>2015-11-5T7:58:0Z</time></trkpt>
<trkpt lat="46.157248970121145" lon="7.126998994499445"><ele></ele><time>2015-11-5T7:58:3Z</time></trkpt>
<trkpt lat="46.157312924042344" lon="7.127049956470728"><ele></ele><time>2015-11-5T7:58:6Z</time></trkpt>
<trkpt lat="46.15732298232615" lon="7.12707594037056"><ele></ele><time>2015-11-5T7:58:9Z</time></trkpt>
<trkpt lat="46.15736899897456" lon="7.127167973667383"><ele></ele><time>2015-11-5T7:58:12Z</time></trkpt>
<trkpt lat="46.1573809850961" lon="7.127188928425312"><ele></ele><time>2015-11-5T7:58:15Z</time></trkpt>
<trkpt lat="46.15744896233082" lon="7.127301916480064"><ele></ele><time>2015-11-5T7:58:18Z</time></trkpt>
<trkpt lat="46.15752096287906" lon="7.127400990575552"><ele></ele><time>2015-11-5T7:58:21Z</time></trkpt>
<trkpt lat="46.15758298896253" lon="7.1274579875171185"><ele></ele><time>2015-11-5T7:58:24Z</time></trkpt>
<trkpt lat="46.1576259881258" lon="7.1274399664253"><ele></ele><time>2015-11-5T7:58:27Z</time></trkpt>
<trkpt lat="46.15763193927705" lon="7.1274329256266356"><ele></ele><time>2015-11-5T7:58:30Z</time></trkpt>
<trkpt lat="46.15706297568977" lon="7.127465950325131"><ele></ele><time>2015-11-5T7:58:33Z</time></trkpt>
<trkpt lat="46.157654989510775" lon="7.127269981428981"><ele></ele><time>2015-11-5T7:58:36Z</time></trkpt>
<trkpt lat="46.15763093344867" lon="7.127129919826984"><ele></ele><time>2015-11-5T7:58:39Z</time></trkpt>
<trkpt lat="46.15757795982063" lon="7.126895980909467"><ele></ele><time>2015-11-5T7:58:42Z</time></trkpt>
<trkpt lat="46.15749497897923" lon="7.126710992306471"><ele></ele><time>2015-11-5T7:58:45Z</time></trkpt>
<trkpt lat="46.15740495733917" lon="7.126558944582939"><ele></ele><time>2015-11-5T7:58:48Z</time></trkpt>
<trkpt lat="46.15733195096254" lon="7.1264419332146645"><ele></ele><time>2015-11-5T7:58:51Z</time></trkpt>
<trkpt lat="46.15723396651447" lon="7.126285945996642"><ele></ele><time>2015-11-5T7:58:54Z</time></trkpt>
<trkpt lat="46.15712894126773" lon="7.126053934916854"><ele></ele><time>2015-11-5T7:58:57Z</time></trkpt>
<trkpt lat="46.15706599317491" lon="7.12591496296227"><ele></ele><time>2015-11-5T7:59:0Z</time></trkpt>
<trkpt lat="46.15700497291982" lon="7.125772973522544"><ele></ele><time>2015-11-5T7:59:3Z</time></trkpt>
<trkpt lat="46.15695996209979" lon="7.125649927183986"><ele></ele><time>2015-11-5T7:59:6Z</time></trkpt>
<trkpt lat="46.15689693018794" lon="7.125476924702525"><ele></ele><time>2015-11-5T7:59:9Z</time></trkpt>
<trkpt lat="46.15689198486507" lon="7.125462926924229"><ele></ele><time>2015-11-5T7:59:12Z</time></trkpt>
<trkpt lat="46.15686792880297" lon="7.125397967174649"><ele></ele><time>2015-11-5T7:59:15Z</time></trkpt>
<trkpt lat="46.15685795433819" lon="7.125369971618056"><ele></ele><time>2015-11-5T7:59:18Z</time></trkpt>
<trkpt lat="46.15684797987342" lon="7.125341976061463"><ele></ele><time>2015-11-5T7:59:21Z</time></trkpt>
<trkpt lat="46.156902965158224" lon="7.125493939965963"><ele></ele><time>2015-11-5T7:59:24Z</time></trkpt>
<trkpt lat="46.15694093517959" lon="7.125596953555942"><ele></ele><time>2015-11-5T7:59:27Z</time></trkpt>
<trkpt lat="46.15699499845505" lon="7.1257459837943316"><ele></ele><time>2015-11-5T7:59:30Z</time></trkpt>
<trkpt lat="46.15704797208309" lon="7.125875987112522"><ele></ele><time>2015-11-5T7:59:33Z</time></trkpt>
<trkpt lat="46.15710396319628" lon="7.125999955460429"><ele></ele><time>2015-11-5T7:59:36Z</time></trkpt>
<trkpt lat="46.15710999816656" lon="7.126012947410345"><ele></ele><time>2015-11-5T7:59:39Z</time></trkpt>
<trkpt lat="46.15714796818793" lon="7.126096934080124"><ele></ele><time>2015-11-5T7:59:42Z</time></trkpt>
<trkpt lat="46.15718996152282" lon="7.126189973205328"><ele></ele><time>2015-11-5T7:59:45Z</time></trkpt>
<trkpt lat="46.15725198760629" lon="7.126313941553235"><ele></ele><time>2015-11-5T7:59:48Z</time></trkpt>
<trkpt lat="46.157269924879074" lon="7.126343948766589"><ele></ele><time>2015-11-5T7:59:51Z</time></trkpt>
<trkpt lat="46.15750093013048" lon="7.126091988757253"><ele></ele><time>2015-11-5T7:59:54Z</time></trkpt>
<trkpt lat="46.15755398757756" lon="7.126135993748903"><ele></ele><time>2015-11-5T7:59:57Z</time></trkpt>
<trkpt lat="46.1576069612056" lon="7.126178992912173"><ele></ele><time>2015-11-5T8:0:0Z</time></trkpt>
<trkpt lat="46.15766697563231" lon="7.126227943226695"><ele></ele><time>2015-11-5T8:0:3Z</time></trkpt>
<trkpt lat="46.15766697563231" lon="7.126227943226695"><ele></ele><time>2015-11-5T8:0:6Z</time></trkpt>
<trkpt lat="46.157689942047" lon="7.126245964318514"><ele></ele><time>2015-11-5T8:0:9Z</time></trkpt>
<trkpt lat="46.157689942047" lon="7.126245964318514"><ele></ele><time>2015-11-5T8:0:12Z</time></trkpt>
<trkpt lat="46.15773696452379" lon="7.126273959875107"><ele></ele><time>2015-11-5T8:0:15Z</time></trkpt>
<trkpt lat="46.15777694620192" lon="7.126298937946558"><ele></ele><time>2015-11-5T8:0:18Z</time></trkpt>
<trkpt lat="46.15777694620192" lon="7.126298937946558"><ele></ele><time>2015-11-5T8:0:21Z</time></trkpt>
<trkpt lat="46.15777694620192" lon="7.126298937946558"><ele></ele><time>2015-11-5T8:0:24Z</time></trkpt>
<trkpt lat="46.15777694620192" lon="7.126298937946558"><ele></ele><time>2015-11-5T8:0:27Z</time></trkpt>
<trkpt lat="46.15777694620192" lon="7.126298937946558"><ele></ele><time>2015-11-5T8:0:30Z</time></trkpt>
<trkpt lat="46.15777694620192" lon="7.126298937946558"><ele></ele><time>2015-11-5T8:0:33Z</time></trkpt>
<trkpt lat="46.15790795534849" lon="7.126379990950227"><ele></ele><time>2015-11-5T8:0:36Z</time></trkpt>
<trkpt lat="46.15790795534849" lon="7.126379990950227"><ele></ele><time>2015-11-5T8:0:39Z</time></trkpt>
<trkpt lat="46.15790795534849" lon="7.126379990950227"><ele></ele><time>2015-11-5T8:0:42Z</time></trkpt>
<trkpt lat="46.15790795534849" lon="7.126379990950227"><ele></ele><time>2015-11-5T8:0:45Z</time></trkpt>
<trkpt lat="46.15790795534849" lon="7.126379990950227"><ele></ele><time>2015-11-5T8:0:48Z</time></trkpt>
<trkpt lat="46.15790795534849" lon="7.126379990950227"><ele></ele><time>2015-11-5T8:0:51Z</time></trkpt>
<trkpt lat="46.158196963369846" lon="7.126552993431687"><ele></ele><time>2015-11-5T8:0:54Z</time></trkpt>
<trkpt lat="46.158196963369846" lon="7.126552993431687"><ele></ele><time>2015-11-5T8:0:57Z</time></trkpt>
<trkpt lat="46.158196963369846" lon="7.126552993431687"><ele></ele><time>2015-11-5T8:1:0Z</time></trkpt>
<trkpt lat="46.158196963369846" lon="7.126552993431687"><ele></ele><time>2015-11-5T8:1:3Z</time></trkpt>
<trkpt lat="46.158196963369846" lon="7.126552993431687"><ele></ele><time>2015-11-5T8:1:6Z</time></trkpt>
<trkpt lat="46.15835496224463" lon="7.126660952344537"><ele></ele><time>2015-11-5T8:1:9Z</time></trkpt>
<trkpt lat="46.15835496224463" lon="7.126660952344537"><ele></ele><time>2015-11-5T8:1:12Z</time></trkpt>
<trkpt lat="46.15835496224463" lon="7.126660952344537"><ele></ele><time>2015-11-5T8:1:15Z</time></trkpt>
<trkpt lat="46.15835496224463" lon="7.126660952344537"><ele></ele><time>2015-11-5T8:1:18Z</time></trkpt>
<trkpt lat="46.15835496224463" lon="7.126660952344537"><ele></ele><time>2015-11-5T8:1:21Z</time></trkpt>
<trkpt lat="46.15835496224463" lon="7.126660952344537"><ele></ele><time>2015-11-5T8:1:24Z</time></trkpt>
<trkpt lat="46.15835496224463" lon="7.126660952344537"><ele></ele><time>2015-11-5T8:1:27Z</time></trkpt>
<trkpt lat="46.15864899940789" lon="7.126908972859383"><ele></ele><time>2015-11-5T8:1:30Z</time></trkpt>
<trkpt lat="46.15871999412775" lon="7.126976950094104"><ele></ele><time>2015-11-5T8:1:33Z</time></trkpt>
<trkpt lat="46.15879392251372" lon="7.127051968127489"><ele></ele><time>2015-11-5T8:1:36Z</time></trkpt>
<trkpt lat="46.15879392251372" lon="7.127051968127489"><ele></ele><time>2015-11-5T8:1:39Z</time></trkpt>
<trkpt lat="46.15885494276881" lon="7.12713997811079"><ele></ele><time>2015-11-5T8:1:42Z</time></trkpt>
<trkpt lat="46.15885494276881" lon="7.12713997811079"><ele></ele><time>2015-11-5T8:1:45Z</time></trkpt>
<trkpt lat="46.1588969361037" lon="7.1272029262036085"><ele></ele><time>2015-11-5T8:1:48Z</time></trkpt>
<trkpt lat="46.158966924995184" lon="7.127307951450348"><ele></ele><time>2015-11-5T8:1:51Z</time></trkpt>
<trkpt lat="46.15903993137181" lon="7.127436948940158"><ele></ele><time>2015-11-5T8:1:54Z</time></trkpt>
<trkpt lat="46.15910992026329" lon="7.12756896391511"><ele></ele><time>2015-11-5T8:1:57Z</time></trkpt>
<trkpt lat="46.15914596244693" lon="7.127641970291734"><ele></ele><time>2015-11-5T8:2:0Z</time></trkpt>
<trkpt lat="46.159179992973804" lon="7.127709947526455"><ele></ele><time>2015-11-5T8:2:3Z</time></trkpt>
<trkpt lat="46.159201953560114" lon="7.127743978053331"><ele></ele><time>2015-11-5T8:2:6Z</time></trkpt>
<trkpt lat="46.15923095494509" lon="7.127779936417937"><ele></ele><time>2015-11-5T8:2:9Z</time></trkpt>
<trkpt lat="46.15923095494509" lon="7.127779936417937"><ele></ele><time>2015-11-5T8:2:12Z</time></trkpt>
<trkpt lat="46.15929893217981" lon="7.127867946401238"><ele></ele><time>2015-11-5T8:2:15Z</time></trkpt>
<trkpt lat="46.15932198241353" lon="7.1278979536145926"><ele></ele><time>2015-11-5T8:2:18Z</time></trkpt>
<trkpt lat="46.15933698602021" lon="7.127916980534792"><ele></ele><time>2015-11-5T8:2:21Z</time></trkpt>
<trkpt lat="46.15938694216311" lon="7.127958973869681"><ele></ele><time>2015-11-5T8:2:24Z</time></trkpt>
<trkpt lat="46.15938694216311" lon="7.127958973869681"><ele></ele><time>2015-11-5T8:2:27Z</time></trkpt>
<trkpt lat="46.15942591801286" lon="7.127990992739797"><ele></ele><time>2015-11-5T8:2:30Z</time></trkpt>
<trkpt lat="46.15947294048965" lon="7.128030974417925"><ele></ele><time>2015-11-5T8:2:33Z</time></trkpt>
<trkpt lat="46.15947294048965" lon="7.128030974417925"><ele></ele><time>2015-11-5T8:2:36Z</time></trkpt>
<trkpt lat="46.15947294048965" lon="7.128030974417925"><ele></ele><time>2015-11-5T8:2:39Z</time></trkpt>
<trkpt lat="46.159566985443234" lon="7.128141950815916"><ele></ele><time>2015-11-5T8:2:42Z</time></trkpt>
<trkpt lat="46.159566985443234" lon="7.128141950815916"><ele></ele><time>2015-11-5T8:2:45Z</time></trkpt>
<trkpt lat="46.159566985443234" lon="7.128141950815916"><ele></ele><time>2015-11-5T8:2:48Z</time></trkpt>
<trkpt lat="46.159566985443234" lon="7.128141950815916"><ele></ele><time>2015-11-5T8:2:51Z</time></trkpt>
<trkpt lat="46.159566985443234" lon="7.128141950815916"><ele></ele><time>2015-11-5T8:2:54Z</time></trkpt>
<trkpt lat="46.15970796905458" lon="7.1284489799290895"><ele></ele><time>2015-11-5T8:2:57Z</time></trkpt>
<trkpt lat="46.15970796905458" lon="7.1284489799290895"><ele></ele><time>2015-11-5T8:3:0Z</time></trkpt>
<trkpt lat="46.15974895656109" lon="7.128536989912391"><ele></ele><time>2015-11-5T8:3:3Z</time></trkpt>
<trkpt lat="46.15974895656109" lon="7.128536989912391"><ele></ele><time>2015-11-5T8:3:6Z</time></trkpt>
<trkpt lat="46.159824980422854" lon="7.128683924674988"><ele></ele><time>2015-11-5T8:3:9Z</time></trkpt>
<trkpt lat="46.15984593518078" lon="7.128703957423568"><ele></ele><time>2015-11-5T8:3:12Z</time></trkpt>
<trkpt lat="46.15991894155741" lon="7.1287779696285725"><ele></ele><time>2015-11-5T8:3:15Z</time></trkpt>
<trkpt lat="46.15991894155741" lon="7.1287779696285725"><ele></ele><time>2015-11-5T8:3:18Z</time></trkpt>
<trkpt lat="46.160022960975766" lon="7.12885994464159"><ele></ele><time>2015-11-5T8:3:21Z</time></trkpt>
<trkpt lat="46.160022960975766" lon="7.12885994464159"><ele></ele><time>2015-11-5T8:3:24Z</time></trkpt>
<trkpt lat="46.160022960975766" lon="7.12885994464159"><ele></ele><time>2015-11-5T8:3:27Z</time></trkpt>
<trkpt lat="46.160022960975766" lon="7.12885994464159"><ele></ele><time>2015-11-5T8:3:30Z</time></trkpt>
<trkpt lat="46.160022960975766" lon="7.12885994464159"><ele></ele><time>2015-11-5T8:3:33Z</time></trkpt>
<trkpt lat="46.160022960975766" lon="7.12885994464159"><ele></ele><time>2015-11-5T8:3:36Z</time></trkpt>
<trkpt lat="46.160022960975766" lon="7.12885994464159"><ele></ele><time>2015-11-5T8:3:39Z</time></trkpt>
<trkpt lat="46.160022960975766" lon="7.12885994464159"><ele></ele><time>2015-11-5T8:3:42Z</time></trkpt>
<trkpt lat="46.160022960975766" lon="7.12885994464159"><ele></ele><time>2015-11-5T8:3:45Z</time></trkpt>
<trkpt lat="46.160022960975766" lon="7.12885994464159"><ele></ele><time>2015-11-5T8:3:48Z</time></trkpt>
<trkpt lat="46.160022960975766" lon="7.12885994464159"><ele></ele><time>2015-11-5T8:3:51Z</time></trkpt>
<trkpt lat="46.160022960975766" lon="7.12885994464159"><ele></ele><time>2015-11-5T8:3:54Z</time></trkpt>
<trkpt lat="46.160022960975766" lon="7.12885994464159"><ele></ele><time>2015-11-5T8:3:57Z</time></trkpt>
<trkpt lat="46.160022960975766" lon="7.12885994464159"><ele></ele><time>2015-11-5T8:4:0Z</time></trkpt>
<trkpt lat="46.160022960975766" lon="7.12885994464159"><ele></ele><time>2015-11-5T8:4:3Z</time></trkpt>
<trkpt lat="46.16065395064652" lon="7.129204943776131"><ele></ele><time>2015-11-5T8:4:6Z</time></trkpt>
<trkpt lat="46.16065395064652" lon="7.129204943776131"><ele></ele><time>2015-11-5T8:4:9Z</time></trkpt>
<trkpt lat="46.16065395064652" lon="7.129204943776131"><ele></ele><time>2015-11-5T8:4:12Z</time></trkpt>
<trkpt lat="46.16065395064652" lon="7.129204943776131"><ele></ele><time>2015-11-5T8:4:15Z</time></trkpt>
<trkpt lat="46.16065395064652" lon="7.129204943776131"><ele></ele><time>2015-11-5T8:4:18Z</time></trkpt>
<trkpt lat="46.16065395064652" lon="7.129204943776131"><ele></ele><time>2015-11-5T8:4:21Z</time></trkpt>
<trkpt lat="46.16065395064652" lon="7.129204943776131"><ele></ele><time>2015-11-5T8:4:24Z</time></trkpt>
<trkpt lat="46.16065395064652" lon="7.129204943776131"><ele></ele><time>2015-11-5T8:4:27Z</time></trkpt>
<trkpt lat="46.16065395064652" lon="7.129204943776131"><ele></ele><time>2015-11-5T8:4:30Z</time></trkpt>
<trkpt lat="46.16065395064652" lon="7.129204943776131"><ele></ele><time>2015-11-5T8:4:33Z</time></trkpt>
<trkpt lat="46.16065395064652" lon="7.129204943776131"><ele></ele><time>2015-11-5T8:4:36Z</time></trkpt>
<trkpt lat="46.16065395064652" lon="7.129204943776131"><ele></ele><time>2015-11-5T8:4:39Z</time></trkpt>
<trkpt lat="46.16065395064652" lon="7.129204943776131"><ele></ele><time>2015-11-5T8:4:42Z</time></trkpt>
<trkpt lat="46.16065395064652" lon="7.129204943776131"><ele></ele><time>2015-11-5T8:4:45Z</time></trkpt>
<trkpt lat="46.16065395064652" lon="7.129204943776131"><ele></ele><time>2015-11-5T8:4:48Z</time></trkpt>
<trkpt lat="46.16065395064652" lon="7.129204943776131"><ele></ele><time>2015-11-5T8:4:51Z</time></trkpt>
<trkpt lat="46.16108092479408" lon="7.12933293543756"><ele></ele><time>2015-11-5T8:4:54Z</time></trkpt>
<trkpt lat="46.16108092479408" lon="7.12933293543756"><ele></ele><time>2015-11-5T8:4:57Z</time></trkpt>
<trkpt lat="46.16112392395735" lon="7.12933293543756"><ele></ele><time>2015-11-5T8:5:0Z</time></trkpt>
<trkpt lat="46.16127597168088" lon="7.129301922395825"><ele></ele><time>2015-11-5T8:5:3Z</time></trkpt>
<trkpt lat="46.161394994705915" lon="7.129268981516361"><ele></ele><time>2015-11-5T8:5:6Z</time></trkpt>
<trkpt lat="46.16146598942578" lon="7.129213996231556"><ele></ele><time>2015-11-5T8:5:9Z</time></trkpt>
<trkpt lat="46.161563973873854" lon="7.1290939673781395"><ele></ele><time>2015-11-5T8:5:12Z</time></trkpt>
<trkpt lat="46.16173395887017" lon="7.128855921328068"><ele></ele><time>2015-11-5T8:5:15Z</time></trkpt>
<trkpt lat="46.16199094802141" lon="7.128718961030245"><ele></ele><time>2015-11-5T8:5:18Z</time></trkpt>
<trkpt lat="46.162381963804364" lon="7.128710998222232"><ele></ele><time>2015-11-5T8:5:21Z</time></trkpt>
<trkpt lat="46.162490928545594" lon="7.128710998222232"><ele></ele><time>2015-11-5T8:5:24Z</time></trkpt>
<trkpt lat="46.16273995488882" lon="7.128710998222232"><ele></ele><time>2015-11-5T8:5:27Z</time></trkpt>
<trkpt lat="46.16271799430251" lon="7.129067983478308"><ele></ele><time>2015-11-5T8:5:30Z</time></trkpt>
<trkpt lat="46.16267499513924" lon="7.129131937399507"><ele></ele><time>2015-11-5T8:5:33Z</time></trkpt>
<trkpt lat="46.16260098293424" lon="7.12922397069633"><ele></ele><time>2015-11-5T8:5:36Z</time></trkpt>
<trkpt lat="46.16249495185912" lon="7.129354979842901"><ele></ele><time>2015-11-5T8:5:39Z</time></trkpt>
<trkpt lat="46.16243896074593" lon="7.129491940140724"><ele></ele><time>2015-11-5T8:5:42Z</time></trkpt>
<trkpt lat="46.16235195659101" lon="7.129600988700986"><ele></ele><time>2015-11-5T8:5:45Z</time></trkpt>
<trkpt lat="46.16224994882941" lon="7.129708947613835"><ele></ele><time>2015-11-5T8:5:48Z</time></trkpt>
<trkpt lat="46.16219697520137" lon="7.129843980073929"><ele></ele><time>2015-11-5T8:5:51Z</time></trkpt>
<trkpt lat="46.16219596937299" lon="7.129916986450553"><ele></ele><time>2015-11-5T8:5:54Z</time></trkpt>
<trkpt lat="46.162211978808045" lon="7.130143968388438"><ele></ele><time>2015-11-5T8:5:57Z</time></trkpt>
<trkpt lat="46.162145929411054" lon="7.13032191619277"><ele></ele><time>2015-11-5T8:6:0Z</time></trkpt>
<trkpt lat="46.162083987146616" lon="7.1304059866815805"><ele></ele><time>2015-11-5T8:6:3Z</time></trkpt>
<trkpt lat="46.162083987146616" lon="7.130512939766049"><ele></ele><time>2015-11-5T8:6:6Z</time></trkpt>
<trkpt lat="46.162126986309886" lon="7.130667921155691"><ele></ele><time>2015-11-5T8:6:9Z</time></trkpt>
<trkpt lat="46.162125980481505" lon="7.130813933908939"><ele></ele><time>2015-11-5T8:6:12Z</time></trkpt>
<trkpt lat="46.16204299964011" lon="7.130953995510936"><ele></ele><time>2015-11-5T8:6:15Z</time></trkpt>
<trkpt lat="46.161997988820076" lon="7.131110988557339"><ele></ele><time>2015-11-5T8:6:18Z</time></trkpt>
<trkpt lat="46.161997988820076" lon="7.13115599937737"><ele></ele><time>2015-11-5T8:6:21Z</time></trkpt>
<trkpt lat="46.16193596273661" lon="7.131338976323605"><ele></ele><time>2015-11-5T8:6:24Z</time></trkpt>
<trkpt lat="46.16187896579504" lon="7.131442995741963"><ele></ele><time>2015-11-5T8:6:27Z</time></trkpt>
<trkpt lat="46.161825992166996" lon="7.131640976294875"><ele></ele><time>2015-11-5T8:6:30Z</time></trkpt>
<trkpt lat="46.161825992166996" lon="7.131833927705884"><ele></ele><time>2015-11-5T8:6:33Z</time></trkpt>
<trkpt lat="46.16183496080339" lon="7.132033919915557"><ele></ele><time>2015-11-5T8:6:36Z</time></trkpt>
<trkpt lat="46.16184996441007" lon="7.132174987345934"><ele></ele><time>2015-11-5T8:6:39Z</time></trkpt>
<trkpt lat="46.16185993887484" lon="7.1323199942708015"><ele></ele><time>2015-11-5T8:6:42Z</time></trkpt>
<trkpt lat="46.16186295635998" lon="7.132365927100182"><ele></ele><time>2015-11-5T8:6:45Z</time></trkpt>
<trkpt lat="46.161866979673505" lon="7.132422924041748"><ele></ele><time>2015-11-5T8:6:48Z</time></trkpt>
<trkpt lat="46.16187393665314" lon="7.132533984258771"><ele></ele><time>2015-11-5T8:6:51Z</time></trkpt>
<trkpt lat="46.16187896579504" lon="7.132592992857099"><ele></ele><time>2015-11-5T8:6:54Z</time></trkpt>
<trkpt lat="46.161888940259814" lon="7.132740933448076"><ele></ele><time>2015-11-5T8:6:57Z</time></trkpt>
<trkpt lat="46.161909978836775" lon="7.132827937602997"><ele></ele><time>2015-11-5T8:7:0Z</time></trkpt>
<trkpt lat="46.16193797439337" lon="7.1329219825565815"><ele></ele><time>2015-11-5T8:7:3Z</time></trkpt>
<trkpt lat="46.161976950243115" lon="7.13304796256125"><ele></ele><time>2015-11-5T8:7:6Z</time></trkpt>
<trkpt lat="46.162016931921244" lon="7.133178971707821"><ele></ele><time>2015-11-5T8:7:9Z</time></trkpt>
<trkpt lat="46.1620469391346" lon="7.133272932842374"><ele></ele><time>2015-11-5T8:7:12Z</time></trkpt>
<trkpt lat="46.162083987146616" lon="7.133345939218998"><ele></ele><time>2015-11-5T8:7:15Z</time></trkpt>
<trkpt lat="46.16214198991656" lon="7.133403941988945"><ele></ele><time>2015-11-5T8:7:18Z</time></trkpt>
<trkpt lat="46.162209967151284" lon="7.133469991385937"><ele></ele><time>2015-11-5T8:7:21Z</time></trkpt>
<trkpt lat="46.16228297352791" lon="7.133532939478755"><ele></ele><time>2015-11-5T8:7:24Z</time></trkpt>
<trkpt lat="46.162383975461125" lon="7.133637964725494"><ele></ele><time>2015-11-5T8:7:27Z</time></trkpt>
<trkpt lat="46.16242898628116" lon="7.133714994415641"><ele></ele><time>2015-11-5T8:7:30Z</time></trkpt>
<trkpt lat="46.1624959576875" lon="7.1338479313999414"><ele></ele><time>2015-11-5T8:7:33Z</time></trkpt>
<trkpt lat="46.162512972950935" lon="7.134030992165208"><ele></ele><time>2015-11-5T8:7:36Z</time></trkpt>
<trkpt lat="46.162492940202355" lon="7.134195948019624"><ele></ele><time>2015-11-5T8:7:39Z</time></trkpt>
<trkpt lat="46.16245597600937" lon="7.1342929266393185"><ele></ele><time>2015-11-5T8:7:42Z</time></trkpt>
<trkpt lat="46.16241993382573" lon="7.134381942451"><ele></ele><time>2015-11-5T8:7:45Z</time></trkpt>
<trkpt lat="46.16235991939902" lon="7.13455393910408"><ele></ele><time>2015-11-5T8:7:48Z</time></trkpt>
<trkpt lat="46.1623249668628" lon="7.134693916887045"><ele></ele><time>2015-11-5T8:7:51Z</time></trkpt>
<trkpt lat="46.162319937720895" lon="7.134803971275687"><ele></ele><time>2015-11-5T8:7:54Z</time></trkpt>
<trkpt lat="46.162319937720895" lon="7.13493992574513"><ele></ele><time>2015-11-5T8:7:57Z</time></trkpt>
<trkpt lat="46.16232697851956" lon="7.13511292822659"><ele></ele><time>2015-11-5T8:8:0Z</time></trkpt>
<trkpt lat="46.16233393549919" lon="7.135257935151458"><ele></ele><time>2015-11-5T8:8:3Z</time></trkpt>
<trkpt lat="46.162338964641094" lon="7.135461950674653"><ele></ele><time>2015-11-5T8:8:6Z</time></trkpt>
<trkpt lat="46.16233292967081" lon="7.135622967034578"><ele></ele><time>2015-11-5T8:8:9Z</time></trkpt>
<trkpt lat="46.16232697851956" lon="7.135788928717375"><ele></ele><time>2015-11-5T8:8:12Z</time></trkpt>
<trkpt lat="46.162319937720895" lon="7.135977940633893"><ele></ele><time>2015-11-5T8:8:15Z</time></trkpt>
<trkpt lat="46.162319937720895" lon="7.136119930073619"><ele></ele><time>2015-11-5T8:8:18Z</time></trkpt>
<trkpt lat="46.162319937720895" lon="7.136272983625531"><ele></ele><time>2015-11-5T8:8:21Z</time></trkpt>
<trkpt lat="46.16233494132757" lon="7.136504994705319"><ele></ele><time>2015-11-5T8:8:24Z</time></trkpt>
<trkpt lat="46.16232798434794" lon="7.136676991358399"><ele></ele><time>2015-11-5T8:8:27Z</time></trkpt>
<trkpt lat="46.16230099461973" lon="7.1368819288909435"><ele></ele><time>2015-11-5T8:8:30Z</time></trkpt>
<trkpt lat="46.162276938557625" lon="7.137047974392772"><ele></ele><time>2015-11-5T8:8:33Z</time></trkpt>
<trkpt lat="46.162254977971315" lon="7.137241931632161"><ele></ele><time>2015-11-5T8:8:36Z</time></trkpt>
<trkpt lat="46.16227098740637" lon="7.137442929670215"><ele></ele><time>2015-11-5T8:8:39Z</time></trkpt>
<trkpt lat="46.16228993050754" lon="7.137588942423463"><ele></ele><time>2015-11-5T8:8:42Z</time></trkpt>
<trkpt lat="46.162314992398024" lon="7.1377139165997505"><ele></ele><time>2015-11-5T8:8:45Z</time></trkpt>
<trkpt lat="46.16235195659101" lon="7.137837968766689"><ele></ele><time>2015-11-5T8:8:48Z</time></trkpt>
<trkpt lat="46.162384981289506" lon="7.1379639487713575"><ele></ele><time>2015-11-5T8:8:51Z</time></trkpt>
<trkpt lat="46.16241398267448" lon="7.138086995109916"><ele></ele><time>2015-11-5T8:8:54Z</time></trkpt>
<trkpt lat="46.162426974624395" lon="7.138166958466172"><ele></ele><time>2015-11-5T8:8:57Z</time></trkpt>
<trkpt lat="46.16241498850286" lon="7.138338955119252"><ele></ele><time>2015-11-5T8:9:0Z</time></trkpt>
<trkpt lat="46.16238699294627" lon="7.138422941789031"><ele></ele><time>2015-11-5T8:9:3Z</time></trkpt>
<trkpt lat="46.162319937720895" lon="7.1385809406638145"><ele></ele><time>2015-11-5T8:9:6Z</time></trkpt>
<trkpt lat="46.16224693134427" lon="7.138684960082173"><ele></ele><time>2015-11-5T8:9:9Z</time></trkpt>
<trkpt lat="46.16216093301773" lon="7.138806916773319"><ele></ele><time>2015-11-5T8:9:12Z</time></trkpt>
<trkpt lat="46.16205791942775" lon="7.138947984203696"><ele></ele><time>2015-11-5T8:9:15Z</time></trkpt>
<trkpt lat="46.161956917494535" lon="7.1390859503299"><ele></ele><time>2015-11-5T8:9:18Z</time></trkpt>
<trkpt lat="46.16188491694629" lon="7.139229951426387"><ele></ele><time>2015-11-5T8:9:21Z</time></trkpt>
<trkpt lat="46.16181593388319" lon="7.139392979443073"><ele></ele><time>2015-11-5T8:9:24Z</time></trkpt>
<trkpt lat="46.161804953590035" lon="7.139524994418025"><ele></ele><time>2015-11-5T8:9:27Z</time></trkpt>
<trkpt lat="46.16181794553995" lon="7.139551984146237"><ele></ele><time>2015-11-5T8:9:30Z</time></trkpt>
<trkpt lat="46.16186396218836" lon="7.139557935297489"><ele></ele><time>2015-11-5T8:9:33Z</time></trkpt>
<trkpt lat="46.16192598827183" lon="7.139504961669445"><ele></ele><time>2015-11-5T8:9:36Z</time></trkpt>
<trkpt lat="46.16200796328485" lon="7.1393899619579315"><ele></ele><time>2015-11-5T8:9:39Z</time></trkpt>
<trkpt lat="46.162081975489855" lon="7.139284936711192"><ele></ele><time>2015-11-5T8:9:42Z</time></trkpt>
<trkpt lat="46.16211298853159" lon="7.139239925891161"><ele></ele><time>2015-11-5T8:9:45Z</time></trkpt>
<trkpt lat="46.16217794828117" lon="7.139155939221382"><ele></ele><time>2015-11-5T8:9:48Z</time></trkpt>
<trkpt lat="46.162253972142935" lon="7.139118975028396"><ele></ele><time>2015-11-5T8:9:51Z</time></trkpt>
<trkpt lat="46.16231197491288" lon="7.13910992257297"><ele></ele><time>2015-11-5T8:9:54Z</time></trkpt>
<trkpt lat="46.16243996657431" lon="7.139078993350267"><ele></ele><time>2015-11-5T8:9:57Z</time></trkpt>
<trkpt lat="46.16254993714392" lon="7.138994922861457"><ele></ele><time>2015-11-5T8:10:0Z</time></trkpt>
<trkpt lat="46.16263099014759" lon="7.138889981433749"><ele></ele><time>2015-11-5T8:10:3Z</time></trkpt>
<trkpt lat="46.162707936018705" lon="7.1387809328734875"><ele></ele><time>2015-11-5T8:10:6Z</time></trkpt>
<trkpt lat="46.162770967930555" lon="7.138649923726916"><ele></ele><time>2015-11-5T8:10:9Z</time></trkpt>
<trkpt lat="46.162812961265445" lon="7.138516986742616"><ele></ele><time>2015-11-5T8:10:12Z</time></trkpt>
<trkpt lat="46.162831988185644" lon="7.13844196870923"><ele></ele><time>2015-11-5T8:10:15Z</time></trkpt>
<trkpt lat="46.162836933508515" lon="7.138424953445792"><ele></ele><time>2015-11-5T8:10:18Z</time></trkpt>
<trkpt lat="46.16289393045008" lon="7.13839896954596"><ele></ele><time>2015-11-5T8:10:21Z</time></trkpt>
<trkpt lat="46.16286995820701" lon="7.1385429706424475"><ele></ele><time>2015-11-5T8:10:24Z</time></trkpt>
<trkpt lat="46.16286291740835" lon="7.138577923178673"><ele></ele><time>2015-11-5T8:10:27Z</time></trkpt>
<trkpt lat="46.16283995099366" lon="7.138681942597032"><ele></ele><time>2015-11-5T8:10:30Z</time></trkpt>
<trkpt lat="46.16280097514391" lon="7.138862991705537"><ele></ele><time>2015-11-5T8:10:33Z</time></trkpt>
<trkpt lat="46.162770967930555" lon="7.13900095783174"><ele></ele><time>2015-11-5T8:10:36Z</time></trkpt>
<trkpt lat="46.16273098625243" lon="7.139184940606356"><ele></ele><time>2015-11-5T8:10:39Z</time></trkpt>
<trkpt lat="46.16269092075527" lon="7.139252917841077"><ele></ele><time>2015-11-5T8:10:42Z</time></trkpt>
<trkpt lat="46.16259293630719" lon="7.139347968623042"><ele></ele><time>2015-11-5T8:10:45Z</time></trkpt>
<trkpt lat="46.1624959576875" lon="7.139447964727879"><ele></ele><time>2015-11-5T8:10:48Z</time></trkpt>
<trkpt lat="46.16245698183775" lon="7.139542931690812"><ele></ele><time>2015-11-5T8:10:51Z</time></trkpt>
<trkpt lat="46.162490928545594" lon="7.139567993581295"><ele></ele><time>2015-11-5T8:10:54Z</time></trkpt>
<trkpt lat="46.1625009868294" lon="7.139564976096153"><ele></ele><time>2015-11-5T8:10:57Z</time></trkpt>
<trkpt lat="46.162621937692165" lon="7.139519965276122"><ele></ele><time>2015-11-5T8:11:0Z</time></trkpt>
<trkpt lat="46.162726962938905" lon="7.1394529938697815"><ele></ele><time>2015-11-5T8:11:3Z</time></trkpt>
<trkpt lat="46.162831988185644" lon="7.139325924217701"><ele></ele><time>2015-11-5T8:11:6Z</time></trkpt>
<trkpt lat="46.16286392323673" lon="7.139276973903179"><ele></ele><time>2015-11-5T8:11:9Z</time></trkpt>
<trkpt lat="46.16288797929883" lon="7.1392409317195415"><ele></ele><time>2015-11-5T8:11:12Z</time></trkpt>
<trkpt lat="46.162962997332215" lon="7.139114951714873"><ele></ele><time>2015-11-5T8:11:15Z</time></trkpt>
<trkpt lat="46.16302192211151" lon="7.138985954225063"><ele></ele><time>2015-11-5T8:11:18Z</time></trkpt>
<trkpt lat="46.16305897012353" lon="7.138867937028408"><ele></ele><time>2015-11-5T8:11:21Z</time></trkpt>
<trkpt lat="46.16307497955859" lon="7.138726953417063"><ele></ele><time>2015-11-5T8:11:24Z</time></trkpt>
<trkpt lat="46.16307891905308" lon="7.138665933161974"><ele></ele><time>2015-11-5T8:11:27Z</time></trkpt>
<trkpt lat="46.16308595985174" lon="7.138568954542279"><ele></ele><time>2015-11-5T8:11:30Z</time></trkpt>
<trkpt lat="46.1630879715085" lon="7.13844196870923"><ele></ele><time>2015-11-5T8:11:33Z</time></trkpt>
<trkpt lat="46.1630829423666" lon="7.138409949839115"><ele></ele><time>2015-11-5T8:11:36Z</time></trkpt>
<trkpt lat="46.16306098178029" lon="7.138262931257486"><ele></ele><time>2015-11-5T8:11:39Z</time></trkpt>
<trkpt lat="46.16304195486009" lon="7.138137957081199"><ele></ele><time>2015-11-5T8:11:42Z</time></trkpt>
<trkpt lat="46.163027957081795" lon="7.137979958206415"><ele></ele><time>2015-11-5T8:11:45Z</time></trkpt>
<trkpt lat="46.163027957081795" lon="7.1378629468381405"><ele></ele><time>2015-11-5T8:11:48Z</time></trkpt>
<trkpt lat="46.16303399205208" lon="7.137740990146995"><ele></ele><time>2015-11-5T8:11:51Z</time></trkpt>
<trkpt lat="46.163052935153246" lon="7.137597994878888"><ele></ele><time>2015-11-5T8:11:54Z</time></trkpt>
<trkpt lat="46.16306098178029" lon="7.137534962967038"><ele></ele><time>2015-11-5T8:11:57Z</time></trkpt>
<trkpt lat="46.16308495402336" lon="7.137382999062538"><ele></ele><time>2015-11-5T8:12:0Z</time></trkpt>
<trkpt lat="46.163091994822025" lon="7.137200944125652"><ele></ele><time>2015-11-5T8:12:3Z</time></trkpt>
<trkpt lat="46.163091994822025" lon="7.137127937749028"><ele></ele><time>2015-11-5T8:12:6Z</time></trkpt>
<trkpt lat="46.163091994822025" lon="7.1370459627360106"><ele></ele><time>2015-11-5T8:12:9Z</time></trkpt>
<trkpt lat="46.163091994822025" lon="7.136930963024497"><ele></ele><time>2015-11-5T8:12:12Z</time></trkpt>
<trkpt lat="46.163115967065096" lon="7.1368589624762535"><ele></ele><time>2015-11-5T8:12:15Z</time></trkpt>
<trkpt lat="46.163175981491804" lon="7.136728959158063"><ele></ele><time>2015-11-5T8:12:18Z</time></trkpt>
<trkpt lat="46.16323297843337" lon="7.13659199886024"><ele></ele><time>2015-11-5T8:12:21Z</time></trkpt>
<trkpt lat="46.1632539331913" lon="7.136530978605151"><ele></ele><time>2015-11-5T8:12:24Z</time></trkpt>
<trkpt lat="46.16329592652619" lon="7.136402986943722"><ele></ele><time>2015-11-5T8:12:27Z</time></trkpt>
<trkpt lat="46.163353929296136" lon="7.136291926726699"><ele></ele><time>2015-11-5T8:12:30Z</time></trkpt>
<trkpt lat="46.1633659992367" lon="7.136271977797151"><ele></ele><time>2015-11-5T8:12:33Z</time></trkpt>
<trkpt lat="46.16342299617827" lon="7.136186985298991"><ele></ele><time>2015-11-5T8:12:36Z</time></trkpt>
<trkpt lat="46.163498936221" lon="7.136070979759097"><ele></ele><time>2015-11-5T8:12:39Z</time></trkpt>
<trkpt lat="46.16355794481933" lon="7.135958997532725"><ele></ele><time>2015-11-5T8:12:42Z</time></trkpt>
<trkpt lat="46.16359692066908" lon="7.135826982557774"><ele></ele><time>2015-11-5T8:12:45Z</time></trkpt>
<trkpt lat="46.16363799199462" lon="7.13571491651237"><ele></ele><time>2015-11-5T8:12:48Z</time></trkpt>
<trkpt lat="46.16366397589445" lon="7.135670995339751"><ele></ele><time>2015-11-5T8:12:51Z</time></trkpt>
<trkpt lat="46.16370194591582" lon="7.1356719173491"><ele></ele><time>2015-11-5T8:12:54Z</time></trkpt>
<trkpt lat="46.16371393203735" lon="7.135779960080981"><ele></ele><time>2015-11-5T8:12:57Z</time></trkpt>
<trkpt lat="46.16370999254286" lon="7.135817930102348"><ele></ele><time>2015-11-5T8:13:0Z</time></trkpt>
<trkpt lat="46.163675962015986" lon="7.135993950068951"><ele></ele><time>2015-11-5T8:13:3Z</time></trkpt>
<trkpt lat="46.163651989772916" lon="7.13612194173038"><ele></ele><time>2015-11-5T8:13:6Z</time></trkpt>
<trkpt lat="46.16362692788243" lon="7.136254962533712"><ele></ele><time>2015-11-5T8:13:9Z</time></trkpt>
<trkpt lat="46.16359499283135" lon="7.136424947530031"><ele></ele><time>2015-11-5T8:13:12Z</time></trkpt>
<trkpt lat="46.163564985617995" lon="7.136583952233195"><ele></ele><time>2015-11-5T8:13:15Z</time></trkpt>
<trkpt lat="46.163563979789615" lon="7.136726947501302"><ele></ele><time>2015-11-5T8:13:18Z</time></trkpt>
<trkpt lat="46.163563979789615" lon="7.136891987174749"><ele></ele><time>2015-11-5T8:13:21Z</time></trkpt>
<trkpt lat="46.163563979789615" lon="7.137066917493939"><ele></ele><time>2015-11-5T8:13:24Z</time></trkpt>
<trkpt lat="46.163563979789615" lon="7.137186946347356"><ele></ele><time>2015-11-5T8:13:27Z</time></trkpt>
<trkpt lat="46.163563979789615" lon="7.137220976874232"><ele></ele><time>2015-11-5T8:13:30Z</time></trkpt>
<trkpt lat="46.16357395425439" lon="7.1373239904642105"><ele></ele><time>2015-11-5T8:13:33Z</time></trkpt>
<trkpt lat="46.16358392871916" lon="7.1374129224568605"><ele></ele><time>2015-11-5T8:13:36Z</time></trkpt>
<trkpt lat="46.16360194981098" lon="7.137585924938321"><ele></ele><time>2015-11-5T8:13:39Z</time></trkpt>
<trkpt lat="46.16362592205405" lon="7.137770997360349"><ele></ele><time>2015-11-5T8:13:42Z</time></trkpt>
<trkpt lat="46.1637079808861" lon="7.137894965708256"><ele></ele><time>2015-11-5T8:13:45Z</time></trkpt>
<trkpt lat="46.163779981434345" lon="7.138003930449486"><ele></ele><time>2015-11-5T8:13:48Z</time></trkpt>
<trkpt lat="46.16387595422566" lon="7.138185985386372"><ele></ele><time>2015-11-5T8:13:51Z</time></trkpt>
<trkpt lat="46.16388592869043" lon="7.138328980654478"><ele></ele><time>2015-11-5T8:13:54Z</time></trkpt>
<trkpt lat="46.16388592869043" lon="7.138359993696213"><ele></ele><time>2015-11-5T8:13:57Z</time></trkpt>
<trkpt lat="46.163887940347195" lon="7.138453954830766"><ele></ele><time>2015-11-5T8:14:0Z</time></trkpt>
<trkpt lat="46.16390193812549" lon="7.138607930392027"><ele></ele><time>2015-11-5T8:14:3Z</time></trkpt>
<trkpt lat="46.16393798030913" lon="7.138748997822404"><ele></ele><time>2015-11-5T8:14:6Z</time></trkpt>
<trkpt lat="46.163976956158876" lon="7.138852933421731"><ele></ele><time>2015-11-5T8:14:9Z</time></trkpt>
<trkpt lat="46.16401199251413" lon="7.13895795866847"><ele></ele><time>2015-11-5T8:14:12Z</time></trkpt>
<trkpt lat="46.164082987233996" lon="7.139120986685157"><ele></ele><time>2015-11-5T8:14:15Z</time></trkpt>
<trkpt lat="46.16409497335553" lon="7.139146970584989"><ele></ele><time>2015-11-5T8:14:18Z</time></trkpt>
<trkpt lat="46.164166973903775" lon="7.139269933104515"><ele></ele><time>2015-11-5T8:14:21Z</time></trkpt>
<trkpt lat="46.16418692283332" lon="7.1392889600247145"><ele></ele><time>2015-11-5T8:14:24Z</time></trkpt>
<trkpt lat="46.164228999987245" lon="7.139262976124883"><ele></ele><time>2015-11-5T8:14:27Z</time></trkpt>
<trkpt lat="46.16420594975352" lon="7.139084944501519"><ele></ele><time>2015-11-5T8:14:30Z</time></trkpt>
<trkpt lat="46.16417393088341" lon="7.13889392092824"><ele></ele><time>2015-11-5T8:14:33Z</time></trkpt>
<trkpt lat="46.16414392367005" lon="7.1387529373168945"><ele></ele><time>2015-11-5T8:14:36Z</time></trkpt>
<trkpt lat="46.1641519702971" lon="7.138539953157306"><ele></ele><time>2015-11-5T8:14:39Z</time></trkpt>
<trkpt lat="46.164164962247014" lon="7.138356976211071"><ele></ele><time>2015-11-5T8:14:42Z</time></trkpt>
<trkpt lat="46.16413696669042" lon="7.138189924880862"><ele></ele><time>2015-11-5T8:14:45Z</time></trkpt>
<trkpt lat="46.164121963083744" lon="7.138093952089548"><ele></ele><time>2015-11-5T8:14:48Z</time></trkpt>
<trkpt lat="46.16416194476187" lon="7.1379489451646805"><ele></ele><time>2015-11-5T8:14:51Z</time></trkpt>
<trkpt lat="46.164232939481735" lon="7.1378399804234505"><ele></ele><time>2015-11-5T8:14:54Z</time></trkpt>
<trkpt lat="46.16426093503833" lon="7.137802932411432"><ele></ele><time>2015-11-5T8:14:57Z</time></trkpt>
<trkpt lat="46.164317931979895" lon="7.137650968506932"><ele></ele><time>2015-11-5T8:15:0Z</time></trkpt>
<trkpt lat="46.16437392309308" lon="7.137481989338994"><ele></ele><time>2015-11-5T8:15:3Z</time></trkpt>
<trkpt lat="46.16440895944834" lon="7.137370929121971"><ele></ele><time>2015-11-5T8:15:6Z</time></trkpt>
<trkpt lat="46.164446929469705" lon="7.137247966602445"><ele></ele><time>2015-11-5T8:15:9Z</time></trkpt>
<trkpt lat="46.1644799541682" lon="7.137137996032834"><ele></ele><time>2015-11-5T8:15:12Z</time></trkpt>
<trkpt lat="46.16451893001795" lon="7.137013943865895"><ele></ele><time>2015-11-5T8:15:15Z</time></trkpt>
<trkpt lat="46.16454994305968" lon="7.136912941932678"><ele></ele><time>2015-11-5T8:15:18Z</time></trkpt>
<trkpt lat="46.16456192918122" lon="7.136782938614488"><ele></ele><time>2015-11-5T8:15:21Z</time></trkpt>
<trkpt lat="46.164577938616276" lon="7.136599961668253"><ele></ele><time>2015-11-5T8:15:24Z</time></trkpt>
<trkpt lat="46.16458992473781" lon="7.1364649292081594"><ele></ele><time>2015-11-5T8:15:27Z</time></trkpt>
<trkpt lat="46.16458497941494" lon="7.136332998052239"><ele></ele><time>2015-11-5T8:15:30Z</time></trkpt>
<trkpt lat="46.164571987465024" lon="7.136215986683965"><ele></ele><time>2015-11-5T8:15:33Z</time></trkpt>
<trkpt lat="46.16454591974616" lon="7.136059999465942"><ele></ele><time>2015-11-5T8:15:36Z</time></trkpt>
<trkpt lat="46.16454097442329" lon="7.136029992252588"><ele></ele><time>2015-11-5T8:15:39Z</time></trkpt>
<trkpt lat="46.164529994130135" lon="7.135888924822211"><ele></ele><time>2015-11-5T8:15:42Z</time></trkpt>
<trkpt lat="46.16454097442329" lon="7.135780965909362"><ele></ele><time>2015-11-5T8:15:45Z</time></trkpt>
<trkpt lat="46.16454399190843" lon="7.135765962302685"><ele></ele><time>2015-11-5T8:15:48Z</time></trkpt>
<trkpt lat="46.16456997580826" lon="7.135631935670972"><ele></ele><time>2015-11-5T8:15:51Z</time></trkpt>
<trkpt lat="46.16459093056619" lon="7.135527916252613"><ele></ele><time>2015-11-5T8:15:54Z</time></trkpt>
<trkpt lat="46.164617920294404" lon="7.135396990925074"><ele></ele><time>2015-11-5T8:15:57Z</time></trkpt>
<trkpt lat="46.16462697274983" lon="7.135354997590184"><ele></ele><time>2015-11-5T8:16:0Z</time></trkpt>
<trkpt lat="46.16464893333614" lon="7.135256929323077"><ele></ele><time>2015-11-5T8:16:3Z</time></trkpt>
<trkpt lat="46.16469293832779" lon="7.135160956531763"><ele></ele><time>2015-11-5T8:16:6Z</time></trkpt>
<trkpt lat="46.16475194692612" lon="7.135193981230259"><ele></ele><time>2015-11-5T8:16:9Z</time></trkpt>
<trkpt lat="46.16476594470441" lon="7.135249972343445"><ele></ele><time>2015-11-5T8:16:12Z</time></trkpt>
<trkpt lat="46.16476594470441" lon="7.135396990925074"><ele></ele><time>2015-11-5T8:16:15Z</time></trkpt>
<trkpt lat="46.16476594470441" lon="7.135543925687671"><ele></ele><time>2015-11-5T8:16:18Z</time></trkpt>
<trkpt lat="46.16476594470441" lon="7.135614920407534"><ele></ele><time>2015-11-5T8:16:21Z</time></trkpt>
<trkpt lat="46.164769968017936" lon="7.135731931775808"><ele></ele><time>2015-11-5T8:16:24Z</time></trkpt>
<trkpt lat="46.16477893665433" lon="7.135781971737742"><ele></ele><time>2015-11-5T8:16:27Z</time></trkpt>
<trkpt lat="46.16478295996785" lon="7.135808961465955"><ele></ele><time>2015-11-5T8:16:30Z</time></trkpt>
<trkpt lat="46.164809949696064" lon="7.135890936478972"><ele></ele><time>2015-11-5T8:16:33Z</time></trkpt>
<trkpt lat="46.16484892554581" lon="7.135988920927048"><ele></ele><time>2015-11-5T8:16:36Z</time></trkpt>
<trkpt lat="46.16487197577953" lon="7.136045917868614"><ele></ele><time>2015-11-5T8:16:39Z</time></trkpt>
<trkpt lat="46.16490893997252" lon="7.1361359395086765"><ele></ele><time>2015-11-5T8:16:42Z</time></trkpt>
<trkpt lat="46.164918998256326" lon="7.136158989742398"><ele></ele><time>2015-11-5T8:16:45Z</time></trkpt>
<trkpt lat="46.164965936914086" lon="7.136275917291641"><ele></ele><time>2015-11-5T8:16:48Z</time></trkpt>
<trkpt lat="46.1650119535625" lon="7.136386977508664"><ele></ele><time>2015-11-5T8:16:51Z</time></trkpt>
<trkpt lat="46.165047995746136" lon="7.136488985270262"><ele></ele><time>2015-11-5T8:16:54Z</time></trkpt>
<trkpt lat="46.16508194245398" lon="7.136670956388116"><ele></ele><time>2015-11-5T8:16:57Z</time></trkpt>
<trkpt lat="46.165087977424264" lon="7.13689299300313"><ele></ele><time>2015-11-5T8:17:0Z</time></trkpt>
<trkpt lat="46.165112955495715" lon="7.136950995773077"><ele></ele><time>2015-11-5T8:17:3Z</time></trkpt>
<trkpt lat="46.16515193134546" lon="7.136950995773077"><ele></ele><time>2015-11-5T8:17:6Z</time></trkpt>
<trkpt lat="46.165155954658985" lon="7.136941943317652"><ele></ele><time>2015-11-5T8:17:9Z</time></trkpt>
<trkpt lat="46.1651689466089" lon="7.13682996109128"><ele></ele><time>2015-11-5T8:17:12Z</time></trkpt>
<trkpt lat="46.16515997797251" lon="7.1366949286311865"><ele></ele><time>2015-11-5T8:17:15Z</time></trkpt>
<trkpt lat="46.165155954658985" lon="7.136627957224846"><ele></ele><time>2015-11-5T8:17:18Z</time></trkpt>
<trkpt lat="46.16513893939555" lon="7.136474987491965"><ele></ele><time>2015-11-5T8:17:21Z</time></trkpt>
<trkpt lat="46.165111949667335" lon="7.136281952261925"><ele></ele><time>2015-11-5T8:17:24Z</time></trkpt>
<trkpt lat="46.165094934403896" lon="7.136076930910349"><ele></ele><time>2015-11-5T8:17:27Z</time></trkpt>
<trkpt lat="46.165087977424264" lon="7.135901916772127"><ele></ele><time>2015-11-5T8:17:30Z</time></trkpt>
<trkpt lat="46.165087977424264" lon="7.1357619389891624"><ele></ele><time>2015-11-5T8:17:33Z</time></trkpt>
<trkpt lat="46.16510893218219" lon="7.135608969256282"><ele></ele><time>2015-11-5T8:17:36Z</time></trkpt>
<trkpt lat="46.16511597298086" lon="7.135579967871308"><ele></ele><time>2015-11-5T8:17:39Z</time></trkpt>
<trkpt lat="46.16513994522393" lon="7.135494975373149"><ele></ele><time>2015-11-5T8:17:42Z</time></trkpt>
<trkpt lat="46.16516198962927" lon="7.135469997301698"><ele></ele><time>2015-11-5T8:17:45Z</time></trkpt>
<trkpt lat="46.16520792245865" lon="7.135534957051277"><ele></ele><time>2015-11-5T8:17:48Z</time></trkpt>
<trkpt lat="46.16521093994379" lon="7.135549960657954"><ele></ele><time>2015-11-5T8:17:51Z</time></trkpt>
<trkpt lat="46.16520398296416" lon="7.135687926784158"><ele></ele><time>2015-11-5T8:17:54Z</time></trkpt>
<trkpt lat="46.16520691663027" lon="7.135793957859278"><ele></ele><time>2015-11-5T8:17:57Z</time></trkpt>
<trkpt lat="46.16524798795581" lon="7.13590694591403"><ele></ele><time>2015-11-5T8:18:0Z</time></trkpt>
<trkpt lat="46.16529995575547" lon="7.136030998080969"><ele></ele><time>2015-11-5T8:18:3Z</time></trkpt>
<trkpt lat="46.16536692716181" lon="7.136177932843566"><ele></ele><time>2015-11-5T8:18:6Z</time></trkpt>
<trkpt lat="46.16541998460889" lon="7.1362849697470665"><ele></ele><time>2015-11-5T8:18:9Z</time></trkpt>
<trkpt lat="46.16546591743827" lon="7.136375997215509"><ele></ele><time>2015-11-5T8:18:12Z</time></trkpt>
<trkpt lat="46.165524926036596" lon="7.13650893419981"><ele></ele><time>2015-11-5T8:18:15Z</time></trkpt>
<trkpt lat="46.165544958785176" lon="7.136582946404815"><ele></ele><time>2015-11-5T8:18:18Z</time></trkpt>
<trkpt lat="46.16557194851339" lon="7.136679925024509"><ele></ele><time>2015-11-5T8:18:21Z</time></trkpt>
<trkpt lat="46.165585946291685" lon="7.136764917522669"><ele></ele><time>2015-11-5T8:18:24Z</time></trkpt>
<trkpt lat="46.16559994406998" lon="7.136916965246201"><ele></ele><time>2015-11-5T8:18:27Z</time></trkpt>
<trkpt lat="46.16559499874711" lon="7.13702492415905"><ele></ele><time>2015-11-5T8:18:30Z</time></trkpt>
<trkpt lat="46.165586952120066" lon="7.137103965505958"><ele></ele><time>2015-11-5T8:18:33Z</time></trkpt>
<trkpt lat="46.16558091714978" lon="7.137163979932666"><ele></ele><time>2015-11-5T8:18:36Z</time></trkpt>
<trkpt lat="46.16554998792708" lon="7.137275962159038"><ele></ele><time>2015-11-5T8:18:39Z</time></trkpt>
<trkpt lat="46.165541941300035" lon="7.137301946058869"><ele></ele><time>2015-11-5T8:18:42Z</time></trkpt>
<trkpt lat="46.16553791798651" lon="7.137357937172055"><ele></ele><time>2015-11-5T8:18:45Z</time></trkpt>
<trkpt lat="46.16553791798651" lon="7.1374609507620335"><ele></ele><time>2015-11-5T8:18:48Z</time></trkpt>
<trkpt lat="46.165544958785176" lon="7.137479977682233"><ele></ele><time>2015-11-5T8:18:51Z</time></trkpt>
<trkpt lat="46.165604973211884" lon="7.137610986828804"><ele></ele><time>2015-11-5T8:18:54Z</time></trkpt>
<trkpt lat="46.165712932124734" lon="7.137889936566353"><ele></ele><time>2015-11-5T8:18:57Z</time></trkpt>
<trkpt lat="46.16572793573141" lon="7.138064950704575"><ele></ele><time>2015-11-5T8:19:0Z</time></trkpt>
<trkpt lat="46.16573095321655" lon="7.13820593431592"><ele></ele><time>2015-11-5T8:19:3Z</time></trkpt>
<trkpt lat="46.16574092768133" lon="7.138368962332606"><ele></ele><time>2015-11-5T8:19:6Z</time></trkpt>
<trkpt lat="46.165755931288004" lon="7.138405926525593"><ele></ele><time>2015-11-5T8:19:9Z</time></trkpt>
<trkpt lat="46.165775964036584" lon="7.138477927073836"><ele></ele><time>2015-11-5T8:19:12Z</time></trkpt>
<trkpt lat="46.165886940434575" lon="7.138614971190691"><ele></ele><time>2015-11-5T8:19:15Z</time></trkpt>
<trkpt lat="46.165950978174806" lon="7.138658976182342"><ele></ele><time>2015-11-5T8:19:18Z</time></trkpt>
<trkpt lat="46.16600998677313" lon="7.138688983395696"><ele></ele><time>2015-11-5T8:19:21Z</time></trkpt>
<trkpt lat="46.166078969836235" lon="7.138674985617399"><ele></ele><time>2015-11-5T8:19:24Z</time></trkpt>
<trkpt lat="46.166186928749084" lon="7.138626957312226"><ele></ele><time>2015-11-5T8:19:27Z</time></trkpt>
<trkpt lat="46.16631098091602" lon="7.138553950935602"><ele></ele><time>2015-11-5T8:19:30Z</time></trkpt>
<trkpt lat="46.166447941213846" lon="7.138516986742616"><ele></ele><time>2015-11-5T8:19:33Z</time></trkpt>
<trkpt lat="46.166550954803824" lon="7.138516986742616"><ele></ele><time>2015-11-5T8:19:36Z</time></trkpt>
<trkpt lat="46.166672995314" lon="7.138516986742616"><ele></ele><time>2015-11-5T8:19:39Z</time></trkpt>
<trkpt lat="46.16679495200515" lon="7.138516986742616"><ele></ele><time>2015-11-5T8:19:42Z</time></trkpt>
<trkpt lat="46.166895953938365" lon="7.138524949550629"><ele></ele><time>2015-11-5T8:19:45Z</time></trkpt>
<trkpt lat="46.1669959500432" lon="7.138536935672164"><ele></ele><time>2015-11-5T8:19:48Z</time></trkpt>
<trkpt lat="46.16706392727792" lon="7.138544982299209"><ele></ele><time>2015-11-5T8:19:51Z</time></trkpt>
<trkpt lat="46.16714598610997" lon="7.138554956763983"><ele></ele><time>2015-11-5T8:19:54Z</time></trkpt>
<trkpt lat="46.16720893420279" lon="7.138563925400376"><ele></ele><time>2015-11-5T8:19:57Z</time></trkpt>
<trkpt lat="46.16727196611464" lon="7.138577923178673"><ele></ele><time>2015-11-5T8:20:0Z</time></trkpt>
<trkpt lat="46.16732292808592" lon="7.138588987290859"><ele></ele><time>2015-11-5T8:20:3Z</time></trkpt>
<trkpt lat="46.167455948889256" lon="7.138638943433762"><ele></ele><time>2015-11-5T8:20:6Z</time></trkpt>
<trkpt lat="46.16757698357105" lon="7.138707926496863"><ele></ele><time>2015-11-5T8:20:9Z</time></trkpt>
<trkpt lat="46.167651917785406" lon="7.1387729700654745"><ele></ele><time>2015-11-5T8:20:12Z</time></trkpt>
<trkpt lat="46.167714949697256" lon="7.13882795535028"><ele></ele><time>2015-11-5T8:20:15Z</time></trkpt>
<trkpt lat="46.16780991666019" lon="7.1389099303632975"><ele></ele><time>2015-11-5T8:20:18Z</time></trkpt>
<trkpt lat="46.167884934693575" lon="7.138972962275147"><ele></ele><time>2015-11-5T8:20:21Z</time></trkpt>
<trkpt lat="46.167949978262186" lon="7.139025935903192"><ele></ele><time>2015-11-5T8:20:24Z</time></trkpt>
<trkpt lat="46.16806698963046" lon="7.1391929872334"><ele></ele><time>2015-11-5T8:20:27Z</time></trkpt>
<trkpt lat="46.168118957430124" lon="7.139282925054431"><ele></ele><time>2015-11-5T8:20:30Z</time></trkpt>
<trkpt lat="46.16819095797837" lon="7.139403959736228"><ele></ele><time>2015-11-5T8:20:33Z</time></trkpt>
<trkpt lat="46.16824292577803" lon="7.139491969719529"><ele></ele><time>2015-11-5T8:20:36Z</time></trkpt>
<trkpt lat="46.16830394603312" lon="7.139592971652746"><ele></ele><time>2015-11-5T8:20:39Z</time></trkpt>
<trkpt lat="46.168375946581364" lon="7.139712916687131"><ele></ele><time>2015-11-5T8:20:42Z</time></trkpt>
<trkpt lat="46.16844694130123" lon="7.139807967469096"><ele></ele><time>2015-11-5T8:20:45Z</time></trkpt>
<trkpt lat="46.16851592436433" lon="7.139894971624017"><ele></ele><time>2015-11-5T8:20:48Z</time></trkpt>
<trkpt lat="46.16860896348953" lon="7.14000997133553"><ele></ele><time>2015-11-5T8:20:51Z</time></trkpt>
<trkpt lat="46.16869596764445" lon="7.1400929521769285"><ele></ele><time>2015-11-5T8:20:54Z</time></trkpt>
<trkpt lat="46.16878096014261" lon="7.140148943290114"><ele></ele><time>2015-11-5T8:20:57Z</time></trkpt>
<trkpt lat="46.16885991767049" lon="7.140194959938526"><ele></ele><time>2015-11-5T8:21:0Z</time></trkpt>
<trkpt lat="46.168960919603705" lon="7.140219938009977"><ele></ele><time>2015-11-5T8:21:3Z</time></trkpt>
<trkpt lat="46.16902596317232" lon="7.140233935788274"><ele></ele><time>2015-11-5T8:21:6Z</time></trkpt>
<trkpt lat="46.16907793097198" lon="7.140233935788274"><ele></ele><time>2015-11-5T8:21:9Z</time></trkpt>
<trkpt lat="46.1691789329052" lon="7.140233935788274"><ele></ele><time>2015-11-5T8:21:12Z</time></trkpt>
<trkpt lat="46.16927297785878" lon="7.140212981030345"><ele></ele><time>2015-11-5T8:21:15Z</time></trkpt>
<trkpt lat="46.169342966750264" lon="7.140191942453384"><ele></ele><time>2015-11-5T8:21:18Z</time></trkpt>
<trkpt lat="46.169430976733565" lon="7.1401639468967915"><ele></ele><time>2015-11-5T8:21:21Z</time></trkpt>
<trkpt lat="46.16949995979667" lon="7.140142992138863"><ele></ele><time>2015-11-5T8:21:24Z</time></trkpt>
<trkpt lat="46.16961294785142" lon="7.140107955783606"><ele></ele><time>2015-11-5T8:21:27Z</time></trkpt>
<trkpt lat="46.16969995200634" lon="7.140080966055393"><ele></ele><time>2015-11-5T8:21:30Z</time></trkpt>
<trkpt lat="46.16978796198964" lon="7.140053976327181"><ele></ele><time>2015-11-5T8:21:33Z</time></trkpt>
<trkpt lat="46.16991092450917" lon="7.14003193192184"><ele></ele><time>2015-11-5T8:21:36Z</time></trkpt>
<trkpt lat="46.17000195197761" lon="7.140022963285446"><ele></ele><time>2015-11-5T8:21:39Z</time></trkpt>
<trkpt lat="46.170117957517505" lon="7.140042996034026"><ele></ele><time>2015-11-5T8:21:42Z</time></trkpt>
<trkpt lat="46.170137990266085" lon="7.1400499530136585"><ele></ele><time>2015-11-5T8:21:45Z</time></trkpt>
<trkpt lat="46.17022197693586" lon="7.140088928863406"><ele></ele><time>2015-11-5T8:21:48Z</time></trkpt>
<trkpt lat="46.170245949178934" lon="7.140102926641703"><ele></ele><time>2015-11-5T8:21:51Z</time></trkpt>
<trkpt lat="46.170332953333855" lon="7.140151960775256"><ele></ele><time>2015-11-5T8:21:54Z</time></trkpt>
<trkpt lat="46.170378969982266" lon="7.140177944675088"><ele></ele><time>2015-11-5T8:21:57Z</time></trkpt>
<trkpt lat="46.17040394805372" lon="7.140191942453384"><ele></ele><time>2015-11-5T8:22:0Z</time></trkpt>
<trkpt lat="46.170464968308806" lon="7.140225972980261"><ele></ele><time>2015-11-5T8:22:3Z</time></trkpt>
<trkpt lat="46.170572927221656" lon="7.14028799906373"><ele></ele><time>2015-11-5T8:22:6Z</time></trkpt>
<trkpt lat="46.170668983832" lon="7.140341978520155"><ele></ele><time>2015-11-5T8:22:9Z</time></trkpt>
<trkpt lat="46.17073494940996" lon="7.1403859835118055"><ele></ele><time>2015-11-5T8:22:12Z</time></trkpt>
<trkpt lat="46.17087995633483" lon="7.1404829621315"><ele></ele><time>2015-11-5T8:22:15Z</time></trkpt>
<trkpt lat="46.17097198963165" lon="7.140535935759544"><ele></ele><time>2015-11-5T8:22:18Z</time></trkpt>
<trkpt lat="46.17105899378657" lon="7.14056795462966"><ele></ele><time>2015-11-5T8:22:21Z</time></trkpt>
<trkpt lat="46.171168964356184" lon="7.140594944357872"><ele></ele><time>2015-11-5T8:22:24Z</time></trkpt>
<trkpt lat="46.17123995907605" lon="7.140644984319806"><ele></ele><time>2015-11-5T8:22:27Z</time></trkpt>
<trkpt lat="46.1713199224323" lon="7.1407149732112885"><ele></ele><time>2015-11-5T8:22:30Z</time></trkpt>
<trkpt lat="46.1713529471308" lon="7.140748919919133"><ele></ele><time>2015-11-5T8:22:33Z</time></trkpt>
<trkpt lat="46.1713529471308" lon="7.140812957659364"><ele></ele><time>2015-11-5T8:22:36Z</time></trkpt>
<trkpt lat="46.17133199237287" lon="7.140898955985904"><ele></ele><time>2015-11-5T8:22:39Z</time></trkpt>
<trkpt lat="46.171277929097414" lon="7.140988977625966"><ele></ele><time>2015-11-5T8:22:42Z</time></trkpt>
<trkpt lat="46.171213975176215" lon="7.141094924882054"><ele></ele><time>2015-11-5T8:22:45Z</time></trkpt>
<trkpt lat="46.171170976012945" lon="7.1411549393087626"><ele></ele><time>2015-11-5T8:22:48Z</time></trkpt>
<trkpt lat="46.17109595797956" lon="7.141251917928457"><ele></ele><time>2015-11-5T8:22:51Z</time></trkpt>
<trkpt lat="46.17103694938123" lon="7.141317967325449"><ele></ele><time>2015-11-5T8:22:54Z</time></trkpt>
<trkpt lat="46.17096997797489" lon="7.141368929296732"><ele></ele><time>2015-11-5T8:22:57Z</time></trkpt>
<trkpt lat="46.17089697159827" lon="7.1414179634302855"><ele></ele><time>2015-11-5T8:23:0Z</time></trkpt>
<trkpt lat="46.170868976041675" lon="7.141435984522104"><ele></ele><time>2015-11-5T8:23:3Z</time></trkpt>
<trkpt lat="46.17075892165303" lon="7.14149096980691"><ele></ele><time>2015-11-5T8:23:6Z</time></trkpt>
<trkpt lat="46.17066797800362" lon="7.1415269281715155"><ele></ele><time>2015-11-5T8:23:9Z</time></trkpt>
<trkpt lat="46.17054493166506" lon="7.1415619645267725"><ele></ele><time>2015-11-5T8:23:12Z</time></trkpt>
<trkpt lat="46.170409983024" lon="7.141637988388538"><ele></ele><time>2015-11-5T8:23:15Z</time></trkpt>
<trkpt lat="46.17032792419195" lon="7.141828928142786"><ele></ele><time>2015-11-5T8:23:18Z</time></trkpt>
<trkpt lat="46.17035097442567" lon="7.142002936452627"><ele></ele><time>2015-11-5T8:23:21Z</time></trkpt>
<trkpt lat="46.17036597803235" lon="7.142142998054624"><ele></ele><time>2015-11-5T8:23:24Z</time></trkpt>
<trkpt lat="46.17036597803235" lon="7.142280964180827"><ele></ele><time>2015-11-5T8:23:27Z</time></trkpt>
<trkpt lat="46.17034896276891" lon="7.1423709858208895"><ele></ele><time>2015-11-5T8:23:30Z</time></trkpt>
<trkpt lat="46.17027897387743" lon="7.142466958612204"><ele></ele><time>2015-11-5T8:23:33Z</time></trkpt>
<trkpt lat="46.1701649799943" lon="7.142579946666956"><ele></ele><time>2015-11-5T8:23:36Z</time></trkpt>
<trkpt lat="46.170073952525854" lon="7.142774993553758"><ele></ele><time>2015-11-5T8:23:39Z</time></trkpt>
<trkpt lat="46.17000597529113" lon="7.1430539432913065"><ele></ele><time>2015-11-5T8:23:42Z</time></trkpt>
<trkpt lat="46.16995392367244" lon="7.143148994073272"><ele></ele><time>2015-11-5T8:23:45Z</time></trkpt>
<trkpt lat="46.169839929789305" lon="7.143329959362745"><ele></ele><time>2015-11-5T8:23:48Z</time></trkpt>
<trkpt lat="46.169603979215026" lon="7.143645957112312"><ele></ele><time>2015-11-5T8:23:51Z</time></trkpt>
<trkpt lat="46.169427959248424" lon="7.1441009268164635"><ele></ele><time>2015-11-5T8:23:54Z</time></trkpt>
<trkpt lat="46.16919192485511" lon="7.144743986427784"><ele></ele><time>2015-11-5T8:23:57Z</time></trkpt>
<trkpt lat="46.16891699843109" lon="7.1454759780317545"><ele></ele><time>2015-11-5T8:24:0Z</time></trkpt>
<trkpt lat="46.16841391660273" lon="7.14643495157361"><ele></ele><time>2015-11-5T8:24:3Z</time></trkpt>
<trkpt lat="46.16818894632161" lon="7.146964939311147"><ele></ele><time>2015-11-5T8:24:6Z</time></trkpt>
<trkpt lat="46.16800194606185" lon="7.147524934262037"><ele></ele><time>2015-11-5T8:24:9Z</time></trkpt>
<trkpt lat="46.16787294857204" lon="7.148208981379867"><ele></ele><time>2015-11-5T8:24:12Z</time></trkpt>
<trkpt lat="46.16788795217872" lon="7.148533947765827"><ele></ele><time>2015-11-5T8:24:15Z</time></trkpt>
<trkpt lat="46.16790094412863" lon="7.148600919172168"><ele></ele><time>2015-11-5T8:24:18Z</time></trkpt>
<trkpt lat="46.16786498576403" lon="7.148642996326089"><ele></ele><time>2015-11-5T8:24:21Z</time></trkpt>
<trkpt lat="46.167885940521955" lon="7.148621957749128"><ele></ele><time>2015-11-5T8:24:24Z</time></trkpt>
<trkpt lat="46.1678889580071" lon="7.148621957749128"><ele></ele><time>2015-11-5T8:24:27Z</time></trkpt>
<trkpt lat="46.16791594773531" lon="7.148681972175837"><ele></ele><time>2015-11-5T8:24:30Z</time></trkpt>
<trkpt lat="46.16797897964716" lon="7.148928986862302"><ele></ele><time>2015-11-5T8:24:33Z</time></trkpt>
<trkpt lat="46.168075958266854" lon="7.149082962423563"><ele></ele><time>2015-11-5T8:24:36Z</time></trkpt>
<trkpt lat="46.1682409979403" lon="7.149256970733404"><ele></ele><time>2015-11-5T8:24:39Z</time></trkpt>
<trkpt lat="46.168481977656484" lon="7.149554947391152"><ele></ele><time>2015-11-5T8:24:42Z</time></trkpt>
<trkpt lat="46.16858893074095" lon="7.149855941534042"><ele></ele><time>2015-11-5T8:24:45Z</time></trkpt>
<trkpt lat="46.168613992631435" lon="7.149931965395808"><ele></ele><time>2015-11-5T8:24:48Z</time></trkpt>
<trkpt lat="46.168809961527586" lon="7.1502219792455435"><ele></ele><time>2015-11-5T8:24:51Z</time></trkpt>
<trkpt lat="46.16895195096731" lon="7.150313928723335"><ele></ele><time>2015-11-5T8:24:54Z</time></trkpt>
<trkpt lat="46.169577995315194" lon="7.150619952008128"><ele></ele><time>2015-11-5T8:24:57Z</time></trkpt>
<trkpt lat="46.16995099000633" lon="7.150718942284584"><ele></ele><time>2015-11-5T8:25:0Z</time></trkpt>
<trkpt lat="46.1700299475342" lon="7.150796977803111"><ele></ele><time>2015-11-5T8:25:3Z</time></trkpt>
<trkpt lat="46.17006598971784" lon="7.150919940322638"><ele></ele><time>2015-11-5T8:25:6Z</time></trkpt>
<trkpt lat="46.17004998028278" lon="7.150914994999766"><ele></ele><time>2015-11-5T8:25:9Z</time></trkpt>
<trkpt lat="46.16995392367244" lon="7.150886999443173"><ele></ele><time>2015-11-5T8:25:12Z</time></trkpt>
<trkpt lat="46.16963398642838" lon="7.1507959719747305"><ele></ele><time>2015-11-5T8:25:15Z</time></trkpt>
<trkpt lat="46.16946391761303" lon="7.1507759392261505"><ele></ele><time>2015-11-5T8:25:18Z</time></trkpt>
<trkpt lat="46.169275995343924" lon="7.150799995288253"><ele></ele><time>2015-11-5T8:25:21Z</time></trkpt>
<trkpt lat="46.16888095624745" lon="7.150787925347686"><ele></ele><time>2015-11-5T8:25:24Z</time></trkpt>
<trkpt lat="46.16856093518436" lon="7.150650965049863"><ele></ele><time>2015-11-5T8:25:27Z</time></trkpt>
<trkpt lat="46.16819892078638" lon="7.150498917326331"><ele></ele><time>2015-11-5T8:25:30Z</time></trkpt>
<trkpt lat="46.1679769679904" lon="7.150329938158393"><ele></ele><time>2015-11-5T8:25:33Z</time></trkpt>
<trkpt lat="46.16789197549224" lon="7.150318957865238"><ele></ele><time>2015-11-5T8:25:36Z</time></trkpt>
<trkpt lat="46.16765795275569" lon="7.150414930656552"><ele></ele><time>2015-11-5T8:25:39Z</time></trkpt>
<trkpt lat="46.16749098524451" lon="7.150606960058212"><ele></ele><time>2015-11-5T8:25:42Z</time></trkpt>
<trkpt lat="46.16759198717773" lon="7.150747943669558"><ele></ele><time>2015-11-5T8:25:45Z</time></trkpt>
<trkpt lat="46.16789692081511" lon="7.150768982246518"><ele></ele><time>2015-11-5T8:25:48Z</time></trkpt>
<trkpt lat="46.16808693856001" lon="7.150974925607443"><ele></ele><time>2015-11-5T8:25:51Z</time></trkpt>
<trkpt lat="46.16834593936801" lon="7.151362923905253"><ele></ele><time>2015-11-5T8:25:54Z</time></trkpt>
<trkpt lat="46.168610975146294" lon="7.151597952470183"><ele></ele><time>2015-11-5T8:25:57Z</time></trkpt>
<trkpt lat="46.168764950707555" lon="7.151626953855157"><ele></ele><time>2015-11-5T8:26:0Z</time></trkpt>
<trkpt lat="46.16894197650254" lon="7.15161195024848"><ele></ele><time>2015-11-5T8:26:3Z</time></trkpt>
<trkpt lat="46.16929292678833" lon="7.15174094773829"><ele></ele><time>2015-11-5T8:26:6Z</time></trkpt>
<trkpt lat="46.16937791928649" lon="7.151818983256817"><ele></ele><time>2015-11-5T8:26:9Z</time></trkpt>
<trkpt lat="46.16981998085976" lon="7.152524990960956"><ele></ele><time>2015-11-5T8:26:12Z</time></trkpt>
<trkpt lat="46.16987597197294" lon="7.152605960145593"><ele></ele><time>2015-11-5T8:26:15Z</time></trkpt>
<trkpt lat="46.17013296112418" lon="7.15307098813355"><ele></ele><time>2015-11-5T8:26:18Z</time></trkpt>
<trkpt lat="46.17022993974388" lon="7.153391931205988"><ele></ele><time>2015-11-5T8:26:21Z</time></trkpt>
<trkpt lat="46.17028098553419" lon="7.153718993067741"><ele></ele><time>2015-11-5T8:26:24Z</time></trkpt>
<trkpt lat="46.1704049538821" lon="7.15425593778491"><ele></ele><time>2015-11-5T8:26:27Z</time></trkpt>
<trkpt lat="46.17067493498325" lon="7.1548419166356325"><ele></ele><time>2015-11-5T8:26:30Z</time></trkpt>
<trkpt lat="46.17092396132648" lon="7.155167972669005"><ele></ele><time>2015-11-5T8:26:33Z</time></trkpt>
<trkpt lat="46.17122495546937" lon="7.155480952933431"><ele></ele><time>2015-11-5T8:26:36Z</time></trkpt>
<trkpt lat="46.171254962682724" lon="7.155598970130086"><ele></ele><time>2015-11-5T8:26:39Z</time></trkpt>
<trkpt lat="46.1715289670974" lon="7.155990991741419"><ele></ele><time>2015-11-5T8:26:42Z</time></trkpt>
<trkpt lat="46.17181294597685" lon="7.156292991712689"><ele></ele><time>2015-11-5T8:26:45Z</time></trkpt>
<trkpt lat="46.172114945948124" lon="7.156734969466925"><ele></ele><time>2015-11-5T8:26:48Z</time></trkpt>
<trkpt lat="46.17222994565964" lon="7.156926998868585"><ele></ele><time>2015-11-5T8:26:51Z</time></trkpt>
<trkpt lat="46.17242499254644" lon="7.157140988856554"><ele></ele><time>2015-11-5T8:26:54Z</time></trkpt>
<trkpt lat="46.17260193452239" lon="7.15734894387424"><ele></ele><time>2015-11-5T8:26:57Z</time></trkpt>
<trkpt lat="46.172785917297006" lon="7.157537955790758"><ele></ele><time>2015-11-5T8:27:0Z</time></trkpt>
<trkpt lat="46.172872921451926" lon="7.1576929371804"><ele></ele><time>2015-11-5T8:27:3Z</time></trkpt>
<trkpt lat="46.17292991839349" lon="7.157806931063533"><ele></ele><time>2015-11-5T8:27:6Z</time></trkpt>
<trkpt lat="46.17297291755676" lon="7.157929977402091"><ele></ele><time>2015-11-5T8:27:9Z</time></trkpt>
<trkpt lat="46.173019940033555" lon="7.158083952963352"><ele></ele><time>2015-11-5T8:27:12Z</time></trkpt>
<trkpt lat="46.17304894141853" lon="7.158234994858503"><ele></ele><time>2015-11-5T8:27:15Z</time></trkpt>
<trkpt lat="46.17304894141853" lon="7.158394921571016"><ele></ele><time>2015-11-5T8:27:18Z</time></trkpt>
<trkpt lat="46.173124965280294" lon="7.158575970679522"><ele></ele><time>2015-11-5T8:27:21Z</time></trkpt>
<trkpt lat="46.17319596000016" lon="7.158743944019079"><ele></ele><time>2015-11-5T8:27:24Z</time></trkpt>
<trkpt lat="46.17326594889164" lon="7.1588999312371016"><ele></ele><time>2015-11-5T8:27:27Z</time></trkpt>
<trkpt lat="46.17335295304656" lon="7.1590489614754915"><ele></ele><time>2015-11-5T8:27:30Z</time></trkpt>
<trkpt lat="46.17341699078679" lon="7.159234955906868"><ele></ele><time>2015-11-5T8:27:33Z</time></trkpt>
<trkpt lat="46.17347398772836" lon="7.159506948664784"><ele></ele><time>2015-11-5T8:27:36Z</time></trkpt>
<trkpt lat="46.173533918336034" lon="7.159706940874457"><ele></ele><time>2015-11-5T8:27:39Z</time></trkpt>
<trkpt lat="46.17360893636942" lon="7.159953955560923"><ele></ele><time>2015-11-5T8:27:42Z</time></trkpt>
<trkpt lat="46.173683954402804" lon="7.160091921687126"><ele></ele><time>2015-11-5T8:27:45Z</time></trkpt>
<trkpt lat="46.17382896132767" lon="7.16024799272418"><ele></ele><time>2015-11-5T8:27:48Z</time></trkpt>
<trkpt lat="46.17392593994737" lon="7.160326950252056"><ele></ele><time>2015-11-5T8:27:51Z</time></trkpt>
<trkpt lat="46.174050997942686" lon="7.160427952185273"><ele></ele><time>2015-11-5T8:27:54Z</time></trkpt>
<trkpt lat="46.174156945198774" lon="7.160596931353211"><ele></ele><time>2015-11-5T8:27:57Z</time></trkpt>
<trkpt lat="46.17419793270528" lon="7.160764988511801"><ele></ele><time>2015-11-5T8:28:0Z</time></trkpt>
<trkpt lat="46.174244955182076" lon="7.161008985713124"><ele></ele><time>2015-11-5T8:28:3Z</time></trkpt>
<trkpt lat="46.17431594990194" lon="7.161222975701094"><ele></ele><time>2015-11-5T8:28:6Z</time></trkpt>
<trkpt lat="46.17437596432865" lon="7.161375945433974"><ele></ele><time>2015-11-5T8:28:9Z</time></trkpt>
<trkpt lat="46.17451292462647" lon="7.161514917388558"><ele></ele><time>2015-11-5T8:28:12Z</time></trkpt>
<trkpt lat="46.17464292794466" lon="7.161637963727117"><ele></ele><time>2015-11-5T8:28:15Z</time></trkpt>
<trkpt lat="46.17473999038339" lon="7.161801997572184"><ele></ele><time>2015-11-5T8:28:18Z</time></trkpt>
<trkpt lat="46.174906957894564" lon="7.162063932046294"><ele></ele><time>2015-11-5T8:28:21Z</time></trkpt>
<trkpt lat="46.175061939284205" lon="7.162265935912728"><ele></ele><time>2015-11-5T8:28:24Z</time></trkpt>
<trkpt lat="46.17522697895765" lon="7.162520997226238"><ele></ele><time>2015-11-5T8:28:27Z</time></trkpt>
<trkpt lat="46.17534499615431" lon="7.162803970277309"><ele></ele><time>2015-11-5T8:28:30Z</time></trkpt>
<trkpt lat="46.175489919260144" lon="7.162925926968455"><ele></ele><time>2015-11-5T8:28:33Z</time></trkpt>
<trkpt lat="46.1756959464401" lon="7.1630999352782965"><ele></ele><time>2015-11-5T8:28:36Z</time></trkpt>
<trkpt lat="46.175899961963296" lon="7.163283918052912"><ele></ele><time>2015-11-5T8:28:39Z</time></trkpt>
<trkpt lat="46.17607899941504" lon="7.163495980203152"><ele></ele><time>2015-11-5T8:28:42Z</time></trkpt>
<trkpt lat="46.17618595249951" lon="7.163680968806148"><ele></ele><time>2015-11-5T8:28:45Z</time></trkpt>
<trkpt lat="46.1762659996748" lon="7.163863945752382"><ele></ele><time>2015-11-5T8:28:48Z</time></trkpt>
<trkpt lat="46.17642098106444" lon="7.164156977087259"><ele></ele><time>2015-11-5T8:28:51Z</time></trkpt>
<trkpt lat="46.17657696828246" lon="7.164414972066879"><ele></ele><time>2015-11-5T8:28:54Z</time></trkpt>
<trkpt lat="46.17680696770549" lon="7.164598954841495"><ele></ele><time>2015-11-5T8:28:57Z</time></trkpt>
<trkpt lat="46.17695993743837" lon="7.164859967306256"><ele></ele><time>2015-11-5T8:29:0Z</time></trkpt>
<trkpt lat="46.17714894935489" lon="7.16510497033596"><ele></ele><time>2015-11-5T8:29:3Z</time></trkpt>
<trkpt lat="46.17731097154319" lon="7.165250983089209"><ele></ele><time>2015-11-5T8:29:6Z</time></trkpt>
<trkpt lat="46.177447931841016" lon="7.165394984185696"><ele></ele><time>2015-11-5T8:29:9Z</time></trkpt>
<trkpt lat="46.17749797180295" lon="7.165452986955643"><ele></ele><time>2015-11-5T8:29:12Z</time></trkpt>
<trkpt lat="46.177511969581246" lon="7.16546799056232"><ele></ele><time>2015-11-5T8:29:15Z</time></trkpt>
<trkpt lat="46.177511969581246" lon="7.16546799056232"><ele></ele><time>2015-11-5T8:29:18Z</time></trkpt>
<trkpt lat="46.17762898094952" lon="7.1659469325095415"><ele></ele><time>2015-11-5T8:29:21Z</time></trkpt>
<trkpt lat="46.177640967071056" lon="7.166432999074459"><ele></ele><time>2015-11-5T8:29:24Z</time></trkpt>
<trkpt lat="46.177831990644336" lon="7.167055942118168"><ele></ele><time>2015-11-5T8:29:27Z</time></trkpt>
<trkpt lat="46.17790499702096" lon="7.1672439482063055"><ele></ele><time>2015-11-5T8:29:30Z</time></trkpt>
<trkpt lat="46.17794296704233" lon="7.167355930432677"><ele></ele><time>2015-11-5T8:29:33Z</time></trkpt>
<trkpt lat="46.177984960377216" lon="7.16766195371747"><ele></ele><time>2015-11-5T8:29:36Z</time></trkpt>
<trkpt lat="46.17803793400526" lon="7.167870998382568"><ele></ele><time>2015-11-5T8:29:39Z</time></trkpt>
<trkpt lat="46.1782309692353" lon="7.168192947283387"><ele></ele><time>2015-11-5T8:29:42Z</time></trkpt>
<trkpt lat="46.17833792231977" lon="7.1683059353381395"><ele></ele><time>2015-11-5T8:29:45Z</time></trkpt>
<trkpt lat="46.17874695919454" lon="7.168609946966171"><ele></ele><time>2015-11-5T8:29:48Z</time></trkpt>
<trkpt lat="46.17892096750438" lon="7.168874982744455"><ele></ele><time>2015-11-5T8:29:51Z</time></trkpt>
<trkpt lat="46.17923294194043" lon="7.1691809222102165"><ele></ele><time>2015-11-5T8:29:54Z</time></trkpt>
<trkpt lat="46.17951993830502" lon="7.169548971578479"><ele></ele><time>2015-11-5T8:29:57Z</time></trkpt>
<trkpt lat="46.17956696078181" lon="7.169643938541412"><ele></ele><time>2015-11-5T8:30:0Z</time></trkpt>
<trkpt lat="46.17985596880317" lon="7.170220948755741"><ele></ele><time>2015-11-5T8:30:3Z</time></trkpt>
<trkpt lat="46.1801599804312" lon="7.170877922326326"><ele></ele><time>2015-11-5T8:30:6Z</time></trkpt>
<trkpt lat="46.18039894849062" lon="7.171236919239163"><ele></ele><time>2015-11-5T8:30:9Z</time></trkpt>
<trkpt lat="46.180515959858894" lon="7.171412939205766"><ele></ele><time>2015-11-5T8:30:12Z</time></trkpt>
<trkpt lat="46.18057496845722" lon="7.171558951959014"><ele></ele><time>2015-11-5T8:30:15Z</time></trkpt>
<trkpt lat="46.180647974833846" lon="7.171710999682546"><ele></ele><time>2015-11-5T8:30:18Z</time></trkpt>
<trkpt lat="46.180749982595444" lon="7.1718929708004"><ele></ele><time>2015-11-5T8:30:21Z</time></trkpt>
<trkpt lat="46.18076892569661" lon="7.171922978013754"><ele></ele><time>2015-11-5T8:30:24Z</time></trkpt>
<trkpt lat="46.18078594096005" lon="7.171951979398727"><ele></ele><time>2015-11-5T8:30:27Z</time></trkpt>
<trkpt lat="46.18087093345821" lon="7.172063961625099"><ele></ele><time>2015-11-5T8:30:30Z</time></trkpt>
<trkpt lat="46.181008983403444" lon="7.172184996306896"><ele></ele><time>2015-11-5T8:30:33Z</time></trkpt>
<trkpt lat="46.18111593648791" lon="7.17227996326983"><ele></ele><time>2015-11-5T8:30:36Z</time></trkpt>
<trkpt lat="46.18121794424951" lon="7.172375936061144"><ele></ele><time>2015-11-5T8:30:39Z</time></trkpt>
<trkpt lat="46.18129698559642" lon="7.1724779438227415"><ele></ele><time>2015-11-5T8:30:42Z</time></trkpt>
<trkpt lat="46.181309977546334" lon="7.17249596491456"><ele></ele><time>2015-11-5T8:30:45Z</time></trkpt>
<trkpt lat="46.18137996643782" lon="7.172586992383003"><ele></ele><time>2015-11-5T8:30:48Z</time></trkpt>
<trkpt lat="46.18143193423748" lon="7.172659998759627"><ele></ele><time>2015-11-5T8:30:51Z</time></trkpt>
<trkpt lat="46.18149597197771" lon="7.172765946015716"><ele></ele><time>2015-11-5T8:30:54Z</time></trkpt>
<trkpt lat="46.18162496946752" lon="7.172903995960951"><ele></ele><time>2015-11-5T8:30:57Z</time></trkpt>
<trkpt lat="46.18171691894531" lon="7.172977924346924"><ele></ele><time>2015-11-5T8:31:0Z</time></trkpt>
<trkpt lat="46.181869972497225" lon="7.173007931560278"><ele></ele><time>2015-11-5T8:31:3Z</time></trkpt>
<trkpt lat="46.18202897720039" lon="7.173047997057438"><ele></ele><time>2015-11-5T8:31:6Z</time></trkpt>
<trkpt lat="46.18224891833961" lon="7.173143969848752"><ele></ele><time>2015-11-5T8:31:9Z</time></trkpt>
<trkpt lat="46.18235796689987" lon="7.173118991777301"><ele></ele><time>2015-11-5T8:31:12Z</time></trkpt>
<trkpt lat="46.18246793746948" lon="7.173049924895167"><ele></ele><time>2015-11-5T8:31:15Z</time></trkpt>
<trkpt lat="46.18265292607248" lon="7.172895949333906"><ele></ele><time>2015-11-5T8:31:18Z</time></trkpt>
<trkpt lat="46.18287395685911" lon="7.172754965722561"><ele></ele><time>2015-11-5T8:31:21Z</time></trkpt>
<trkpt lat="46.18306397460401" lon="7.172742979601026"><ele></ele><time>2015-11-5T8:31:24Z</time></trkpt>
<trkpt lat="46.18330193683505" lon="7.172756977379322"><ele></ele><time>2015-11-5T8:31:27Z</time></trkpt>
<trkpt lat="46.18355993181467" lon="7.172748930752277"><ele></ele><time>2015-11-5T8:31:30Z</time></trkpt>
<trkpt lat="46.18375598452985" lon="7.172698974609375"><ele></ele><time>2015-11-5T8:31:33Z</time></trkpt>
<trkpt lat="46.18383997119963" lon="7.172672990709543"><ele></ele><time>2015-11-5T8:31:36Z</time></trkpt>
<trkpt lat="46.18407399393618" lon="7.172655975446105"><ele></ele><time>2015-11-5T8:31:39Z</time></trkpt>
<trkpt lat="46.18437993340194" lon="7.172508956864476"><ele></ele><time>2015-11-5T8:31:42Z</time></trkpt>
<trkpt lat="46.184495938941836" lon="7.1724549774080515"><ele></ele><time>2015-11-5T8:31:45Z</time></trkpt>
<trkpt lat="46.18460398167372" lon="7.1724349446594715"><ele></ele><time>2015-11-5T8:31:48Z</time></trkpt>
<trkpt lat="46.184706995263696" lon="7.172424970194697"><ele></ele><time>2015-11-5T8:31:51Z</time></trkpt>
<trkpt lat="46.184746976941824" lon="7.172421952709556"><ele></ele><time>2015-11-5T8:31:54Z</time></trkpt>
<trkpt lat="46.18477991782129" lon="7.172403931617737"><ele></ele><time>2015-11-5T8:31:57Z</time></trkpt>
<trkpt lat="46.18488796055317" lon="7.1722829807549715"><ele></ele><time>2015-11-5T8:32:0Z</time></trkpt>
<trkpt lat="46.184966918081045" lon="7.17213193885982"><ele></ele><time>2015-11-5T8:32:3Z</time></trkpt>
<trkpt lat="46.18505895137787" lon="7.17195893637836"><ele></ele><time>2015-11-5T8:32:6Z</time></trkpt>
<trkpt lat="46.18507898412645" lon="7.171795992180705"><ele></ele><time>2015-11-5T8:32:9Z</time></trkpt>
<trkpt lat="46.18506498634815" lon="7.171588959172368"><ele></ele><time>2015-11-5T8:32:12Z</time></trkpt>
<trkpt lat="46.18507596664131" lon="7.171431966125965"><ele></ele><time>2015-11-5T8:32:15Z</time></trkpt>
<trkpt lat="46.18514595553279" lon="7.17122795060277"><ele></ele><time>2015-11-5T8:32:18Z</time></trkpt>
<trkpt lat="46.18519892916083" lon="7.171111945062876"><ele></ele><time>2015-11-5T8:32:21Z</time></trkpt>
<trkpt lat="46.18520496413112" lon="7.171089984476566"><ele></ele><time>2015-11-5T8:32:24Z</time></trkpt>
<trkpt lat="46.18523497134447" lon="7.170972973108292"><ele></ele><time>2015-11-5T8:32:27Z</time></trkpt>
<trkpt lat="46.185266990214586" lon="7.170852944254875"><ele></ele><time>2015-11-5T8:32:30Z</time></trkpt>
<trkpt lat="46.18527294136584" lon="7.170829977840185"><ele></ele><time>2015-11-5T8:32:33Z</time></trkpt>
<trkpt lat="46.18530395440757" lon="7.170710954815149"><ele></ele><time>2015-11-5T8:32:36Z</time></trkpt>
<trkpt lat="46.185357933864" lon="7.170552955940366"><ele></ele><time>2015-11-5T8:32:39Z</time></trkpt>
<trkpt lat="46.1854459438473" lon="7.170361932367086"><ele></ele><time>2015-11-5T8:32:42Z</time></trkpt>
<trkpt lat="46.18556899018586" lon="7.170222960412502"><ele></ele><time>2015-11-5T8:32:45Z</time></trkpt>
<trkpt lat="46.18568197824061" lon="7.170127993449569"><ele></ele><time>2015-11-5T8:32:48Z</time></trkpt>
<trkpt lat="46.18574693799019" lon="7.170051969587803"><ele></ele><time>2015-11-5T8:32:51Z</time></trkpt>
<trkpt lat="46.18581592105329" lon="7.169963959604502"><ele></ele><time>2015-11-5T8:32:54Z</time></trkpt>
<trkpt lat="46.18587199598551" lon="7.169882990419865"><ele></ele><time>2015-11-5T8:32:57Z</time></trkpt>
<trkpt lat="46.18594592437148" lon="7.169775953516364"><ele></ele><time>2015-11-5T8:33:0Z</time></trkpt>
<trkpt lat="46.18604399263859" lon="7.169641926884651"><ele></ele><time>2015-11-5T8:33:3Z</time></trkpt>
<trkpt lat="46.18613191880286" lon="7.169512929394841"><ele></ele><time>2015-11-5T8:33:6Z</time></trkpt>
<trkpt lat="46.18620693683624" lon="7.169356942176819"><ele></ele><time>2015-11-5T8:33:9Z</time></trkpt>
<trkpt lat="46.18625999428332" lon="7.169199949130416"><ele></ele><time>2015-11-5T8:33:12Z</time></trkpt>
<trkpt lat="46.186315985396504" lon="7.1690369211137295"><ele></ele><time>2015-11-5T8:33:15Z</time></trkpt>
<trkpt lat="46.186383962631226" lon="7.168892920017242"><ele></ele><time>2015-11-5T8:33:18Z</time></trkpt>
<trkpt lat="46.186444982886314" lon="7.168762916699052"><ele></ele><time>2015-11-5T8:33:21Z</time></trkpt>
<trkpt lat="46.186493933200836" lon="7.168639954179525"><ele></ele><time>2015-11-5T8:33:24Z</time></trkpt>
<trkpt lat="46.186531987041235" lon="7.168473992496729"><ele></ele><time>2015-11-5T8:33:27Z</time></trkpt>
<trkpt lat="46.18653793819249" lon="7.168428981676698"><ele></ele><time>2015-11-5T8:33:30Z</time></trkpt>
<trkpt lat="46.18655897676945" lon="7.168270982801914"><ele></ele><time>2015-11-5T8:33:33Z</time></trkpt>
<trkpt lat="46.18656693957746" lon="7.168205939233303"><ele></ele><time>2015-11-5T8:33:36Z</time></trkpt>
<trkpt lat="46.18658194318414" lon="7.1680909395217896"><ele></ele><time>2015-11-5T8:33:39Z</time></trkpt>
<trkpt lat="46.18660499341786" lon="7.167992955073714"><ele></ele><time>2015-11-5T8:33:42Z</time></trkpt>
<trkpt lat="46.18665092624724" lon="7.167855994775891"><ele></ele><time>2015-11-5T8:33:45Z</time></trkpt>
<trkpt lat="46.18672292679548" lon="7.167697995901108"><ele></ele><time>2015-11-5T8:33:48Z</time></trkpt>
<trkpt lat="46.18674295954406" lon="7.167662959545851"><ele></ele><time>2015-11-5T8:33:51Z</time></trkpt>
<trkpt lat="46.18680599145591" lon="7.167548965662718"><ele></ele><time>2015-11-5T8:33:54Z</time></trkpt>
<trkpt lat="46.186853935942054" lon="7.167463973164558"><ele></ele><time>2015-11-5T8:33:57Z</time></trkpt>
<trkpt lat="46.186911938712" lon="7.1673599537462"><ele></ele><time>2015-11-5T8:34:0Z</time></trkpt>
<trkpt lat="46.18698896840215" lon="7.16720899567008"><ele></ele><time>2015-11-5T8:34:3Z</time></trkpt>
<trkpt lat="46.18703096173704" lon="7.167093995958567"><ele></ele><time>2015-11-5T8:34:6Z</time></trkpt>
<trkpt lat="46.187071949243546" lon="7.166976984590292"><ele></ele><time>2015-11-5T8:34:9Z</time></trkpt>
<trkpt lat="46.1871069855988" lon="7.166871959343553"><ele></ele><time>2015-11-5T8:34:12Z</time></trkpt>
<trkpt lat="46.187158953398466" lon="7.166762994602323"><ele></ele><time>2015-11-5T8:34:15Z</time></trkpt>
<trkpt lat="46.187241934239864" lon="7.166666937991977"><ele></ele><time>2015-11-5T8:34:18Z</time></trkpt>
<trkpt lat="46.18733698502183" lon="7.166647994890809"><ele></ele><time>2015-11-5T8:34:21Z</time></trkpt>
<trkpt lat="46.18740395642817" lon="7.166604995727539"><ele></ele><time>2015-11-5T8:34:24Z</time></trkpt>
<trkpt lat="46.18746899999678" lon="7.1664899960160255"><ele></ele><time>2015-11-5T8:34:27Z</time></trkpt>
<trkpt lat="46.18758098222315" lon="7.166399974375963"><ele></ele><time>2015-11-5T8:34:30Z</time></trkpt>
<trkpt lat="46.18765499442816" lon="7.166331997141242"><ele></ele><time>2015-11-5T8:34:33Z</time></trkpt>
<trkpt lat="46.187754990532994" lon="7.166231917217374"><ele></ele><time>2015-11-5T8:34:36Z</time></trkpt>
<trkpt lat="46.18783495388925" lon="7.166151953861117"><ele></ele><time>2015-11-5T8:34:39Z</time></trkpt>
<trkpt lat="46.18791592307389" lon="7.166074924170971"><ele></ele><time>2015-11-5T8:34:42Z</time></trkpt>
<trkpt lat="46.18802094832063" lon="7.165999989956617"><ele></ele><time>2015-11-5T8:34:45Z</time></trkpt>
<trkpt lat="46.18810895830393" lon="7.165975933894515"><ele></ele><time>2015-11-5T8:34:48Z</time></trkpt>
<trkpt lat="46.18824399076402" lon="7.165937963873148"><ele></ele><time>2015-11-5T8:34:51Z</time></trkpt>
<trkpt lat="46.188338957726955" lon="7.1658809669315815"><ele></ele><time>2015-11-5T8:34:54Z</time></trkpt>
<trkpt lat="46.18843895383179" lon="7.165840985253453"><ele></ele><time>2015-11-5T8:34:57Z</time></trkpt>
<trkpt lat="46.18843895383179" lon="7.165840985253453"><ele></ele><time>2015-11-5T8:35:0Z</time></trkpt>
<trkpt lat="46.1884799413383" lon="7.165825981646776"><ele></ele><time>2015-11-5T8:35:3Z</time></trkpt>
<trkpt lat="46.18855697102845" lon="7.165788933634758"><ele></ele><time>2015-11-5T8:35:6Z</time></trkpt>
<trkpt lat="46.18856593966484" lon="7.165783988311887"><ele></ele><time>2015-11-5T8:35:9Z</time></trkpt>
<trkpt lat="46.18866199627519" lon="7.16572992503643"><ele></ele><time>2015-11-5T8:35:12Z</time></trkpt>
<trkpt lat="46.1886699590832" lon="7.165724979713559"><ele></ele><time>2015-11-5T8:35:15Z</time></trkpt>
<trkpt lat="46.188805997371674" lon="7.1656229719519615"><ele></ele><time>2015-11-5T8:35:18Z</time></trkpt>
<trkpt lat="46.18889392353594" lon="7.165523981675506"><ele></ele><time>2015-11-5T8:35:21Z</time></trkpt>
<trkpt lat="46.18895494379103" lon="7.165439995005727"><ele></ele><time>2015-11-5T8:35:24Z</time></trkpt>
<trkpt lat="46.189046977087855" lon="7.165302950888872"><ele></ele><time>2015-11-5T8:35:27Z</time></trkpt>
<trkpt lat="46.189109925180674" lon="7.165198931470513"><ele></ele><time>2015-11-5T8:35:30Z</time></trkpt>
<trkpt lat="46.18914194405079" lon="7.165145957842469"><ele></ele><time>2015-11-5T8:35:33Z</time></trkpt>
<trkpt lat="46.18914194405079" lon="7.165145957842469"><ele></ele><time>2015-11-5T8:35:36Z</time></trkpt>
<trkpt lat="46.18914194405079" lon="7.165145957842469"><ele></ele><time>2015-11-5T8:35:39Z</time></trkpt>
<trkpt lat="46.189669920131564" lon="7.164789978414774"><ele></ele><time>2015-11-5T8:35:42Z</time></trkpt>
<trkpt lat="46.18996697477996" lon="7.164574982598424"><ele></ele><time>2015-11-5T8:35:45Z</time></trkpt>
<trkpt lat="46.190292946994305" lon="7.164294943213463"><ele></ele><time>2015-11-5T8:35:48Z</time></trkpt>
<trkpt lat="46.19064196944237" lon="7.164027979597449"><ele></ele><time>2015-11-5T8:35:51Z</time></trkpt>
<trkpt lat="46.19088898412883" lon="7.163927983492613"><ele></ele><time>2015-11-5T8:35:54Z</time></trkpt>
<trkpt lat="46.191020999103785" lon="7.163782976567745"><ele></ele><time>2015-11-5T8:35:57Z</time></trkpt>
<trkpt lat="46.19117799215019" lon="7.163662947714329"><ele></ele><time>2015-11-5T8:36:0Z</time></trkpt>
<trkpt lat="46.191279999911785" lon="7.163809966295958"><ele></ele><time>2015-11-5T8:36:3Z</time></trkpt>
<trkpt lat="46.19138192385435" lon="7.1641309931874275"><ele></ele><time>2015-11-5T8:36:6Z</time></trkpt>
<trkpt lat="46.1913949996233" lon="7.164295949041843"><ele></ele><time>2015-11-5T8:36:9Z</time></trkpt>
<trkpt lat="46.1913949996233" lon="7.164360992610455"><ele></ele><time>2015-11-5T8:36:12Z</time></trkpt>
<trkpt lat="46.19151494465768" lon="7.164518991485238"><ele></ele><time>2015-11-5T8:36:15Z</time></trkpt>
<trkpt lat="46.191624999046326" lon="7.164569953456521"><ele></ele><time>2015-11-5T8:36:18Z</time></trkpt>
<trkpt lat="46.19169498793781" lon="7.16458797454834"><ele></ele><time>2015-11-5T8:36:21Z</time></trkpt>
<trkpt lat="46.19178098626435" lon="7.164651928469539"><ele></ele><time>2015-11-5T8:36:24Z</time></trkpt>
<trkpt lat="46.191824991256" lon="7.164695933461189"><ele></ele><time>2015-11-5T8:36:27Z</time></trkpt>
<trkpt lat="46.19198299013078" lon="7.1643919218331575"><ele></ele><time>2015-11-5T8:36:30Z</time></trkpt>
<trkpt lat="46.19209094904363" lon="7.164328973740339"><ele></ele><time>2015-11-5T8:36:33Z</time></trkpt>
<trkpt lat="46.192182982340455" lon="7.1642599906772375"><ele></ele><time>2015-11-5T8:36:36Z</time></trkpt>
<trkpt lat="46.19226294569671" lon="7.164192935451865"><ele></ele><time>2015-11-5T8:36:39Z</time></trkpt>
<trkpt lat="46.19236193597317" lon="7.164108948782086"><ele></ele><time>2015-11-5T8:36:42Z</time></trkpt>
<trkpt lat="46.1924759298563" lon="7.164013981819153"><ele></ele><time>2015-11-5T8:36:45Z</time></trkpt>
<trkpt lat="46.19260098785162" lon="7.1639089565724134"><ele></ele><time>2015-11-5T8:36:48Z</time></trkpt>
<trkpt lat="46.192696960642934" lon="7.163828993216157"><ele></ele><time>2015-11-5T8:36:51Z</time></trkpt>
<trkpt lat="46.192786982282996" lon="7.163752969354391"><ele></ele><time>2015-11-5T8:36:54Z</time></trkpt>
<trkpt lat="46.192891923710704" lon="7.163674933835864"><ele></ele><time>2015-11-5T8:36:57Z</time></trkpt>
<trkpt lat="46.193041959777474" lon="7.163628917187452"><ele></ele><time>2015-11-5T8:37:0Z</time></trkpt>
<trkpt lat="46.193153942003846" lon="7.163658924400806"><ele></ele><time>2015-11-5T8:37:3Z</time></trkpt>
<trkpt lat="46.19326399639249" lon="7.1637369599193335"><ele></ele><time>2015-11-5T8:37:6Z</time></trkpt>
<trkpt lat="46.19333599694073" lon="7.163840979337692"><ele></ele><time>2015-11-5T8:37:9Z</time></trkpt>
<trkpt lat="46.193408919498324" lon="7.1639669593423605"><ele></ele><time>2015-11-5T8:37:12Z</time></trkpt>
<trkpt lat="46.19345594197512" lon="7.164064943790436"><ele></ele><time>2015-11-5T8:37:15Z</time></trkpt>
<trkpt lat="46.19350095279515" lon="7.164172986522317"><ele></ele><time>2015-11-5T8:37:18Z</time></trkpt>
<trkpt lat="46.19354898110032" lon="7.1642909198999405"><ele></ele><time>2015-11-5T8:37:21Z</time></trkpt>
<trkpt lat="46.19361494667828" lon="7.164451936259866"><ele></ele><time>2015-11-5T8:37:24Z</time></trkpt>
<trkpt lat="46.193667920306325" lon="7.164572970941663"><ele></ele><time>2015-11-5T8:37:27Z</time></trkpt>
<trkpt lat="46.19376791641116" lon="7.164729963988066"><ele></ele><time>2015-11-5T8:37:30Z</time></trkpt>
<trkpt lat="46.193878976628184" lon="7.16474094428122"><ele></ele><time>2015-11-5T8:37:33Z</time></trkpt>
<trkpt lat="46.19393396191299" lon="7.164708925411105"><ele></ele><time>2015-11-5T8:37:36Z</time></trkpt>
<trkpt lat="46.1939939763397" lon="7.164609935134649"><ele></ele><time>2015-11-5T8:37:39Z</time></trkpt>
<trkpt lat="46.1937849316746" lon="7.164379935711622"><ele></ele><time>2015-11-5T8:37:42Z</time></trkpt>
<trkpt lat="46.193754924461246" lon="7.164175920188427"><ele></ele><time>2015-11-5T8:37:45Z</time></trkpt>
<trkpt lat="46.193754924461246" lon="7.1639669593423605"><ele></ele><time>2015-11-5T8:37:48Z</time></trkpt>
<trkpt lat="46.193754924461246" lon="7.163758920505643"><ele></ele><time>2015-11-5T8:37:51Z</time></trkpt>
<trkpt lat="46.19376498274505" lon="7.163577955216169"><ele></ele><time>2015-11-5T8:37:54Z</time></trkpt>
<trkpt lat="46.193774957209826" lon="7.163452981039882"><ele></ele><time>2015-11-5T8:37:57Z</time></trkpt>
<trkpt lat="46.19376498274505" lon="7.163338987156749"><ele></ele><time>2015-11-5T8:38:0Z</time></trkpt>
<trkpt lat="46.19374796748161" lon="7.163217952474952"><ele></ele><time>2015-11-5T8:38:3Z</time></trkpt>
<trkpt lat="46.19372692890465" lon="7.163102952763438"><ele></ele><time>2015-11-5T8:38:6Z</time></trkpt>
<trkpt lat="46.19369298219681" lon="7.16295694001019"><ele></ele><time>2015-11-5T8:38:9Z</time></trkpt>
<trkpt lat="46.19365392252803" lon="7.162825930863619"><ele></ele><time>2015-11-5T8:38:12Z</time></trkpt>
<trkpt lat="46.19360991753638" lon="7.162682935595512"><ele></ele><time>2015-11-5T8:38:15Z</time></trkpt>
<trkpt lat="46.19356197305024" lon="7.162527954205871"><ele></ele><time>2015-11-5T8:38:18Z</time></trkpt>
<trkpt lat="46.19351897388697" lon="7.162441955879331"><ele></ele><time>2015-11-5T8:38:21Z</time></trkpt>
<trkpt lat="46.19344395585358" lon="7.162347994744778"><ele></ele><time>2015-11-5T8:38:24Z</time></trkpt>
<trkpt lat="46.193362986668944" lon="7.162280939519405"><ele></ele><time>2015-11-5T8:38:27Z</time></trkpt>
<trkpt lat="46.19328495115042" lon="7.162221930921078"><ele></ele><time>2015-11-5T8:38:30Z</time></trkpt>
<trkpt lat="46.193215968087316" lon="7.162168957293034"><ele></ele><time>2015-11-5T8:38:33Z</time></trkpt>
<trkpt lat="46.19313994422555" lon="7.1621109545230865"><ele></ele><time>2015-11-5T8:38:36Z</time></trkpt>
<trkpt lat="46.19308294728398" lon="7.1620679553598166"><ele></ele><time>2015-11-5T8:38:39Z</time></trkpt>
<trkpt lat="46.193065932020545" lon="7.162054963409901"><ele></ele><time>2015-11-5T8:38:42Z</time></trkpt>
<trkpt lat="46.19296895340085" lon="7.16198799200356"><ele></ele><time>2015-11-5T8:38:45Z</time></trkpt>
<trkpt lat="46.19288396090269" lon="7.161969970911741"><ele></ele><time>2015-11-5T8:38:48Z</time></trkpt>
<trkpt lat="46.192807937040925" lon="7.161953961476684"><ele></ele><time>2015-11-5T8:38:51Z</time></trkpt>
<trkpt lat="46.19272797368467" lon="7.161936946213245"><ele></ele><time>2015-11-5T8:38:54Z</time></trkpt>
<trkpt lat="46.19267298839986" lon="7.161926971748471"><ele></ele><time>2015-11-5T8:38:57Z</time></trkpt>
<trkpt lat="46.19255899451673" lon="7.161926971748471"><ele></ele><time>2015-11-5T8:39:0Z</time></trkpt>
<trkpt lat="46.192464949563146" lon="7.1619319170713425"><ele></ele><time>2015-11-5T8:39:3Z</time></trkpt>
<trkpt lat="46.192376939579844" lon="7.161941975355148"><ele></ele><time>2015-11-5T8:39:6Z</time></trkpt>
<trkpt lat="46.192269986495376" lon="7.161960918456316"><ele></ele><time>2015-11-5T8:39:9Z</time></trkpt>
<trkpt lat="46.19219597429037" lon="7.161981957033277"><ele></ele><time>2015-11-5T8:39:12Z</time></trkpt>
<trkpt lat="46.19211693294346" lon="7.162008946761489"><ele></ele><time>2015-11-5T8:39:15Z</time></trkpt>
<trkpt lat="46.19200193323195" lon="7.1620449889451265"><ele></ele><time>2015-11-5T8:39:18Z</time></trkpt>
<trkpt lat="46.19197896681726" lon="7.162051945924759"><ele></ele><time>2015-11-5T8:39:21Z</time></trkpt>
<trkpt lat="46.19198097847402" lon="7.161898976191878"><ele></ele><time>2015-11-5T8:39:24Z</time></trkpt>
<trkpt lat="46.19199899956584" lon="7.1618809551000595"><ele></ele><time>2015-11-5T8:39:27Z</time></trkpt>
<trkpt lat="46.19199899956584" lon="7.1618809551000595"><ele></ele><time>2015-11-5T8:39:30Z</time></trkpt>
<trkpt lat="46.19199899956584" lon="7.1618809551000595"><ele></ele><time>2015-11-5T8:39:33Z</time></trkpt>
<trkpt lat="46.19208994321525" lon="7.161810966208577"><ele></ele><time>2015-11-5T8:39:36Z</time></trkpt>
<trkpt lat="46.19210595265031" lon="7.161797974258661"><ele></ele><time>2015-11-5T8:39:39Z</time></trkpt>
<trkpt lat="46.192162949591875" lon="7.161753969267011"><ele></ele><time>2015-11-5T8:39:42Z</time></trkpt>
<trkpt lat="46.192229920998216" lon="7.161703929305077"><ele></ele><time>2015-11-5T8:39:45Z</time></trkpt>
<trkpt lat="46.192268980666995" lon="7.1616739220917225"><ele></ele><time>2015-11-5T8:39:48Z</time></trkpt>
<trkpt lat="46.19238398037851" lon="7.161601921543479"><ele></ele><time>2015-11-5T8:39:51Z</time></trkpt>
<trkpt lat="46.19241499342024" lon="7.161596976220608"><ele></ele><time>2015-11-5T8:39:54Z</time></trkpt>
<trkpt lat="46.19250099174678" lon="7.161582978442311"><ele></ele><time>2015-11-5T8:39:57Z</time></trkpt>
<trkpt lat="46.192567963153124" lon="7.161572920158505"><ele></ele><time>2015-11-5T8:40:0Z</time></trkpt>
<trkpt lat="46.19266896508634" lon="7.1615569945424795"><ele></ele><time>2015-11-5T8:40:3Z</time></trkpt>
<trkpt lat="46.19275094009936" lon="7.161543918773532"><ele></ele><time>2015-11-5T8:40:6Z</time></trkpt>
<trkpt lat="46.192889995872974" lon="7.161540985107422"><ele></ele><time>2015-11-5T8:40:9Z</time></trkpt>
<trkpt lat="46.19298898614943" lon="7.161535955965519"><ele></ele><time>2015-11-5T8:40:12Z</time></trkpt>
<trkpt lat="46.193083953112364" lon="7.161526987329125"><ele></ele><time>2015-11-5T8:40:15Z</time></trkpt>
<trkpt lat="46.19313893839717" lon="7.1615219581872225"><ele></ele><time>2015-11-5T8:40:18Z</time></trkpt>
<trkpt lat="46.19322191923857" lon="7.1615139953792095"><ele></ele><time>2015-11-5T8:40:21Z</time></trkpt>
<trkpt lat="46.19331294670701" lon="7.161505948752165"><ele></ele><time>2015-11-5T8:40:24Z</time></trkpt>
<trkpt lat="46.193384947255254" lon="7.1614989917725325"><ele></ele><time>2015-11-5T8:40:27Z</time></trkpt>
<trkpt lat="46.193495923653245" lon="7.161492956802249"><ele></ele><time>2015-11-5T8:40:30Z</time></trkpt>
<trkpt lat="46.193563984707" lon="7.161489939317107"><ele></ele><time>2015-11-5T8:40:33Z</time></trkpt>
<trkpt lat="46.19359399192035" lon="7.161488933488727"><ele></ele><time>2015-11-5T8:40:36Z</time></trkpt>
<trkpt lat="46.19369893334806" lon="7.161484993994236"><ele></ele><time>2015-11-5T8:40:39Z</time></trkpt>
<trkpt lat="46.193774957209826" lon="7.161480970680714"><ele></ele><time>2015-11-5T8:40:42Z</time></trkpt>
<trkpt lat="46.19390998966992" lon="7.161484993994236"><ele></ele><time>2015-11-5T8:40:45Z</time></trkpt>
<trkpt lat="46.194052984938025" lon="7.161546936258674"><ele></ele><time>2015-11-5T8:40:48Z</time></trkpt>
<trkpt lat="46.194155998528004" lon="7.161634946241975"><ele></ele><time>2015-11-5T8:40:51Z</time></trkpt>
<trkpt lat="46.19421894662082" lon="7.161755980923772"><ele></ele><time>2015-11-5T8:40:54Z</time></trkpt>
<trkpt lat="46.19429597631097" lon="7.161883972585201"><ele></ele><time>2015-11-5T8:40:57Z</time></trkpt>
<trkpt lat="46.19435699656606" lon="7.162008946761489"><ele></ele><time>2015-11-5T8:41:0Z</time></trkpt>
<trkpt lat="46.19436093606055" lon="7.162020932883024"><ele></ele><time>2015-11-5T8:41:3Z</time></trkpt>
<trkpt lat="46.194375939667225" lon="7.162063932046294"><ele></ele><time>2015-11-5T8:41:6Z</time></trkpt>
<trkpt lat="46.19441592134535" lon="7.162171974778175"><ele></ele><time>2015-11-5T8:41:9Z</time></trkpt>
<trkpt lat="46.1944429948926" lon="7.162290997803211"><ele></ele><time>2015-11-5T8:41:12Z</time></trkpt>
<trkpt lat="46.194481970742345" lon="7.162476992234588"><ele></ele><time>2015-11-5T8:41:15Z</time></trkpt>
<trkpt lat="46.194524969905615" lon="7.162678996101022"><ele></ele><time>2015-11-5T8:41:18Z</time></trkpt>
<trkpt lat="46.194610968232155" lon="7.162946965545416"><ele></ele><time>2015-11-5T8:41:21Z</time></trkpt>
<trkpt lat="46.19477592408657" lon="7.163007985800505"><ele></ele><time>2015-11-5T8:41:24Z</time></trkpt>
<trkpt lat="46.19483593851328" lon="7.1629199758172035"><ele></ele><time>2015-11-5T8:41:27Z</time></trkpt>
<trkpt lat="46.194912968203425" lon="7.162746973335743"><ele></ele><time>2015-11-5T8:41:30Z</time></trkpt>
<trkpt lat="46.194977927953005" lon="7.162549998611212"><ele></ele><time>2015-11-5T8:41:33Z</time></trkpt>
<trkpt lat="46.1950799357146" lon="7.162346988916397"><ele></ele><time>2015-11-5T8:41:36Z</time></trkpt>
<trkpt lat="46.19517699815333" lon="7.162228971719742"><ele></ele><time>2015-11-5T8:41:39Z</time></trkpt>
<trkpt lat="46.19530197232962" lon="7.162043983116746"><ele></ele><time>2015-11-5T8:41:42Z</time></trkpt>
<trkpt lat="46.1953579634428" lon="7.161886990070343"><ele></ele><time>2015-11-5T8:41:45Z</time></trkpt>
<trkpt lat="46.19541596621275" lon="7.161720944568515"><ele></ele><time>2015-11-5T8:41:48Z</time></trkpt>
<trkpt lat="46.19549794122577" lon="7.161558922380209"><ele></ele><time>2015-11-5T8:41:51Z</time></trkpt>
<trkpt lat="46.19557396508753" lon="7.1614509634673595"><ele></ele><time>2015-11-5T8:41:54Z</time></trkpt>
<trkpt lat="46.19567999616265" lon="7.161352979019284"><ele></ele><time>2015-11-5T8:41:57Z</time></trkpt>
<trkpt lat="46.19578099809587" lon="7.16127896681428"><ele></ele><time>2015-11-5T8:42:0Z</time></trkpt>
<trkpt lat="46.19592793285847" lon="7.161170924082398"><ele></ele><time>2015-11-5T8:42:3Z</time></trkpt>
<trkpt lat="46.1960469558835" lon="7.161085931584239"><ele></ele><time>2015-11-5T8:42:6Z</time></trkpt>
<trkpt lat="46.19615198113024" lon="7.161015942692757"><ele></ele><time>2015-11-5T8:42:9Z</time></trkpt>
<trkpt lat="46.196288941428065" lon="7.160923993214965"><ele></ele><time>2015-11-5T8:42:12Z</time></trkpt>
<trkpt lat="46.196394972503185" lon="7.160853920504451"><ele></ele><time>2015-11-5T8:42:15Z</time></trkpt>
<trkpt lat="46.19648993946612" lon="7.160772951319814"><ele></ele><time>2015-11-5T8:42:18Z</time></trkpt>
<trkpt lat="46.196634946390986" lon="7.160648982971907"><ele></ele><time>2015-11-5T8:42:21Z</time></trkpt>
<trkpt lat="46.19676595553756" lon="7.160582933574915"><ele></ele><time>2015-11-5T8:42:24Z</time></trkpt>
<trkpt lat="46.19688296690583" lon="7.160574970766902"><ele></ele><time>2015-11-5T8:42:27Z</time></trkpt>
<trkpt lat="46.197020933032036" lon="7.160573964938521"><ele></ele><time>2015-11-5T8:42:30Z</time></trkpt>
<trkpt lat="46.19716392830014" lon="7.160511938855052"><ele></ele><time>2015-11-5T8:42:33Z</time></trkpt>
<trkpt lat="46.19728898629546" lon="7.160520991310477"><ele></ele><time>2015-11-5T8:42:36Z</time></trkpt>
<trkpt lat="46.197359981015325" lon="7.160617969930172"><ele></ele><time>2015-11-5T8:42:39Z</time></trkpt>
<trkpt lat="46.19735394604504" lon="7.160782925784588"><ele></ele><time>2015-11-5T8:42:42Z</time></trkpt>
<trkpt lat="46.1973369307816" lon="7.1609479654580355"><ele></ele><time>2015-11-5T8:42:45Z</time></trkpt>
<trkpt lat="46.197274988517165" lon="7.16121694073081"><ele></ele><time>2015-11-5T8:42:48Z</time></trkpt>
<trkpt lat="46.197231989353895" lon="7.161442916840315"><ele></ele><time>2015-11-5T8:42:51Z</time></trkpt>
<trkpt lat="46.197209944948554" lon="7.161747934296727"><ele></ele><time>2015-11-5T8:42:54Z</time></trkpt>
<trkpt lat="46.19726099073887" lon="7.162049934267998"><ele></ele><time>2015-11-5T8:42:57Z</time></trkpt>
<trkpt lat="46.19733399711549" lon="7.162280939519405"><ele></ele><time>2015-11-5T8:43:0Z</time></trkpt>
<trkpt lat="46.197450924664736" lon="7.162415971979499"><ele></ele><time>2015-11-5T8:43:3Z</time></trkpt>
<trkpt lat="46.19767296127975" lon="7.162502976134419"><ele></ele><time>2015-11-5T8:43:6Z</time></trkpt>
<trkpt lat="46.19787295348942" lon="7.162481937557459"><ele></ele><time>2015-11-5T8:43:9Z</time></trkpt>
<trkpt lat="46.19802491739392" lon="7.162458971142769"><ele></ele><time>2015-11-5T8:43:12Z</time></trkpt>
<trkpt lat="46.198202949017286" lon="7.162438938394189"><ele></ele><time>2015-11-5T8:43:15Z</time></trkpt>
<trkpt lat="46.19846798479557" lon="7.162443967536092"><ele></ele><time>2015-11-5T8:43:18Z</time></trkpt>
<trkpt lat="46.198693960905075" lon="7.162492917850614"><ele></ele><time>2015-11-5T8:43:21Z</time></trkpt>
<trkpt lat="46.198847936466336" lon="7.162518985569477"><ele></ele><time>2015-11-5T8:43:24Z</time></trkpt>
<trkpt lat="46.1990449950099" lon="7.16254698112607"><ele></ele><time>2015-11-5T8:43:27Z</time></trkpt>
<trkpt lat="46.19913493283093" lon="7.162528960034251"><ele></ele><time>2015-11-5T8:43:30Z</time></trkpt>
<trkpt lat="46.19929293170571" lon="7.16248394921422"><ele></ele><time>2015-11-5T8:43:33Z</time></trkpt>
<trkpt lat="46.19943399913609" lon="7.16241798363626"><ele></ele><time>2015-11-5T8:43:36Z</time></trkpt>
<trkpt lat="46.19955092668533" lon="7.162398956716061"><ele></ele><time>2015-11-5T8:43:39Z</time></trkpt>
<trkpt lat="46.199677996337414" lon="7.162398956716061"><ele></ele><time>2015-11-5T8:43:42Z</time></trkpt>
<trkpt lat="46.19984898716211" lon="7.162313964217901"><ele></ele><time>2015-11-5T8:43:45Z</time></trkpt>
<trkpt lat="46.19999893940985" lon="7.16216292232275"><ele></ele><time>2015-11-5T8:43:48Z</time></trkpt>
<trkpt lat="46.20013891719282" lon="7.161994948983192"><ele></ele><time>2015-11-5T8:43:51Z</time></trkpt>
<trkpt lat="46.200260957702994" lon="7.161855977028608"><ele></ele><time>2015-11-5T8:43:54Z</time></trkpt>
<trkpt lat="46.20037595741451" lon="7.161733936518431"><ele></ele><time>2015-11-5T8:43:57Z</time></trkpt>
<trkpt lat="46.200518952682614" lon="7.161581972613931"><ele></ele><time>2015-11-5T8:44:0Z</time></trkpt>
<trkpt lat="46.2006629537791" lon="7.161429924890399"><ele></ele><time>2015-11-5T8:44:3Z</time></trkpt>
<trkpt lat="46.200821958482265" lon="7.161260945722461"><ele></ele><time>2015-11-5T8:44:6Z</time></trkpt>
<trkpt lat="46.20094299316406" lon="7.161124991253018"><ele></ele><time>2015-11-5T8:44:9Z</time></trkpt>
<trkpt lat="46.20104592293501" lon="7.160959951579571"><ele></ele><time>2015-11-5T8:44:12Z</time></trkpt>
<trkpt lat="46.20115094818175" lon="7.160718971863389"><ele></ele><time>2015-11-5T8:44:15Z</time></trkpt>
<trkpt lat="46.20126795955002" lon="7.1605259366333485"><ele></ele><time>2015-11-5T8:44:18Z</time></trkpt>
<trkpt lat="46.201358987018466" lon="7.160401968285441"><ele></ele><time>2015-11-5T8:44:21Z</time></trkpt>
<trkpt lat="46.201483961194754" lon="7.16027095913887"><ele></ele><time>2015-11-5T8:44:24Z</time></trkpt>
<trkpt lat="46.20160692371428" lon="7.160142967477441"><ele></ele><time>2015-11-5T8:44:27Z</time></trkpt>
<trkpt lat="46.201718989759684" lon="7.160002989694476"><ele></ele><time>2015-11-5T8:44:30Z</time></trkpt>
<trkpt lat="46.201831977814436" lon="7.159838955849409"><ele></ele><time>2015-11-5T8:44:33Z</time></trkpt>
<trkpt lat="46.201916970312595" lon="7.159706940874457"><ele></ele><time>2015-11-5T8:44:36Z</time></trkpt>
<trkpt lat="46.20198494754732" lon="7.159611973911524"><ele></ele><time>2015-11-5T8:44:39Z</time></trkpt>
<trkpt lat="46.20208393782377" lon="7.159522958099842"><ele></ele><time>2015-11-5T8:44:42Z</time></trkpt>
<trkpt lat="46.20220296084881" lon="7.159462943673134"><ele></ele><time>2015-11-5T8:44:45Z</time></trkpt>
<trkpt lat="46.20233497582376" lon="7.159396978095174"><ele></ele><time>2015-11-5T8:44:48Z</time></trkpt>
<trkpt lat="46.20246992446482" lon="7.159253982827067"><ele></ele><time>2015-11-5T8:44:51Z</time></trkpt>
<trkpt lat="46.20254997164011" lon="7.1591199561953545"><ele></ele><time>2015-11-5T8:44:54Z</time></trkpt>
<trkpt lat="46.20263094082475" lon="7.158929938450456"><ele></ele><time>2015-11-5T8:44:57Z</time></trkpt>
<trkpt lat="46.202711993828416" lon="7.158714942634106"><ele></ele><time>2015-11-5T8:45:0Z</time></trkpt>
<trkpt lat="46.20275893248618" lon="7.158584939315915"><ele></ele><time>2015-11-5T8:45:3Z</time></trkpt>
<trkpt lat="46.2028369680047" lon="7.1583689376711845"><ele></ele><time>2015-11-5T8:45:6Z</time></trkpt>
<trkpt lat="46.2029009219259" lon="7.158192917704582"><ele></ele><time>2015-11-5T8:45:9Z</time></trkpt>
<trkpt lat="46.202971916645765" lon="7.157995942980051"><ele></ele><time>2015-11-5T8:45:12Z</time></trkpt>
<trkpt lat="46.20303696021438" lon="7.157830987125635"><ele></ele><time>2015-11-5T8:45:15Z</time></trkpt>
<trkpt lat="46.20312597602606" lon="7.157689919695258"><ele></ele><time>2015-11-5T8:45:18Z</time></trkpt>
<trkpt lat="46.20321993716061" lon="7.1575419791042805"><ele></ele><time>2015-11-5T8:45:21Z</time></trkpt>
<trkpt lat="46.2032999843359" lon="7.157407952472568"><ele></ele><time>2015-11-5T8:45:24Z</time></trkpt>
<trkpt lat="46.20337299071252" lon="7.157221958041191"><ele></ele><time>2015-11-5T8:45:27Z</time></trkpt>
<trkpt lat="46.2034329213202" lon="7.156968992203474"><ele></ele><time>2015-11-5T8:45:30Z</time></trkpt>
<trkpt lat="46.2034329213202" lon="7.156860949471593"><ele></ele><time>2015-11-5T8:45:33Z</time></trkpt>
<trkpt lat="46.2034329213202" lon="7.156661963090301"><ele></ele><time>2015-11-5T8:45:36Z</time></trkpt>
<trkpt lat="46.2034329213202" lon="7.156557943671942"><ele></ele><time>2015-11-5T8:45:39Z</time></trkpt>
<trkpt lat="46.2034329213202" lon="7.156444955617189"><ele></ele><time>2015-11-5T8:45:42Z</time></trkpt>
<trkpt lat="46.20341196656227" lon="7.156266923993826"><ele></ele><time>2015-11-5T8:45:45Z</time></trkpt>
<trkpt lat="46.2035399582237" lon="7.155918991193175"><ele></ele><time>2015-11-5T8:45:48Z</time></trkpt>
<trkpt lat="46.20365395210683" lon="7.155897952616215"><ele></ele><time>2015-11-5T8:45:51Z</time></trkpt>
<trkpt lat="46.20373299345374" lon="7.155789993703365"><ele></ele><time>2015-11-5T8:45:54Z</time></trkpt>
<trkpt lat="46.203808933496475" lon="7.155540967360139"><ele></ele><time>2015-11-5T8:45:57Z</time></trkpt>
<trkpt lat="46.203871965408325" lon="7.155332928523421"><ele></ele><time>2015-11-5T8:46:0Z</time></trkpt>
<trkpt lat="46.20403499342501" lon="7.155163949355483"><ele></ele><time>2015-11-5T8:46:3Z</time></trkpt>
<trkpt lat="46.204147981479764" lon="7.155117932707071"><ele></ele><time>2015-11-5T8:46:6Z</time></trkpt>
<trkpt lat="46.2043119315058" lon="7.154995976015925"><ele></ele><time>2015-11-5T8:46:9Z</time></trkpt>
<trkpt lat="46.20442098006606" lon="7.154822973534465"><ele></ele><time>2015-11-5T8:46:12Z</time></trkpt>
<trkpt lat="46.20460596866906" lon="7.154688946902752"><ele></ele><time>2015-11-5T8:46:15Z</time></trkpt>
<trkpt lat="46.20473496615887" lon="7.154634967446327"><ele></ele><time>2015-11-5T8:46:18Z</time></trkpt>
<trkpt lat="46.20488894172013" lon="7.154529942199588"><ele></ele><time>2015-11-5T8:46:21Z</time></trkpt>
<trkpt lat="46.204925989732146" lon="7.154442938044667"><ele></ele><time>2015-11-5T8:46:24Z</time></trkpt>
<trkpt lat="46.20496395975351" lon="7.15431796386838"><ele></ele><time>2015-11-5T8:46:27Z</time></trkpt>
<trkpt lat="46.2052649538964" lon="7.154282927513123"><ele></ele><time>2015-11-5T8:46:30Z</time></trkpt>
<trkpt lat="46.205396968871355" lon="7.154050916433334"><ele></ele><time>2015-11-5T8:46:33Z</time></trkpt>
<trkpt lat="46.20547098107636" lon="7.153944969177246"><ele></ele><time>2015-11-5T8:46:36Z</time></trkpt>
<trkpt lat="46.20547098107636" lon="7.153944969177246"><ele></ele><time>2015-11-5T8:46:39Z</time></trkpt>
<trkpt lat="46.20547098107636" lon="7.153944969177246"><ele></ele><time>2015-11-5T8:46:42Z</time></trkpt>
<trkpt lat="46.20547098107636" lon="7.153944969177246"><ele></ele><time>2015-11-5T8:46:45Z</time></trkpt>
<trkpt lat="46.20609199628234" lon="7.154179997742176"><ele></ele><time>2015-11-5T8:46:48Z</time></trkpt>
<trkpt lat="46.206082943826914" lon="7.1542369946837425"><ele></ele><time>2015-11-5T8:46:51Z</time></trkpt>
<trkpt lat="46.20600298047066" lon="7.154531953856349"><ele></ele><time>2015-11-5T8:46:54Z</time></trkpt>
<trkpt lat="46.205956963822246" lon="7.154640918597579"><ele></ele><time>2015-11-5T8:46:57Z</time></trkpt>
<trkpt lat="46.20572897605598" lon="7.154824985191226"><ele></ele><time>2015-11-5T8:47:0Z</time></trkpt>
<trkpt lat="46.20581497438252" lon="7.1547959838062525"><ele></ele><time>2015-11-5T8:47:3Z</time></trkpt>
<trkpt lat="46.20588596910238" lon="7.154781986027956"><ele></ele><time>2015-11-5T8:47:6Z</time></trkpt>
<trkpt lat="46.20589996688068" lon="7.154781986027956"><ele></ele><time>2015-11-5T8:47:9Z</time></trkpt>
<trkpt lat="46.206039944663644" lon="7.154441932216287"><ele></ele><time>2015-11-5T8:47:12Z</time></trkpt>
<trkpt lat="46.2060059979558" lon="7.1545229852199554"><ele></ele><time>2015-11-5T8:47:15Z</time></trkpt>
<trkpt lat="46.20589996688068" lon="7.154781986027956"><ele></ele><time>2015-11-5T8:47:18Z</time></trkpt>
<trkpt lat="46.20589996688068" lon="7.154781986027956"><ele></ele><time>2015-11-5T8:47:21Z</time></trkpt>
<trkpt lat="46.20553392916918" lon="7.154997987672687"><ele></ele><time>2015-11-5T8:47:24Z</time></trkpt>
<trkpt lat="46.205290937796235" lon="7.155355978757143"><ele></ele><time>2015-11-5T8:47:27Z</time></trkpt>
<trkpt lat="46.20525497943163" lon="7.155440971255302"><ele></ele><time>2015-11-5T8:47:30Z</time></trkpt>
<trkpt lat="46.20525497943163" lon="7.155440971255302"><ele></ele><time>2015-11-5T8:47:33Z</time></trkpt>
<trkpt lat="46.205226983875036" lon="7.155512971803546"><ele></ele><time>2015-11-5T8:47:36Z</time></trkpt>
<trkpt lat="46.205159928649664" lon="7.155683962628245"><ele></ele><time>2015-11-5T8:47:39Z</time></trkpt>
<trkpt lat="46.20506295002997" lon="7.155887978151441"><ele></ele><time>2015-11-5T8:47:42Z</time></trkpt>
<trkpt lat="46.20517099276185" lon="7.156214956194162"><ele></ele><time>2015-11-5T8:47:45Z</time></trkpt>
<trkpt lat="46.20517099276185" lon="7.15642592869699"><ele></ele><time>2015-11-5T8:47:48Z</time></trkpt>
<trkpt lat="46.20517099276185" lon="7.156527936458588"><ele></ele><time>2015-11-5T8:47:51Z</time></trkpt>
<trkpt lat="46.20515397749841" lon="7.156690964475274"><ele></ele><time>2015-11-5T8:47:54Z</time></trkpt>
<trkpt lat="46.20510494336486" lon="7.15691895224154"><ele></ele><time>2015-11-5T8:47:57Z</time></trkpt>
<trkpt lat="46.20508792810142" lon="7.1569909527897835"><ele></ele><time>2015-11-5T8:48:0Z</time></trkpt>
<trkpt lat="46.20506295002997" lon="7.157274931669235"><ele></ele><time>2015-11-5T8:48:3Z</time></trkpt>
<trkpt lat="46.20506295002997" lon="7.157527981325984"><ele></ele><time>2015-11-5T8:48:6Z</time></trkpt>
<trkpt lat="46.20508398860693" lon="7.157832998782396"><ele></ele><time>2015-11-5T8:48:9Z</time></trkpt>
<trkpt lat="46.20508993975818" lon="7.1579009760171175"><ele></ele><time>2015-11-5T8:48:12Z</time></trkpt>
<trkpt lat="46.204903945326805" lon="7.158536994829774"><ele></ele><time>2015-11-5T8:48:15Z</time></trkpt>
<trkpt lat="46.20433397591114" lon="7.157442988827825"><ele></ele><time>2015-11-5T8:48:18Z</time></trkpt>
<trkpt lat="46.20508398860693" lon="7.157835932448506"><ele></ele><time>2015-11-5T8:48:21Z</time></trkpt>
<trkpt lat="46.205075941979885" lon="7.15771296992898"><ele></ele><time>2015-11-5T8:48:24Z</time></trkpt>
<trkpt lat="46.20521994307637" lon="7.1577289793640375"><ele></ele><time>2015-11-5T8:48:27Z</time></trkpt>
<trkpt lat="46.20508197695017" lon="7.157811960205436"><ele></ele><time>2015-11-5T8:48:30Z</time></trkpt>
<trkpt lat="46.2051129899919" lon="7.158116977661848"><ele></ele><time>2015-11-5T8:48:33Z</time></trkpt>
<trkpt lat="46.20513193309307" lon="7.158307917416096"><ele></ele><time>2015-11-5T8:48:36Z</time></trkpt>
<trkpt lat="46.20515397749841" lon="7.158586950972676"><ele></ele><time>2015-11-5T8:48:39Z</time></trkpt>
<trkpt lat="46.205156994983554" lon="7.158652916550636"><ele></ele><time>2015-11-5T8:48:42Z</time></trkpt>
<trkpt lat="46.20486999861896" lon="7.1590339578688145"><ele></ele><time>2015-11-5T8:48:45Z</time></trkpt>
<trkpt lat="46.20490998029709" lon="7.159155998378992"><ele></ele><time>2015-11-5T8:48:48Z</time></trkpt>
<trkpt lat="46.20493294671178" lon="7.159158932045102"><ele></ele><time>2015-11-5T8:48:51Z</time></trkpt>
<trkpt lat="46.20502296835184" lon="7.159158932045102"><ele></ele><time>2015-11-5T8:48:54Z</time></trkpt>
<trkpt lat="46.205156994983554" lon="7.159061953425407"><ele></ele><time>2015-11-5T8:48:57Z</time></trkpt>
<trkpt lat="46.20518893003464" lon="7.158932955935597"><ele></ele><time>2015-11-5T8:49:0Z</time></trkpt>
<trkpt lat="46.20530099608004" lon="7.158465916290879"><ele></ele><time>2015-11-5T8:49:3Z</time></trkpt>
<trkpt lat="46.20543292723596" lon="7.158008934929967"><ele></ele><time>2015-11-5T8:49:6Z</time></trkpt>
<trkpt lat="46.205548932775855" lon="7.157597970217466"><ele></ele><time>2015-11-5T8:49:9Z</time></trkpt>
<trkpt lat="46.20560592971742" lon="7.157344920560718"><ele></ele><time>2015-11-5T8:49:12Z</time></trkpt>
<trkpt lat="46.20577197521925" lon="7.157012997195125"><ele></ele><time>2015-11-5T8:49:15Z</time></trkpt>
<trkpt lat="46.205785972997546" lon="7.1569849178195"><ele></ele><time>2015-11-5T8:49:18Z</time></trkpt>
<trkpt lat="46.20600993745029" lon="7.157051973044872"><ele></ele><time>2015-11-5T8:49:21Z</time></trkpt>
<trkpt lat="46.20603499934077" lon="7.157078962773085"><ele></ele><time>2015-11-5T8:49:24Z</time></trkpt>
<trkpt lat="46.20607196353376" lon="7.157120956107974"><ele></ele><time>2015-11-5T8:49:27Z</time></trkpt>
<trkpt lat="46.20604799129069" lon="7.1574709843844175"><ele></ele><time>2015-11-5T8:49:30Z</time></trkpt>
<trkpt lat="46.20602896437049" lon="7.157874992117286"><ele></ele><time>2015-11-5T8:49:33Z</time></trkpt>
<trkpt lat="46.206189980730414" lon="7.15827296487987"><ele></ele><time>2015-11-5T8:49:36Z</time></trkpt>
<trkpt lat="46.20622199960053" lon="7.158686947077513"><ele></ele><time>2015-11-5T8:49:39Z</time></trkpt>
<trkpt lat="46.20621898211539" lon="7.158911917358637"><ele></ele><time>2015-11-5T8:49:42Z</time></trkpt>
<trkpt lat="46.20620196685195" lon="7.159153986722231"><ele></ele><time>2015-11-5T8:49:45Z</time></trkpt>
<trkpt lat="46.20622099377215" lon="7.159462943673134"><ele></ele><time>2015-11-5T8:49:48Z</time></trkpt>
<trkpt lat="46.20622199960053" lon="7.1595569886267185"><ele></ele><time>2015-11-5T8:49:51Z</time></trkpt>
<trkpt lat="46.20622199960053" lon="7.159845996648073"><ele></ele><time>2015-11-5T8:49:54Z</time></trkpt>
<trkpt lat="46.206192998215556" lon="7.1600759960711"><ele></ele><time>2015-11-5T8:49:57Z</time></trkpt>
<trkpt lat="46.20615896768868" lon="7.160397944971919"><ele></ele><time>2015-11-5T8:50:0Z</time></trkpt>
<trkpt lat="46.2061249371618" lon="7.160532977432013"><ele></ele><time>2015-11-5T8:50:3Z</time></trkpt>
<trkpt lat="46.20607196353376" lon="7.160788960754871"><ele></ele><time>2015-11-5T8:50:6Z</time></trkpt>
<trkpt lat="46.205979930236936" lon="7.161138989031315"><ele></ele><time>2015-11-5T8:50:9Z</time></trkpt>
<trkpt lat="46.20592796243727" lon="7.161467978730798"><ele></ele><time>2015-11-5T8:50:12Z</time></trkpt>
<trkpt lat="46.205889992415905" lon="7.161806942895055"><ele></ele><time>2015-11-5T8:50:15Z</time></trkpt>
<trkpt lat="46.205850932747126" lon="7.162025962024927"><ele></ele><time>2015-11-5T8:50:18Z</time></trkpt>
<trkpt lat="46.20573693886399" lon="7.1621739864349365"><ele></ele><time>2015-11-5T8:50:21Z</time></trkpt>
<trkpt lat="46.2055569794029" lon="7.162506999447942"><ele></ele><time>2015-11-5T8:50:24Z</time></trkpt>
<trkpt lat="46.2055569794029" lon="7.162506999447942"><ele></ele><time>2015-11-5T8:50:27Z</time></trkpt>
<trkpt lat="46.20540694333613" lon="7.162943948060274"><ele></ele><time>2015-11-5T8:50:30Z</time></trkpt>
<trkpt lat="46.20540292002261" lon="7.1630999352782965"><ele></ele><time>2015-11-5T8:50:33Z</time></trkpt>
<trkpt lat="46.20532094500959" lon="7.1633219718933105"><ele></ele><time>2015-11-5T8:50:36Z</time></trkpt>
<trkpt lat="46.20527098886669" lon="7.163371928036213"><ele></ele><time>2015-11-5T8:50:39Z</time></trkpt>
<trkpt lat="46.20505993254483" lon="7.16355599462986"><ele></ele><time>2015-11-5T8:50:42Z</time></trkpt>
<trkpt lat="46.20503797195852" lon="7.1635449305176735"><ele></ele><time>2015-11-5T8:50:45Z</time></trkpt>
<trkpt lat="46.20499899610877" lon="7.163326917216182"><ele></ele><time>2015-11-5T8:50:48Z</time></trkpt>
<trkpt lat="46.2049319408834" lon="7.1632359735667706"><ele></ele><time>2015-11-5T8:50:51Z</time></trkpt>
<trkpt lat="46.204904951155186" lon="7.1632359735667706"><ele></ele><time>2015-11-5T8:50:54Z</time></trkpt>
<trkpt lat="46.2047419231385" lon="7.163557922467589"><ele></ele><time>2015-11-5T8:50:57Z</time></trkpt>
<trkpt lat="46.2045569345355" lon="7.163740983232856"><ele></ele><time>2015-11-5T8:51:0Z</time></trkpt>
<trkpt lat="46.204491974785924" lon="7.1639389637857676"><ele></ele><time>2015-11-5T8:51:3Z</time></trkpt>
<trkpt lat="46.204151920974255" lon="7.164109954610467"><ele></ele><time>2015-11-5T8:51:6Z</time></trkpt>
<trkpt lat="46.20396198704839" lon="7.164421929046512"><ele></ele><time>2015-11-5T8:51:9Z</time></trkpt>
<trkpt lat="46.203807927668095" lon="7.164578922092915"><ele></ele><time>2015-11-5T8:51:12Z</time></trkpt>
<trkpt lat="46.20379694737494" lon="7.16458797454834"><ele></ele><time>2015-11-5T8:51:15Z</time></trkpt>
<trkpt lat="46.2038179859519" lon="7.164492923766375"><ele></ele><time>2015-11-5T8:51:18Z</time></trkpt>
<trkpt lat="46.20385696180165" lon="7.1643109526485205"><ele></ele><time>2015-11-5T8:51:21Z</time></trkpt>
<trkpt lat="46.203890992328525" lon="7.164038959890604"><ele></ele><time>2015-11-5T8:51:24Z</time></trkpt>
<trkpt lat="46.20390398427844" lon="7.163919936865568"><ele></ele><time>2015-11-5T8:51:27Z</time></trkpt>
<trkpt lat="46.20387892238796" lon="7.163766967132688"><ele></ele><time>2015-11-5T8:51:30Z</time></trkpt>
<trkpt lat="46.20384396985173" lon="7.163680968806148"><ele></ele><time>2015-11-5T8:51:33Z</time></trkpt>
<trkpt lat="46.203654957935214" lon="7.163881966844201"><ele></ele><time>2015-11-5T8:51:36Z</time></trkpt>
<trkpt lat="46.20360592380166" lon="7.1640449948608875"><ele></ele><time>2015-11-5T8:51:39Z</time></trkpt>
<trkpt lat="46.203508945181966" lon="7.164331991225481"><ele></ele><time>2015-11-5T8:51:42Z</time></trkpt>
<trkpt lat="46.20336293242872" lon="7.1647049859166145"><ele></ele><time>2015-11-5T8:51:45Z</time></trkpt>
<trkpt lat="46.20334591716528" lon="7.1647609770298"><ele></ele><time>2015-11-5T8:51:48Z</time></trkpt>
<trkpt lat="46.203249944373965" lon="7.165081920102239"><ele></ele><time>2015-11-5T8:51:51Z</time></trkpt>
<trkpt lat="46.20319697074592" lon="7.16525592841208"><ele></ele><time>2015-11-5T8:51:54Z</time></trkpt>
<trkpt lat="46.20307291857898" lon="7.165549965575337"><ele></ele><time>2015-11-5T8:51:57Z</time></trkpt>
<trkpt lat="46.20297795161605" lon="7.165592964738607"><ele></ele><time>2015-11-5T8:52:0Z</time></trkpt>
<trkpt lat="46.20269891805947" lon="7.16572699137032"><ele></ele><time>2015-11-5T8:52:3Z</time></trkpt>
<trkpt lat="46.20259297080338" lon="7.1657799649983644"><ele></ele><time>2015-11-5T8:52:6Z</time></trkpt>
<trkpt lat="46.20240597054362" lon="7.165833944454789"><ele></ele><time>2015-11-5T8:52:9Z</time></trkpt>
<trkpt lat="46.202300945296884" lon="7.165853977203369"><ele></ele><time>2015-11-5T8:52:12Z</time></trkpt>
<trkpt lat="46.20201495476067" lon="7.165906950831413"><ele></ele><time>2015-11-5T8:52:15Z</time></trkpt>
<trkpt lat="46.20201495476067" lon="7.165906950831413"><ele></ele><time>2015-11-5T8:52:18Z</time></trkpt>
<trkpt lat="46.20204797945917" lon="7.1659009996801615"><ele></ele><time>2015-11-5T8:52:21Z</time></trkpt>
<trkpt lat="46.20224596001208" lon="7.165863951668143"><ele></ele><time>2015-11-5T8:52:24Z</time></trkpt>
<trkpt lat="46.20227496139705" lon="7.165676951408386"><ele></ele><time>2015-11-5T8:52:27Z</time></trkpt>
<trkpt lat="46.20239599607885" lon="7.1655599400401115"><ele></ele><time>2015-11-5T8:52:30Z</time></trkpt>
<trkpt lat="46.20226993225515" lon="7.165530938655138"><ele></ele><time>2015-11-5T8:52:33Z</time></trkpt>
<trkpt lat="46.202259957790375" lon="7.165507972240448"><ele></ele><time>2015-11-5T8:52:36Z</time></trkpt>
<trkpt lat="46.20225199498236" lon="7.165488945320249"><ele></ele><time>2015-11-5T8:52:39Z</time></trkpt>
<trkpt lat="46.202175971120596" lon="7.1654689963907"><ele></ele><time>2015-11-5T8:52:42Z</time></trkpt>
<trkpt lat="46.201938930898905" lon="7.165488945320249"><ele></ele><time>2015-11-5T8:52:45Z</time></trkpt>
<trkpt lat="46.20174991898239" lon="7.165441922843456"><ele></ele><time>2015-11-5T8:52:48Z</time></trkpt>
<trkpt lat="46.20160097256303" lon="7.165443934500217"><ele></ele><time>2015-11-5T8:52:51Z</time></trkpt>
<trkpt lat="46.20154397562146" lon="7.165445946156979"><ele></ele><time>2015-11-5T8:52:54Z</time></trkpt>
<trkpt lat="46.20101993903518" lon="7.165453992784023"><ele></ele><time>2015-11-5T8:52:57Z</time></trkpt>
<trkpt lat="46.20089094154537" lon="7.165566980838776"><ele></ele><time>2015-11-5T8:53:0Z</time></trkpt>
<trkpt lat="46.20078097097576" lon="7.165648955851793"><ele></ele><time>2015-11-5T8:53:3Z</time></trkpt>
<trkpt lat="46.20066094212234" lon="7.1657319366931915"><ele></ele><time>2015-11-5T8:53:6Z</time></trkpt>
<trkpt lat="46.20062196627259" lon="7.166432999074459"><ele></ele><time>2015-11-5T8:53:9Z</time></trkpt>
<trkpt lat="46.20060193352401" lon="7.166490918025374"><ele></ele><time>2015-11-5T8:53:12Z</time></trkpt>
<trkpt lat="46.200606962665915" lon="7.166723934933543"><ele></ele><time>2015-11-5T8:53:15Z</time></trkpt>
<trkpt lat="46.20061794295907" lon="7.166937924921513"><ele></ele><time>2015-11-5T8:53:18Z</time></trkpt>
<trkpt lat="46.20062196627259" lon="7.1670999471098185"><ele></ele><time>2015-11-5T8:53:21Z</time></trkpt>
<trkpt lat="46.20061391964555" lon="7.167299939319491"><ele></ele><time>2015-11-5T8:53:24Z</time></trkpt>
<trkpt lat="46.200582990422845" lon="7.167515940964222"><ele></ele><time>2015-11-5T8:53:27Z</time></trkpt>
<trkpt lat="46.200521970167756" lon="7.16772791929543"><ele></ele><time>2015-11-5T8:53:30Z</time></trkpt>
<trkpt lat="46.20048391632736" lon="7.167849959805608"><ele></ele><time>2015-11-5T8:53:33Z</time></trkpt>
<trkpt lat="46.20040093548596" lon="7.168088927865028"><ele></ele><time>2015-11-5T8:53:36Z</time></trkpt>
<trkpt lat="46.200282918289304" lon="7.168408948928118"><ele></ele><time>2015-11-5T8:53:39Z</time></trkpt>
<trkpt lat="46.2000949960202" lon="7.1689089294523"><ele></ele><time>2015-11-5T8:53:42Z</time></trkpt>
<trkpt lat="46.19999994523823" lon="7.169146975502372"><ele></ele><time>2015-11-5T8:53:45Z</time></trkpt>
<trkpt lat="46.199702974408865" lon="7.169603956863284"><ele></ele><time>2015-11-5T8:53:48Z</time></trkpt>
<trkpt lat="46.19948294945061" lon="7.169896988198161"><ele></ele><time>2015-11-5T8:53:51Z</time></trkpt>
<trkpt lat="46.199319921433926" lon="7.1701969765126705"><ele></ele><time>2015-11-5T8:53:54Z</time></trkpt>
<trkpt lat="46.1991779319942" lon="7.170642977580428"><ele></ele><time>2015-11-5T8:53:57Z</time></trkpt>
<trkpt lat="46.1989569850266" lon="7.1710799261927605"><ele></ele><time>2015-11-5T8:54:0Z</time></trkpt>
<trkpt lat="46.19877493008971" lon="7.1713449619710445"><ele></ele><time>2015-11-5T8:54:3Z</time></trkpt>
<trkpt lat="46.19866093620658" lon="7.1715219877660275"><ele></ele><time>2015-11-5T8:54:6Z</time></trkpt>
<trkpt lat="46.198625983670354" lon="7.1715829242020845"><ele></ele><time>2015-11-5T8:54:9Z</time></trkpt>
<trkpt lat="46.19845197536051" lon="7.171687949448824"><ele></ele><time>2015-11-5T8:54:12Z</time></trkpt>
<trkpt lat="46.19823396205902" lon="7.171834968030453"><ele></ele><time>2015-11-5T8:54:15Z</time></trkpt>
<trkpt lat="46.197892986238" lon="7.17217493802309"><ele></ele><time>2015-11-5T8:54:18Z</time></trkpt>
<trkpt lat="46.19751697406173" lon="7.172584980726242"><ele></ele><time>2015-11-5T8:54:21Z</time></trkpt>
<trkpt lat="46.19723794050515" lon="7.172863930463791"><ele></ele><time>2015-11-5T8:54:24Z</time></trkpt>
<trkpt lat="46.19705395773053" lon="7.173024946823716"><ele></ele><time>2015-11-5T8:54:27Z</time></trkpt>
<trkpt lat="46.19690098799765" lon="7.1731579676270485"><ele></ele><time>2015-11-5T8:54:30Z</time></trkpt>
<trkpt lat="46.19681792333722" lon="7.173240948468447"><ele></ele><time>2015-11-5T8:54:33Z</time></trkpt>
<trkpt lat="46.196806943044066" lon="7.1732519287616014"><ele></ele><time>2015-11-5T8:54:36Z</time></trkpt>
<trkpt lat="46.196910962462425" lon="7.173247989267111"><ele></ele><time>2015-11-5T8:54:39Z</time></trkpt>
<trkpt lat="46.196866957470775" lon="7.173192920163274"><ele></ele><time>2015-11-5T8:54:42Z</time></trkpt>
<trkpt lat="46.196889923885465" lon="7.172984965145588"><ele></ele><time>2015-11-5T8:54:45Z</time></trkpt>
<trkpt lat="46.19689897634089" lon="7.172932997345924"><ele></ele><time>2015-11-5T8:54:48Z</time></trkpt>
<trkpt lat="46.19694599881768" lon="7.172653963789344"><ele></ele><time>2015-11-5T8:54:51Z</time></trkpt>
<trkpt lat="46.19698095135391" lon="7.172367973253131"><ele></ele><time>2015-11-5T8:54:54Z</time></trkpt>
<trkpt lat="46.197019927203655" lon="7.172071924433112"><ele></ele><time>2015-11-5T8:54:57Z</time></trkpt>
<trkpt lat="46.19709393940866" lon="7.171812923625112"><ele></ele><time>2015-11-5T8:55:0Z</time></trkpt>
<trkpt lat="46.19719695299864" lon="7.171556940302253"><ele></ele><time>2015-11-5T8:55:3Z</time></trkpt>
<trkpt lat="46.19736794382334" lon="7.171280924230814"><ele></ele><time>2015-11-5T8:55:6Z</time></trkpt>
<trkpt lat="46.19738998822868" lon="7.171255946159363"><ele></ele><time>2015-11-5T8:55:9Z</time></trkpt>
<trkpt lat="46.19744095019996" lon="7.171209929510951"><ele></ele><time>2015-11-5T8:55:12Z</time></trkpt>
<trkpt lat="46.19746693409979" lon="7.171187968924642"><ele></ele><time>2015-11-5T8:55:15Z</time></trkpt>
<trkpt lat="46.197574976831675" lon="7.17112191952765"><ele></ele><time>2015-11-5T8:55:18Z</time></trkpt>
<trkpt lat="46.197708919644356" lon="7.171057965606451"><ele></ele><time>2015-11-5T8:55:21Z</time></trkpt>
<trkpt lat="46.19788996875286" lon="7.170964926481247"><ele></ele><time>2015-11-5T8:55:24Z</time></trkpt>
<trkpt lat="46.198004968464375" lon="7.170819919556379"><ele></ele><time>2015-11-5T8:55:27Z</time></trkpt>
<trkpt lat="46.19814092293382" lon="7.170577934011817"><ele></ele><time>2015-11-5T8:55:30Z</time></trkpt>
<trkpt lat="46.19825692847371" lon="7.170328991487622"><ele></ele><time>2015-11-5T8:55:33Z</time></trkpt>
<trkpt lat="46.19826095178723" lon="7.170188929885626"><ele></ele><time>2015-11-5T8:55:36Z</time></trkpt>
<trkpt lat="46.19821795262396" lon="7.169911991804838"><ele></ele><time>2015-11-5T8:55:39Z</time></trkpt>
<trkpt lat="46.19831694290042" lon="7.16970294713974"><ele></ele><time>2015-11-5T8:55:42Z</time></trkpt>
<trkpt lat="46.19851794093847" lon="7.169591970741749"><ele></ele><time>2015-11-5T8:55:45Z</time></trkpt>
<trkpt lat="46.19873293675482" lon="7.169437995180488"><ele></ele><time>2015-11-5T8:55:48Z</time></trkpt>
<trkpt lat="46.19898992590606" lon="7.1692239213734865"><ele></ele><time>2015-11-5T8:55:51Z</time></trkpt>
<trkpt lat="46.199101991951466" lon="7.169084949418902"><ele></ele><time>2015-11-5T8:55:54Z</time></trkpt>
<trkpt lat="46.19915697723627" lon="7.1689429599791765"><ele></ele><time>2015-11-5T8:55:57Z</time></trkpt>
<trkpt lat="46.19915597140789" lon="7.168737938627601"><ele></ele><time>2015-11-5T8:56:0Z</time></trkpt>
<trkpt lat="46.199121940881014" lon="7.168366955593228"><ele></ele><time>2015-11-5T8:56:3Z</time></trkpt>
<trkpt lat="46.199148930609226" lon="7.167984992265701"><ele></ele><time>2015-11-5T8:56:6Z</time></trkpt>
<trkpt lat="46.19929293170571" lon="7.167715933173895"><ele></ele><time>2015-11-5T8:56:9Z</time></trkpt>
<trkpt lat="46.19939695112407" lon="7.167497919872403"><ele></ele><time>2015-11-5T8:56:12Z</time></trkpt>
<trkpt lat="46.19940499775112" lon="7.167480988427997"><ele></ele><time>2015-11-5T8:56:15Z</time></trkpt>
<trkpt lat="46.19926694780588" lon="7.16699399985373"><ele></ele><time>2015-11-5T8:56:18Z</time></trkpt>
<trkpt lat="46.19953692890704" lon="7.167245959863067"><ele></ele><time>2015-11-5T8:56:21Z</time></trkpt>
<trkpt lat="46.199657963588834" lon="7.167052924633026"><ele></ele><time>2015-11-5T8:56:24Z</time></trkpt>
<trkpt lat="46.19969895109534" lon="7.166868941858411"><ele></ele><time>2015-11-5T8:56:27Z</time></trkpt>
<trkpt lat="46.199573976919055" lon="7.166717983782291"><ele></ele><time>2015-11-5T8:56:30Z</time></trkpt>
<trkpt lat="46.199422935023904" lon="7.166768945753574"><ele></ele><time>2015-11-5T8:56:33Z</time></trkpt>
<trkpt lat="46.19931095279753" lon="7.166805993765593"><ele></ele><time>2015-11-5T8:56:36Z</time></trkpt>
<trkpt lat="46.1991829611361" lon="7.166853938251734"><ele></ele><time>2015-11-5T8:56:39Z</time></trkpt>
<trkpt lat="46.199036948382854" lon="7.166912946850061"><ele></ele><time>2015-11-5T8:56:42Z</time></trkpt>
<trkpt lat="46.19889294728637" lon="7.166969943791628"><ele></ele><time>2015-11-5T8:56:45Z</time></trkpt>
<trkpt lat="46.19872195646167" lon="7.167042950168252"><ele></ele><time>2015-11-5T8:56:48Z</time></trkpt>
<trkpt lat="46.19859396480024" lon="7.167147975414991"><ele></ele><time>2015-11-5T8:56:51Z</time></trkpt>
<trkpt lat="46.198457926511765" lon="7.167244954034686"><ele></ele><time>2015-11-5T8:56:54Z</time></trkpt>
<trkpt lat="46.19830998592079" lon="7.167312931269407"><ele></ele><time>2015-11-5T8:56:57Z</time></trkpt>
<trkpt lat="46.19817294180393" lon="7.167377974838018"><ele></ele><time>2015-11-5T8:57:0Z</time></trkpt>
<trkpt lat="46.1980449501425" lon="7.167419968172908"><ele></ele><time>2015-11-5T8:57:3Z</time></trkpt>
<trkpt lat="46.19793397374451" lon="7.167437989264727"><ele></ele><time>2015-11-5T8:57:6Z</time></trkpt>
<trkpt lat="46.19779793545604" lon="7.167401947081089"><ele></ele><time>2015-11-5T8:57:9Z</time></trkpt>
<trkpt lat="46.19764496572316" lon="7.167318966239691"><ele></ele><time>2015-11-5T8:57:12Z</time></trkpt>
<trkpt lat="46.19749593548477" lon="7.167237997055054"><ele></ele><time>2015-11-5T8:57:15Z</time></trkpt>
<trkpt lat="46.197385964915156" lon="7.167178988456726"><ele></ele><time>2015-11-5T8:57:18Z</time></trkpt>
<trkpt lat="46.197363920509815" lon="7.167166918516159"><ele></ele><time>2015-11-5T8:57:21Z</time></trkpt>
<trkpt lat="46.19730499573052" lon="7.1671379171311855"><ele></ele><time>2015-11-5T8:57:24Z</time></trkpt>
<trkpt lat="46.19726593606174" lon="7.167128948494792"><ele></ele><time>2015-11-5T8:57:27Z</time></trkpt>
<trkpt lat="46.19709393940866" lon="7.167203966528177"><ele></ele><time>2015-11-5T8:57:30Z</time></trkpt>
<trkpt lat="46.19700995273888" lon="7.167198937386274"><ele></ele><time>2015-11-5T8:57:33Z</time></trkpt>
<trkpt lat="46.196951949968934" lon="7.166943959891796"><ele></ele><time>2015-11-5T8:57:36Z</time></trkpt>
<trkpt lat="46.196951949968934" lon="7.166664926335216"><ele></ele><time>2015-11-5T8:57:39Z</time></trkpt>
<trkpt lat="46.19693795219064" lon="7.166417995467782"><ele></ele><time>2015-11-5T8:57:42Z</time></trkpt>
<trkpt lat="46.19687994942069" lon="7.166182966902852"><ele></ele><time>2015-11-5T8:57:45Z</time></trkpt>
<trkpt lat="46.19679395109415" lon="7.165952967479825"><ele></ele><time>2015-11-5T8:57:48Z</time></trkpt>
<trkpt lat="46.19668498635292" lon="7.165776947513223"><ele></ele><time>2015-11-5T8:57:51Z</time></trkpt>
<trkpt lat="46.19657794944942" lon="7.165633952245116"><ele></ele><time>2015-11-5T8:57:54Z</time></trkpt>
<trkpt lat="46.19647099636495" lon="7.165574943646789"><ele></ele><time>2015-11-5T8:57:57Z</time></trkpt>
<trkpt lat="46.19638499803841" lon="7.165608974173665"><ele></ele><time>2015-11-5T8:58:0Z</time></trkpt>
<trkpt lat="46.19632397778332" lon="7.165734954178333"><ele></ele><time>2015-11-5T8:58:3Z</time></trkpt>
<trkpt lat="46.19628592394292" lon="7.165899993851781"><ele></ele><time>2015-11-5T8:58:6Z</time></trkpt>
<trkpt lat="46.19620897807181" lon="7.165999989956617"><ele></ele><time>2015-11-5T8:58:9Z</time></trkpt>
<trkpt lat="46.196011919528246" lon="7.166047934442759"><ele></ele><time>2015-11-5T8:58:12Z</time></trkpt>
<trkpt lat="46.19585098698735" lon="7.166066961362958"><ele></ele><time>2015-11-5T8:58:15Z</time></trkpt>
<trkpt lat="46.19570296257734" lon="7.166057992726564"><ele></ele><time>2015-11-5T8:58:18Z</time></trkpt>
<trkpt lat="46.195535995066166" lon="7.166046928614378"><ele></ele><time>2015-11-5T8:58:21Z</time></trkpt>
<trkpt lat="46.195421917364" lon="7.1660329308360815"><ele></ele><time>2015-11-5T8:58:24Z</time></trkpt>
<trkpt lat="46.1952889803797" lon="7.166008958593011"><ele></ele><time>2015-11-5T8:58:27Z</time></trkpt>
<trkpt lat="46.19517993181944" lon="7.165985992178321"><ele></ele><time>2015-11-5T8:58:30Z</time></trkpt>
<trkpt lat="46.19504791684449" lon="7.165957996621728"><ele></ele><time>2015-11-5T8:58:33Z</time></trkpt>
<trkpt lat="46.194913974031806" lon="7.165939975529909"><ele></ele><time>2015-11-5T8:58:36Z</time></trkpt>
<trkpt lat="46.19474591687322" lon="7.165956990793347"><ele></ele><time>2015-11-5T8:58:39Z</time></trkpt>
<trkpt lat="46.19457693770528" lon="7.166008958593011"><ele></ele><time>2015-11-5T8:58:42Z</time></trkpt>
<trkpt lat="46.19440795853734" lon="7.166074924170971"><ele></ele><time>2015-11-5T8:58:45Z</time></trkpt>
<trkpt lat="46.19431299157441" lon="7.166121946647763"><ele></ele><time>2015-11-5T8:58:48Z</time></trkpt>
<trkpt lat="46.19428197853267" lon="7.166137956082821"><ele></ele><time>2015-11-5T8:58:51Z</time></trkpt>
<trkpt lat="46.19420696049929" lon="7.166175926104188"><ele></ele><time>2015-11-5T8:58:54Z</time></trkpt>
<trkpt lat="46.19405499659479" lon="7.166261924430728"><ele></ele><time>2015-11-5T8:58:57Z</time></trkpt>
<trkpt lat="46.1939059663564" lon="7.1663609985262156"><ele></ele><time>2015-11-5T8:59:0Z</time></trkpt>
<trkpt lat="46.193792978301644" lon="7.166455965489149"><ele></ele><time>2015-11-5T8:59:3Z</time></trkpt>
<trkpt lat="46.19374394416809" lon="7.166495947167277"><ele></ele><time>2015-11-5T8:59:6Z</time></trkpt>
<trkpt lat="46.19365098886192" lon="7.166564930230379"><ele></ele><time>2015-11-5T8:59:9Z</time></trkpt>
<trkpt lat="46.193533977493644" lon="7.166604995727539"><ele></ele><time>2015-11-5T8:59:12Z</time></trkpt>
<trkpt lat="46.19339098222554" lon="7.166604995727539"><ele></ele><time>2015-11-5T8:59:15Z</time></trkpt>
<trkpt lat="46.193255949765444" lon="7.166573982685804"><ele></ele><time>2015-11-5T8:59:18Z</time></trkpt>
<trkpt lat="46.19320599362254" lon="7.166552944108844"><ele></ele><time>2015-11-5T8:59:21Z</time></trkpt>
<trkpt lat="46.19307498447597" lon="7.166460994631052"><ele></ele><time>2015-11-5T8:59:24Z</time></trkpt>
<trkpt lat="46.192997954785824" lon="7.1663289796561"><ele></ele><time>2015-11-5T8:59:27Z</time></trkpt>
<trkpt lat="46.192978927865624" lon="7.16628598049283"><ele></ele><time>2015-11-5T8:59:30Z</time></trkpt>
<trkpt lat="46.19293391704559" lon="7.166160922497511"><ele></ele><time>2015-11-5T8:59:33Z</time></trkpt>
<trkpt lat="46.192911956459284" lon="7.166014993563294"><ele></ele><time>2015-11-5T8:59:36Z</time></trkpt>
<trkpt lat="46.192888990044594" lon="7.165887923911214"><ele></ele><time>2015-11-5T8:59:39Z</time></trkpt>
<trkpt lat="46.192850936204195" lon="7.165750963613391"><ele></ele><time>2015-11-5T8:59:42Z</time></trkpt>
<trkpt lat="46.192826963961124" lon="7.165671922266483"><ele></ele><time>2015-11-5T8:59:45Z</time></trkpt>
<trkpt lat="46.192826963961124" lon="7.165671922266483"><ele></ele><time>2015-11-5T8:59:48Z</time></trkpt>
<trkpt lat="46.192848924547434" lon="7.165744928643107"><ele></ele><time>2015-11-5T8:59:51Z</time></trkpt>
<trkpt lat="46.19286392815411" lon="7.165797986090183"><ele></ele><time>2015-11-5T8:59:54Z</time></trkpt>
<trkpt lat="46.19296099059284" lon="7.166243987157941"><ele></ele><time>2015-11-5T8:59:57Z</time></trkpt>
<trkpt lat="46.193000972270966" lon="7.166335936635733"><ele></ele><time>2015-11-5T9:0:0Z</time></trkpt>
<trkpt lat="46.19316391646862" lon="7.1665259543806314"><ele></ele><time>2015-11-5T9:0:3Z</time></trkpt>
<trkpt lat="46.19332996197045" lon="7.1665989607572556"><ele></ele><time>2015-11-5T9:0:6Z</time></trkpt>
<trkpt lat="46.1938089877367" lon="7.166441967710853"><ele></ele><time>2015-11-5T9:0:9Z</time></trkpt>
<trkpt lat="46.19434995576739" lon="7.166103925555944"><ele></ele><time>2015-11-5T9:0:12Z</time></trkpt>
<trkpt lat="46.19445296935737" lon="7.1660529635846615"><ele></ele><time>2015-11-5T9:0:15Z</time></trkpt>
<trkpt lat="46.19453796185553" lon="7.166021950542927"><ele></ele><time>2015-11-5T9:0:18Z</time></trkpt>
<trkpt lat="46.19471096433699" lon="7.16596495360136"><ele></ele><time>2015-11-5T9:0:21Z</time></trkpt>
<trkpt lat="46.19494398124516" lon="7.165939975529909"><ele></ele><time>2015-11-5T9:0:24Z</time></trkpt>
<trkpt lat="46.19533197954297" lon="7.166018933057785"><ele></ele><time>2015-11-5T9:0:27Z</time></trkpt>
<trkpt lat="46.195623921230435" lon="7.1660529635846615"><ele></ele><time>2015-11-5T9:0:30Z</time></trkpt>
<trkpt lat="46.19613396003842" lon="7.1660299971699715"><ele></ele><time>2015-11-5T9:0:33Z</time></trkpt>
<trkpt lat="46.19629397056997" lon="7.165883984416723"><ele></ele><time>2015-11-5T9:0:36Z</time></trkpt>
<trkpt lat="46.196373933926225" lon="7.165623977780342"><ele></ele><time>2015-11-5T9:0:39Z</time></trkpt>
<trkpt lat="46.196478959172964" lon="7.165574943646789"><ele></ele><time>2015-11-5T9:0:42Z</time></trkpt>
<trkpt lat="46.19659999385476" lon="7.16566295363009"><ele></ele><time>2015-11-5T9:0:45Z</time></trkpt>
<trkpt lat="46.196868969127536" lon="7.166145918890834"><ele></ele><time>2015-11-5T9:0:48Z</time></trkpt>
<trkpt lat="46.19694993831217" lon="7.166537940502167"><ele></ele><time>2015-11-5T9:0:51Z</time></trkpt>
<trkpt lat="46.196951949968934" lon="7.166941948235035"><ele></ele><time>2015-11-5T9:0:54Z</time></trkpt>
<trkpt lat="46.19703694246709" lon="7.167225927114487"><ele></ele><time>2015-11-5T9:0:57Z</time></trkpt>
<trkpt lat="46.1970969568938" lon="7.167202960699797"><ele></ele><time>2015-11-5T9:1:0Z</time></trkpt>
<trkpt lat="46.197339948266745" lon="7.167153926566243"><ele></ele><time>2015-11-5T9:1:3Z</time></trkpt>
<trkpt lat="46.19736894965172" lon="7.16716893017292"><ele></ele><time>2015-11-5T9:1:6Z</time></trkpt>
<trkpt lat="46.19763197377324" lon="7.167311925441027"><ele></ele><time>2015-11-5T9:1:9Z</time></trkpt>
<trkpt lat="46.19769299402833" lon="7.1673449501395226"><ele></ele><time>2015-11-5T9:1:12Z</time></trkpt>
<trkpt lat="46.19795098900795" lon="7.167433965951204"><ele></ele><time>2015-11-5T9:1:15Z</time></trkpt>
<trkpt lat="46.19817495346069" lon="7.167377974838018"><ele></ele><time>2015-11-5T9:1:18Z</time></trkpt>
<trkpt lat="46.198265980929136" lon="7.167332964017987"><ele></ele><time>2015-11-5T9:1:21Z</time></trkpt>
<trkpt lat="46.198196997866035" lon="7.167463973164558"><ele></ele><time>2015-11-5T9:1:24Z</time></trkpt>
<trkpt lat="46.198196997866035" lon="7.167572937905788"><ele></ele><time>2015-11-5T9:1:27Z</time></trkpt>
<trkpt lat="46.19804293848574" lon="7.167678968980908"><ele></ele><time>2015-11-5T9:1:30Z</time></trkpt>
<trkpt lat="46.19782693684101" lon="7.167750969529152"><ele></ele><time>2015-11-5T9:1:33Z</time></trkpt>
<trkpt lat="46.19760699570179" lon="7.168046934530139"><ele></ele><time>2015-11-5T9:1:36Z</time></trkpt>
<trkpt lat="46.19747598655522" lon="7.168102925643325"><ele></ele><time>2015-11-5T9:1:39Z</time></trkpt>
<trkpt lat="46.197148924693465" lon="7.168226977810264"><ele></ele><time>2015-11-5T9:1:42Z</time></trkpt>
<trkpt lat="46.19696192443371" lon="7.168315993621945"><ele></ele><time>2015-11-5T9:1:45Z</time></trkpt>
<trkpt lat="46.19684097357094" lon="7.168242987245321"><ele></ele><time>2015-11-5T9:1:48Z</time></trkpt>
<trkpt lat="46.19674399495125" lon="7.168155983090401"><ele></ele><time>2015-11-5T9:1:51Z</time></trkpt>
<trkpt lat="46.196694960817695" lon="7.168063949793577"><ele></ele><time>2015-11-5T9:1:54Z</time></trkpt>
<trkpt lat="46.19667291641235" lon="7.16791894286871"><ele></ele><time>2015-11-5T9:1:57Z</time></trkpt>
<trkpt lat="46.19668498635292" lon="7.167642926797271"><ele></ele><time>2015-11-5T9:2:0Z</time></trkpt>
<trkpt lat="46.196714993566275" lon="7.16731796041131"><ele></ele><time>2015-11-5T9:2:3Z</time></trkpt>
<trkpt lat="46.19675095193088" lon="7.166991988196969"><ele></ele><time>2015-11-5T9:2:6Z</time></trkpt>
<trkpt lat="46.19673192501068" lon="7.16671496629715"><ele></ele><time>2015-11-5T9:2:9Z</time></trkpt>
<trkpt lat="46.196695966646075" lon="7.1666069235652685"><ele></ele><time>2015-11-5T9:2:12Z</time></trkpt>
<trkpt lat="46.19660594500601" lon="7.166528971865773"><ele></ele><time>2015-11-5T9:2:15Z</time></trkpt>
<trkpt lat="46.19658197276294" lon="7.16652293689549"><ele></ele><time>2015-11-5T9:2:18Z</time></trkpt>
<trkpt lat="46.196263963356614" lon="7.166743967682123"><ele></ele><time>2015-11-5T9:2:21Z</time></trkpt>
<trkpt lat="46.196157932281494" lon="7.166862990707159"><ele></ele><time>2015-11-5T9:2:24Z</time></trkpt>
<trkpt lat="46.19606195949018" lon="7.166980924084783"><ele></ele><time>2015-11-5T9:2:27Z</time></trkpt>
<trkpt lat="46.195943942293525" lon="7.167097935453057"><ele></ele><time>2015-11-5T9:2:30Z</time></trkpt>
<trkpt lat="46.19582994841039" lon="7.167141940444708"><ele></ele><time>2015-11-5T9:2:33Z</time></trkpt>
<trkpt lat="46.19567798450589" lon="7.167218970134854"><ele></ele><time>2015-11-5T9:2:36Z</time></trkpt>
<trkpt lat="46.195664992555976" lon="7.167226932942867"><ele></ele><time>2015-11-5T9:2:39Z</time></trkpt>
<trkpt lat="46.195621993392706" lon="7.167216958478093"><ele></ele><time>2015-11-5T9:2:42Z</time></trkpt>
<trkpt lat="46.195556949824095" lon="7.167117968201637"><ele></ele><time>2015-11-5T9:2:45Z</time></trkpt>
<trkpt lat="46.195363998413086" lon="7.166928956285119"><ele></ele><time>2015-11-5T9:2:48Z</time></trkpt>
<trkpt lat="46.19504699483514" lon="7.166968937963247"><ele></ele><time>2015-11-5T9:2:51Z</time></trkpt>
<trkpt lat="46.1949089448899" lon="7.167095923796296"><ele></ele><time>2015-11-5T9:2:54Z</time></trkpt>
<trkpt lat="46.19471096433699" lon="7.167281918227673"><ele></ele><time>2015-11-5T9:2:57Z</time></trkpt>
<trkpt lat="46.194480964913964" lon="7.167351990938187"><ele></ele><time>2015-11-5T9:3:0Z</time></trkpt>
<trkpt lat="46.19435699656606" lon="7.167419968172908"><ele></ele><time>2015-11-5T9:3:3Z</time></trkpt>
<trkpt lat="46.19419396854937" lon="7.167603950947523"><ele></ele><time>2015-11-5T9:3:6Z</time></trkpt>
<trkpt lat="46.194158932194114" lon="7.16763898730278"><ele></ele><time>2015-11-5T9:3:9Z</time></trkpt>
<trkpt lat="46.19399196468294" lon="7.1678179409354925"><ele></ele><time>2015-11-5T9:3:12Z</time></trkpt>
<trkpt lat="46.19379096664488" lon="7.168104937300086"><ele></ele><time>2015-11-5T9:3:15Z</time></trkpt>
<trkpt lat="46.19367797859013" lon="7.168140979483724"><ele></ele><time>2015-11-5T9:3:18Z</time></trkpt>
<trkpt lat="46.19342098943889" lon="7.168178949505091"><ele></ele><time>2015-11-5T9:3:21Z</time></trkpt>
<trkpt lat="46.19322996586561" lon="7.168203927576542"><ele></ele><time>2015-11-5T9:3:24Z</time></trkpt>
<trkpt lat="46.1930959392339" lon="7.168213985860348"><ele></ele><time>2015-11-5T9:3:27Z</time></trkpt>
<trkpt lat="46.19307599030435" lon="7.168213985860348"><ele></ele><time>2015-11-5T9:3:30Z</time></trkpt>
<trkpt lat="46.19302595034242" lon="7.168213985860348"><ele></ele><time>2015-11-5T9:3:33Z</time></trkpt>
<trkpt lat="46.19291799142957" lon="7.168149948120117"><ele></ele><time>2015-11-5T9:3:36Z</time></trkpt>
<trkpt lat="46.192655973136425" lon="7.168081970885396"><ele></ele><time>2015-11-5T9:3:39Z</time></trkpt>
<trkpt lat="46.19253292679787" lon="7.168020950630307"><ele></ele><time>2015-11-5T9:3:42Z</time></trkpt>
<trkpt lat="46.192488921806216" lon="7.168020950630307"><ele></ele><time>2015-11-5T9:3:45Z</time></trkpt>
<trkpt lat="46.192488921806216" lon="7.168020950630307"><ele></ele><time>2015-11-5T9:3:48Z</time></trkpt>
<trkpt lat="46.192482970654964" lon="7.168323956429958"><ele></ele><time>2015-11-5T9:3:51Z</time></trkpt>
<trkpt lat="46.19250291958451" lon="7.168463934212923"><ele></ele><time>2015-11-5T9:3:54Z</time></trkpt>
<trkpt lat="46.19254399091005" lon="7.1687479969114065"><ele></ele><time>2015-11-5T9:3:57Z</time></trkpt>
<trkpt lat="46.19255798868835" lon="7.168847993016243"><ele></ele><time>2015-11-5T9:4:0Z</time></trkpt>
<trkpt lat="46.19258397258818" lon="7.169058965519071"><ele></ele><time>2015-11-5T9:4:3Z</time></trkpt>
<trkpt lat="46.19260492734611" lon="7.169293994084001"><ele></ele><time>2015-11-5T9:4:6Z</time></trkpt>
<trkpt lat="46.19263191707432" lon="7.169629940763116"><ele></ele><time>2015-11-5T9:4:9Z</time></trkpt>
<trkpt lat="46.19263895787299" lon="7.169957924634218"><ele></ele><time>2015-11-5T9:4:12Z</time></trkpt>
<trkpt lat="46.19263895787299" lon="7.170122964307666"><ele></ele><time>2015-11-5T9:4:15Z</time></trkpt>
<trkpt lat="46.19263895787299" lon="7.170237964019179"><ele></ele><time>2015-11-5T9:4:18Z</time></trkpt>
<trkpt lat="46.192646920681" lon="7.170581957325339"><ele></ele><time>2015-11-5T9:4:21Z</time></trkpt>
<trkpt lat="46.19268396869302" lon="7.170835928991437"><ele></ele><time>2015-11-5T9:4:24Z</time></trkpt>
<trkpt lat="46.192700983956456" lon="7.170886974781752"><ele></ele><time>2015-11-5T9:4:27Z</time></trkpt>
<trkpt lat="46.192746916785836" lon="7.17098998837173"><ele></ele><time>2015-11-5T9:4:30Z</time></trkpt>
<trkpt lat="46.19283794425428" lon="7.171067940071225"><ele></ele><time>2015-11-5T9:4:33Z</time></trkpt>
<trkpt lat="46.193001978099346" lon="7.171135917305946"><ele></ele><time>2015-11-5T9:4:36Z</time></trkpt>
<trkpt lat="46.19324698112905" lon="7.171233985573053"><ele></ele><time>2015-11-5T9:4:39Z</time></trkpt>
<trkpt lat="46.1933409422636" lon="7.171265920624137"><ele></ele><time>2015-11-5T9:4:42Z</time></trkpt>
<trkpt lat="46.193409925326705" lon="7.171282935887575"><ele></ele><time>2015-11-5T9:4:45Z</time></trkpt>
<trkpt lat="46.19352391920984" lon="7.1712589636445045"><ele></ele><time>2015-11-5T9:4:48Z</time></trkpt>
<trkpt lat="46.193625926971436" lon="7.1711659245193005"><ele></ele><time>2015-11-5T9:4:51Z</time></trkpt>
<trkpt lat="46.193689964711666" lon="7.171090990304947"><ele></ele><time>2015-11-5T9:4:54Z</time></trkpt>
<trkpt lat="46.193877970799804" lon="7.170859985053539"><ele></ele><time>2015-11-5T9:4:57Z</time></trkpt>
<trkpt lat="46.19392599910498" lon="7.170810950919986"><ele></ele><time>2015-11-5T9:5:0Z</time></trkpt>
<trkpt lat="46.194138983264565" lon="7.171058971434832"><ele></ele><time>2015-11-5T9:5:3Z</time></trkpt>
<trkpt lat="46.19419598020613" lon="7.171147987246513"><ele></ele><time>2015-11-5T9:5:6Z</time></trkpt>
<trkpt lat="46.194225987419486" lon="7.171234991401434"><ele></ele><time>2015-11-5T9:5:9Z</time></trkpt>
<trkpt lat="46.194225987419486" lon="7.171234991401434"><ele></ele><time>2015-11-5T9:5:12Z</time></trkpt>
<trkpt lat="46.1941649671644" lon="7.171302968636155"><ele></ele><time>2015-11-5T9:5:15Z</time></trkpt>
<trkpt lat="46.19399598799646" lon="7.1713929902762175"><ele></ele><time>2015-11-5T9:5:18Z</time></trkpt>
<trkpt lat="46.19371796026826" lon="7.1715829242020845"><ele></ele><time>2015-11-5T9:5:21Z</time></trkpt>
<trkpt lat="46.193643948063254" lon="7.171686943620443"><ele></ele><time>2015-11-5T9:5:24Z</time></trkpt>
<trkpt lat="46.19356893002987" lon="7.171843936666846"><ele></ele><time>2015-11-5T9:5:27Z</time></trkpt>
<trkpt lat="46.19348695501685" lon="7.172029931098223"><ele></ele><time>2015-11-5T9:5:30Z</time></trkpt>
<trkpt lat="46.19335795752704" lon="7.172207962721586"><ele></ele><time>2015-11-5T9:5:33Z</time></trkpt>
<trkpt lat="46.193275982514024" lon="7.172294966876507"><ele></ele><time>2015-11-5T9:5:36Z</time></trkpt>
<trkpt lat="46.1930129583925" lon="7.172529995441437"><ele></ele><time>2015-11-5T9:5:39Z</time></trkpt>
<trkpt lat="46.192825958132744" lon="7.172681959345937"><ele></ele><time>2015-11-5T9:5:42Z</time></trkpt>
<trkpt lat="46.19272495619953" lon="7.1727509424090385"><ele></ele><time>2015-11-5T9:5:45Z</time></trkpt>
<trkpt lat="46.19260492734611" lon="7.172833923250437"><ele></ele><time>2015-11-5T9:5:48Z</time></trkpt>
<trkpt lat="46.19238297455013" lon="7.173019917681813"><ele></ele><time>2015-11-5T9:5:51Z</time></trkpt>
<trkpt lat="46.192248947918415" lon="7.173153944313526"><ele></ele><time>2015-11-5T9:5:54Z</time></trkpt>
<trkpt lat="46.19223193265498" lon="7.173170959576964"><ele></ele><time>2015-11-5T9:5:57Z</time></trkpt>
<trkpt lat="46.19223193265498" lon="7.173170959576964"><ele></ele><time>2015-11-5T9:6:0Z</time></trkpt>
<trkpt lat="46.19223193265498" lon="7.173170959576964"><ele></ele><time>2015-11-5T9:6:3Z</time></trkpt>
<trkpt lat="46.19223193265498" lon="7.173170959576964"><ele></ele><time>2015-11-5T9:6:6Z</time></trkpt>
<trkpt lat="46.192083992064" lon="7.173411939293146"><ele></ele><time>2015-11-5T9:6:9Z</time></trkpt>
<trkpt lat="46.19209296070039" lon="7.173396935686469"><ele></ele><time>2015-11-5T9:6:12Z</time></trkpt>
<trkpt lat="46.1920509673655" lon="7.1734969317913055"><ele></ele><time>2015-11-5T9:6:15Z</time></trkpt>
<trkpt lat="46.19184594601393" lon="7.173584941774607"><ele></ele><time>2015-11-5T9:6:18Z</time></trkpt>
<trkpt lat="46.19167495518923" lon="7.173646967858076"><ele></ele><time>2015-11-5T9:6:21Z</time></trkpt>
<trkpt lat="46.19154394604266" lon="7.173781916499138"><ele></ele><time>2015-11-5T9:6:24Z</time></trkpt>
<trkpt lat="46.19134998880327" lon="7.1741419192403555"><ele></ele><time>2015-11-5T9:6:27Z</time></trkpt>
<trkpt lat="46.191240940243006" lon="7.1743719186633825"><ele></ele><time>2015-11-5T9:6:30Z</time></trkpt>
<trkpt lat="46.19101194664836" lon="7.174610970541835"><ele></ele><time>2015-11-5T9:6:33Z</time></trkpt>
<trkpt lat="46.190810948610306" lon="7.174726976081729"><ele></ele><time>2015-11-5T9:6:36Z</time></trkpt>
<trkpt lat="46.190679939463735" lon="7.174775926396251"><ele></ele><time>2015-11-5T9:6:39Z</time></trkpt>
<trkpt lat="46.19032194837928" lon="7.174801994115114"><ele></ele><time>2015-11-5T9:6:42Z</time></trkpt>
<trkpt lat="46.19025799445808" lon="7.174801994115114"><ele></ele><time>2015-11-5T9:6:45Z</time></trkpt>
<trkpt lat="46.19003294035792" lon="7.174928979948163"><ele></ele><time>2015-11-5T9:6:48Z</time></trkpt>
<trkpt lat="46.18993395008147" lon="7.175191920250654"><ele></ele><time>2015-11-5T9:6:51Z</time></trkpt>
<trkpt lat="46.18967696093023" lon="7.1759669948369265"><ele></ele><time>2015-11-5T9:6:54Z</time></trkpt>
<trkpt lat="46.189671931788325" lon="7.176323980093002"><ele></ele><time>2015-11-5T9:6:57Z</time></trkpt>
<trkpt lat="46.18968794122338" lon="7.176409978419542"><ele></ele><time>2015-11-5T9:7:0Z</time></trkpt>
<trkpt lat="46.1897939722985" lon="7.176736956462264"><ele></ele><time>2015-11-5T9:7:3Z</time></trkpt>
<trkpt lat="46.18983797729015" lon="7.177101988345385"><ele></ele><time>2015-11-5T9:7:6Z</time></trkpt>
<trkpt lat="46.18981794454157" lon="7.177183963358402"><ele></ele><time>2015-11-5T9:7:9Z</time></trkpt>
<trkpt lat="46.189709985628724" lon="7.177499961107969"><ele></ele><time>2015-11-5T9:7:12Z</time></trkpt>
<trkpt lat="46.18959196843207" lon="7.177830962464213"><ele></ele><time>2015-11-5T9:7:15Z</time></trkpt>
<trkpt lat="46.18959196843207" lon="7.177920984104276"><ele></ele><time>2015-11-5T9:7:18Z</time></trkpt>
<trkpt lat="46.18959599174559" lon="7.178100943565369"><ele></ele><time>2015-11-5T9:7:21Z</time></trkpt>
<trkpt lat="46.18969397619367" lon="7.178539987653494"><ele></ele><time>2015-11-5T9:7:24Z</time></trkpt>
<trkpt lat="46.18967997841537" lon="7.178918933495879"><ele></ele><time>2015-11-5T9:7:27Z</time></trkpt>
<trkpt lat="46.189627926796675" lon="7.179052960127592"><ele></ele><time>2015-11-5T9:7:30Z</time></trkpt>
<trkpt lat="46.1895489692688" lon="7.179254963994026"><ele></ele><time>2015-11-5T9:7:33Z</time></trkpt>
<trkpt lat="46.18954695761204" lon="7.17960893176496"><ele></ele><time>2015-11-5T9:7:36Z</time></trkpt>
<trkpt lat="46.189690958708525" lon="7.179924929514527"><ele></ele><time>2015-11-5T9:7:39Z</time></trkpt>
<trkpt lat="46.189756924286485" lon="7.180095920339227"><ele></ele><time>2015-11-5T9:7:42Z</time></trkpt>
<trkpt lat="46.18973798118532" lon="7.180264983326197"><ele></ele><time>2015-11-5T9:7:45Z</time></trkpt>
<trkpt lat="46.189604960381985" lon="7.180117964744568"><ele></ele><time>2015-11-5T9:7:48Z</time></trkpt>
<trkpt lat="46.18950597010553" lon="7.180054932832718"><ele></ele><time>2015-11-5T9:7:51Z</time></trkpt>
<trkpt lat="46.18939599953592" lon="7.180097931995988"><ele></ele><time>2015-11-5T9:7:54Z</time></trkpt>
<trkpt lat="46.18940195068717" lon="7.180139925330877"><ele></ele><time>2015-11-5T9:7:57Z</time></trkpt>
<trkpt lat="46.18941997177899" lon="7.180271940305829"><ele></ele><time>2015-11-5T9:8:0Z</time></trkpt>
<trkpt lat="46.18944595567882" lon="7.180451983585954"><ele></ele><time>2015-11-5T9:8:3Z</time></trkpt>
<trkpt lat="46.18947395123541" lon="7.180646946653724"><ele></ele><time>2015-11-5T9:8:6Z</time></trkpt>
<trkpt lat="46.189543940126896" lon="7.181118931621313"><ele></ele><time>2015-11-5T9:8:9Z</time></trkpt>
<trkpt lat="46.18960194289684" lon="7.181487986817956"><ele></ele><time>2015-11-5T9:8:12Z</time></trkpt>
<trkpt lat="46.18961191736162" lon="7.181548923254013"><ele></ele><time>2015-11-5T9:8:15Z</time></trkpt>
<trkpt lat="46.18965198285878" lon="7.18179895542562"><ele></ele><time>2015-11-5T9:8:18Z</time></trkpt>
<trkpt lat="46.18970193900168" lon="7.182121993973851"><ele></ele><time>2015-11-5T9:8:21Z</time></trkpt>
<trkpt lat="46.18969498202205" lon="7.182318968698382"><ele></ele><time>2015-11-5T9:8:24Z</time></trkpt>
<trkpt lat="46.18965298868716" lon="7.182427933439612"><ele></ele><time>2015-11-5T9:8:27Z</time></trkpt>
<trkpt lat="46.18950597010553" lon="7.182579981163144"><ele></ele><time>2015-11-5T9:8:30Z</time></trkpt>
<trkpt lat="46.189455930143595" lon="7.182605965062976"><ele></ele><time>2015-11-5T9:8:33Z</time></trkpt>
<trkpt lat="46.18934093043208" lon="7.1826219744980335"><ele></ele><time>2015-11-5T9:8:36Z</time></trkpt>
<trkpt lat="46.18916097097099" lon="7.182638989761472"><ele></ele><time>2015-11-5T9:8:39Z</time></trkpt>
<trkpt lat="46.189064998179674" lon="7.1826499700546265"><ele></ele><time>2015-11-5T9:8:42Z</time></trkpt>
<trkpt lat="46.189002972096205" lon="7.1825439389795065"><ele></ele><time>2015-11-5T9:8:45Z</time></trkpt>
<trkpt lat="46.18901395238936" lon="7.182785924524069"><ele></ele><time>2015-11-5T9:8:48Z</time></trkpt>
<trkpt lat="46.18917195126414" lon="7.1830239705741405"><ele></ele><time>2015-11-5T9:8:51Z</time></trkpt>
<trkpt lat="46.18946699425578" lon="7.1831579972058535"><ele></ele><time>2015-11-5T9:8:54Z</time></trkpt>
<trkpt lat="46.18960898369551" lon="7.183176940307021"><ele></ele><time>2015-11-5T9:8:57Z</time></trkpt>
<trkpt lat="46.189924981445074" lon="7.183220945298672"><ele></ele><time>2015-11-5T9:9:0Z</time></trkpt>
<trkpt lat="46.190012991428375" lon="7.183232931420207"><ele></ele><time>2015-11-5T9:9:3Z</time></trkpt>
<trkpt lat="46.19031993672252" lon="7.183729978278279"><ele></ele><time>2015-11-5T9:9:6Z</time></trkpt>
<trkpt lat="46.19069091975689" lon="7.183842966333032"><ele></ele><time>2015-11-5T9:9:9Z</time></trkpt>
<trkpt lat="46.191019993275404" lon="7.183856964111328"><ele></ele><time>2015-11-5T9:9:12Z</time></trkpt>
<trkpt lat="46.19124798104167" lon="7.183973975479603"><ele></ele><time>2015-11-5T9:9:15Z</time></trkpt>
<trkpt lat="46.19132995605469" lon="7.184028960764408"><ele></ele><time>2015-11-5T9:9:18Z</time></trkpt>
<trkpt lat="46.19133397936821" lon="7.184029966592789"><ele></ele><time>2015-11-5T9:9:21Z</time></trkpt>
<trkpt lat="46.19150597602129" lon="7.184081934392452"><ele></ele><time>2015-11-5T9:9:24Z</time></trkpt>
<trkpt lat="46.19178794324398" lon="7.184190982952714"><ele></ele><time>2015-11-5T9:9:27Z</time></trkpt>
<trkpt lat="46.19199698790908" lon="7.184351999312639"><ele></ele><time>2015-11-5T9:9:30Z</time></trkpt>
<trkpt lat="46.19202297180891" lon="7.1843869518488646"><ele></ele><time>2015-11-5T9:9:33Z</time></trkpt>
<trkpt lat="46.19204996153712" lon="7.184422994032502"><ele></ele><time>2015-11-5T9:9:36Z</time></trkpt>
<trkpt lat="46.191971926018596" lon="7.184437997639179"><ele></ele><time>2015-11-5T9:9:39Z</time></trkpt>
<trkpt lat="46.191924987360835" lon="7.184594990685582"><ele></ele><time>2015-11-5T9:9:42Z</time></trkpt>
<trkpt lat="46.191869918257" lon="7.184666991233826"><ele></ele><time>2015-11-5T9:9:45Z</time></trkpt>
<trkpt lat="46.19174092076719" lon="7.184835970401764"><ele></ele><time>2015-11-5T9:9:48Z</time></trkpt>
<trkpt lat="46.19159599766135" lon="7.185007967054844"><ele></ele><time>2015-11-5T9:9:51Z</time></trkpt>
<trkpt lat="46.19140396825969" lon="7.185120955109596"><ele></ele><time>2015-11-5T9:9:54Z</time></trkpt>
<trkpt lat="46.19127094745636" lon="7.185110980644822"><ele></ele><time>2015-11-5T9:9:57Z</time></trkpt>
<trkpt lat="46.19099291972816" lon="7.185252970084548"><ele></ele><time>2015-11-5T9:10:0Z</time></trkpt>
<trkpt lat="46.19088496081531" lon="7.18538892455399"><ele></ele><time>2015-11-5T9:10:3Z</time></trkpt>
<trkpt lat="46.19081497192383" lon="7.185460925102234"><ele></ele><time>2015-11-5T9:10:6Z</time></trkpt>
<trkpt lat="46.190786976367235" lon="7.1854819636791945"><ele></ele><time>2015-11-5T9:10:9Z</time></trkpt>
<trkpt lat="46.190635934472084" lon="7.185574918985367"><ele></ele><time>2015-11-5T9:10:12Z</time></trkpt>
<trkpt lat="46.190229998901486" lon="7.1857469994574785"><ele></ele><time>2015-11-5T9:10:15Z</time></trkpt>
<trkpt lat="46.190080968663096" lon="7.185798967257142"><ele></ele><time>2015-11-5T9:10:18Z</time></trkpt>
<trkpt lat="46.1898129992187" lon="7.185848923400044"><ele></ele><time>2015-11-5T9:10:21Z</time></trkpt>
<trkpt lat="46.18975994177163" lon="7.185834925621748"><ele></ele><time>2015-11-5T9:10:24Z</time></trkpt>
<trkpt lat="46.1895539984107" lon="7.1858759969472885"><ele></ele><time>2015-11-5T9:10:27Z</time></trkpt>
<trkpt lat="46.18952197954059" lon="7.1859219297766685"><ele></ele><time>2015-11-5T9:10:30Z</time></trkpt>
<trkpt lat="46.18950194679201" lon="7.185948919504881"><ele></ele><time>2015-11-5T9:10:33Z</time></trkpt>
<trkpt lat="46.189455930143595" lon="7.186011951416731"><ele></ele><time>2015-11-5T9:10:36Z</time></trkpt>
<trkpt lat="46.189327938482165" lon="7.186166932806373"><ele></ele><time>2015-11-5T9:10:39Z</time></trkpt>
<trkpt lat="46.18925593793392" lon="7.186335995793343"><ele></ele><time>2015-11-5T9:10:42Z</time></trkpt>
<trkpt lat="46.189242945984006" lon="7.186381928622723"><ele></ele><time>2015-11-5T9:10:45Z</time></trkpt>
<trkpt lat="46.189215956255794" lon="7.1864779852330685"><ele></ele><time>2015-11-5T9:10:48Z</time></trkpt>
<trkpt lat="46.18915191851556" lon="7.186749977990985"><ele></ele><time>2015-11-5T9:10:51Z</time></trkpt>
<trkpt lat="46.18914194405079" lon="7.1868169493973255"><ele></ele><time>2015-11-5T9:10:54Z</time></trkpt>
<trkpt lat="46.18905292823911" lon="7.186934966593981"><ele></ele><time>2015-11-5T9:10:57Z</time></trkpt>
<trkpt lat="46.18918494321406" lon="7.186989951878786"><ele></ele><time>2015-11-5T9:11:0Z</time></trkpt>
<trkpt lat="46.18929198011756" lon="7.1870469488203526"><ele></ele><time>2015-11-5T9:11:3Z</time></trkpt>
<trkpt lat="46.18933497928083" lon="7.187075950205326"><ele></ele><time>2015-11-5T9:11:6Z</time></trkpt>
<trkpt lat="46.18938292376697" lon="7.1872189454734325"><ele></ele><time>2015-11-5T9:11:9Z</time></trkpt>
<trkpt lat="46.18944997899234" lon="7.187075950205326"><ele></ele><time>2015-11-5T9:11:12Z</time></trkpt>
<trkpt lat="46.18931997567415" lon="7.18708299100399"><ele></ele><time>2015-11-5T9:11:15Z</time></trkpt>
<trkpt lat="46.1891829315573" lon="7.187166977673769"><ele></ele><time>2015-11-5T9:11:18Z</time></trkpt>
<trkpt lat="46.18898897431791" lon="7.1872039418667555"><ele></ele><time>2015-11-5T9:11:21Z</time></trkpt>
<trkpt lat="46.18887799791992" lon="7.187177957966924"><ele></ele><time>2015-11-5T9:11:24Z</time></trkpt>
<trkpt lat="46.188680939376354" lon="7.187088942155242"><ele></ele><time>2015-11-5T9:11:27Z</time></trkpt>
<trkpt lat="46.188509948551655" lon="7.186927925795317"><ele></ele><time>2015-11-5T9:11:30Z</time></trkpt>
<trkpt lat="46.187948947772384" lon="7.186530958861113"><ele></ele><time>2015-11-5T9:11:33Z</time></trkpt>
<trkpt lat="46.187873929739" lon="7.186495922505856"><ele></ele><time>2015-11-5T9:11:36Z</time></trkpt>
<trkpt lat="46.18760998360813" lon="7.186315963044763"><ele></ele><time>2015-11-5T9:11:39Z</time></trkpt>
<trkpt lat="46.18754795752466" lon="7.18624597415328"><ele></ele><time>2015-11-5T9:11:42Z</time></trkpt>
<trkpt lat="46.18737696669996" lon="7.185852946713567"><ele></ele><time>2015-11-5T9:11:45Z</time></trkpt>
<trkpt lat="46.187284933403134" lon="7.185905920341611"><ele></ele><time>2015-11-5T9:11:48Z</time></trkpt>
<trkpt lat="46.18712995201349" lon="7.185978926718235"><ele></ele><time>2015-11-5T9:11:51Z</time></trkpt>
<trkpt lat="46.187009923160076" lon="7.185958977788687"><ele></ele><time>2015-11-5T9:11:54Z</time></trkpt>
<trkpt lat="46.186875980347395" lon="7.185936933383346"><ele></ele><time>2015-11-5T9:11:57Z</time></trkpt>
<trkpt lat="46.18662494234741" lon="7.185895945876837"><ele></ele><time>2015-11-5T9:12:0Z</time></trkpt>
<trkpt lat="46.18648597039282" lon="7.18594397418201"><ele></ele><time>2015-11-5T9:12:3Z</time></trkpt>
<trkpt lat="46.18626393377781" lon="7.185908937826753"><ele></ele><time>2015-11-5T9:12:6Z</time></trkpt>
<trkpt lat="46.18585598655045" lon="7.185483975335956"><ele></ele><time>2015-11-5T9:12:9Z</time></trkpt>
<trkpt lat="46.18563897907734" lon="7.185249952599406"><ele></ele><time>2015-11-5T9:12:12Z</time></trkpt>
<trkpt lat="46.18543999269605" lon="7.184981983155012"><ele></ele><time>2015-11-5T9:12:15Z</time></trkpt>
<trkpt lat="46.18513899855316" lon="7.184694986790419"><ele></ele><time>2015-11-5T9:12:18Z</time></trkpt>
<trkpt lat="46.18498192168772" lon="7.184566995128989"><ele></ele><time>2015-11-5T9:12:21Z</time></trkpt>
<trkpt lat="46.18489399552345" lon="7.184471944347024"><ele></ele><time>2015-11-5T9:12:24Z</time></trkpt>
<trkpt lat="46.18467698805034" lon="7.184245968237519"><ele></ele><time>2015-11-5T9:12:27Z</time></trkpt>
<trkpt lat="46.18442494422197" lon="7.184015968814492"><ele></ele><time>2015-11-5T9:12:30Z</time></trkpt>
<trkpt lat="46.18423995561898" lon="7.183846989646554"><ele></ele><time>2015-11-5T9:12:33Z</time></trkpt>
<trkpt lat="46.18409494869411" lon="7.183735929429531"><ele></ele><time>2015-11-5T9:12:36Z</time></trkpt>
<trkpt lat="46.18399193510413" lon="7.183657977730036"><ele></ele><time>2015-11-5T9:12:39Z</time></trkpt>
<trkpt lat="46.18393192067742" lon="7.183584971353412"><ele></ele><time>2015-11-5T9:12:42Z</time></trkpt>
<trkpt lat="46.18390895426273" lon="7.183549934998155"><ele></ele><time>2015-11-5T9:12:45Z</time></trkpt>
<trkpt lat="46.18386293761432" lon="7.18349595554173"><ele></ele><time>2015-11-5T9:12:48Z</time></trkpt>
<trkpt lat="46.183827985078096" lon="7.183466954156756"><ele></ele><time>2015-11-5T9:12:51Z</time></trkpt>
<trkpt lat="46.1838089581579" lon="7.183451950550079"><ele></ele><time>2015-11-5T9:12:54Z</time></trkpt>
<trkpt lat="46.18378599174321" lon="7.18343292362988"><ele></ele><time>2015-11-5T9:12:57Z</time></trkpt>
<trkpt lat="46.18376696482301" lon="7.183417920023203"><ele></ele><time>2015-11-5T9:13:0Z</time></trkpt>
<trkpt lat="46.183740980923176" lon="7.183396965265274"><ele></ele><time>2015-11-5T9:13:3Z</time></trkpt>
<trkpt lat="46.18370099924505" lon="7.183363940566778"><ele></ele><time>2015-11-5T9:13:6Z</time></trkpt>
<trkpt lat="46.18370099924505" lon="7.183363940566778"><ele></ele><time>2015-11-5T9:13:9Z</time></trkpt>
<trkpt lat="46.18364894762635" lon="7.183320941403508"><ele></ele><time>2015-11-5T9:13:12Z</time></trkpt>
<trkpt lat="46.18364894762635" lon="7.183320941403508"><ele></ele><time>2015-11-5T9:13:15Z</time></trkpt>
<trkpt lat="46.18364894762635" lon="7.183320941403508"><ele></ele><time>2015-11-5T9:13:18Z</time></trkpt>
<trkpt lat="46.18332398124039" lon="7.182984994724393"><ele></ele><time>2015-11-5T9:13:21Z</time></trkpt>
<trkpt lat="46.18302399292588" lon="7.182675953954458"><ele></ele><time>2015-11-5T9:13:24Z</time></trkpt>
<trkpt lat="46.18299096822739" lon="7.182642929255962"><ele></ele><time>2015-11-5T9:13:27Z</time></trkpt>
<trkpt lat="46.18284897878766" lon="7.182634966447949"><ele></ele><time>2015-11-5T9:13:30Z</time></trkpt>
<trkpt lat="46.18278494104743" lon="7.182647958397865"><ele></ele><time>2015-11-5T9:13:33Z</time></trkpt>
<trkpt lat="46.18264093995094" lon="7.182676959782839"><ele></ele><time>2015-11-5T9:13:36Z</time></trkpt>
<trkpt lat="46.18241798132658" lon="7.182812998071313"><ele></ele><time>2015-11-5T9:13:39Z</time></trkpt>
<trkpt lat="46.182403983548284" lon="7.182826995849609"><ele></ele><time>2015-11-5T9:13:42Z</time></trkpt>
<trkpt lat="46.18247497826815" lon="7.1828369703143835"><ele></ele><time>2015-11-5T9:13:45Z</time></trkpt>
<trkpt lat="46.182602969929576" lon="7.182886926457286"><ele></ele><time>2015-11-5T9:13:48Z</time></trkpt>
<trkpt lat="46.18265493772924" lon="7.182928919792175"><ele></ele><time>2015-11-5T9:13:51Z</time></trkpt>
<trkpt lat="46.182661978527904" lon="7.182933948934078"><ele></ele><time>2015-11-5T9:13:54Z</time></trkpt>
<trkpt lat="46.182406917214394" lon="7.183006955310702"><ele></ele><time>2015-11-5T9:13:57Z</time></trkpt>
<trkpt lat="46.18207993917167" lon="7.183135952800512"><ele></ele><time>2015-11-5T9:14:0Z</time></trkpt>
<trkpt lat="46.18197591975331" lon="7.183164954185486"><ele></ele><time>2015-11-5T9:14:3Z</time></trkpt>
<trkpt lat="46.1816019192338" lon="7.183191943913698"><ele></ele><time>2015-11-5T9:14:6Z</time></trkpt>
<trkpt lat="46.18122196756303" lon="7.183181969448924"><ele></ele><time>2015-11-5T9:14:9Z</time></trkpt>
<trkpt lat="46.180841932073236" lon="7.1831379644572735"><ele></ele><time>2015-11-5T9:14:12Z</time></trkpt>
<trkpt lat="46.180534986779094" lon="7.183061940595508"><ele></ele><time>2015-11-5T9:14:15Z</time></trkpt>
<trkpt lat="46.18036097846925" lon="7.182971918955445"><ele></ele><time>2015-11-5T9:14:18Z</time></trkpt>
<trkpt lat="46.1799009796232" lon="7.182694980874658"><ele></ele><time>2015-11-5T9:14:21Z</time></trkpt>
<trkpt lat="46.179783968254924" lon="7.182588949799538"><ele></ele><time>2015-11-5T9:14:24Z</time></trkpt>
<trkpt lat="46.179678943008184" lon="7.182489959523082"><ele></ele><time>2015-11-5T9:14:27Z</time></trkpt>
<trkpt lat="46.17954793386161" lon="7.182390969246626"><ele></ele><time>2015-11-5T9:14:30Z</time></trkpt>
<trkpt lat="46.17943393997848" lon="7.182318968698382"><ele></ele><time>2015-11-5T9:14:33Z</time></trkpt>
<trkpt lat="46.17906999774277" lon="7.182024931535125"><ele></ele><time>2015-11-5T9:14:36Z</time></trkpt>
<trkpt lat="46.17859692312777" lon="7.181654954329133"><ele></ele><time>2015-11-5T9:14:39Z</time></trkpt>
<trkpt lat="46.17822493426502" lon="7.181334933266044"><ele></ele><time>2015-11-5T9:14:42Z</time></trkpt>
<trkpt lat="46.17807799950242" lon="7.181207947432995"><ele></ele><time>2015-11-5T9:14:45Z</time></trkpt>
<trkpt lat="46.17807799950242" lon="7.181207947432995"><ele></ele><time>2015-11-5T9:14:48Z</time></trkpt>
<trkpt lat="46.17807799950242" lon="7.181207947432995"><ele></ele><time>2015-11-5T9:14:51Z</time></trkpt>
<trkpt lat="46.17807799950242" lon="7.181207947432995"><ele></ele><time>2015-11-5T9:14:54Z</time></trkpt>
<trkpt lat="46.17799996398389" lon="7.181136952713132"><ele></ele><time>2015-11-5T9:14:57Z</time></trkpt>
<trkpt lat="46.17780399508774" lon="7.180963950231671"><ele></ele><time>2015-11-5T9:15:0Z</time></trkpt>
<trkpt lat="46.17754398845136" lon="7.180743925273418"><ele></ele><time>2015-11-5T9:15:3Z</time></trkpt>
<trkpt lat="46.17701391689479" lon="7.180366991087794"><ele></ele><time>2015-11-5T9:15:6Z</time></trkpt>
<trkpt lat="46.17674997076392" lon="7.180224917829037"><ele></ele><time>2015-11-5T9:15:9Z</time></trkpt>
<trkpt lat="46.1765799857676" lon="7.1801249217242"><ele></ele><time>2015-11-5T9:15:12Z</time></trkpt>
<trkpt lat="46.17655299603939" lon="7.180194994434714"><ele></ele><time>2015-11-5T9:15:15Z</time></trkpt>
<trkpt lat="46.17661192081869" lon="7.180252997204661"><ele></ele><time>2015-11-5T9:15:18Z</time></trkpt>
<trkpt lat="46.176930936053395" lon="7.1806729305535555"><ele></ele><time>2015-11-5T9:15:21Z</time></trkpt>
<trkpt lat="46.17715096101165" lon="7.180964956060052"><ele></ele><time>2015-11-5T9:15:24Z</time></trkpt>
<trkpt lat="46.177425971254706" lon="7.1814969554543495"><ele></ele><time>2015-11-5T9:15:27Z</time></trkpt>
<trkpt lat="46.1774589959532" lon="7.181761991232634"><ele></ele><time>2015-11-5T9:15:30Z</time></trkpt>
<trkpt lat="46.177356988191605" lon="7.181982938200235"><ele></ele><time>2015-11-5T9:15:33Z</time></trkpt>
<trkpt lat="46.17717895656824" lon="7.182206986472011"><ele></ele><time>2015-11-5T9:15:36Z</time></trkpt>
<trkpt lat="46.177017940208316" lon="7.182542933151126"><ele></ele><time>2015-11-5T9:15:39Z</time></trkpt>
<trkpt lat="46.17706697434187" lon="7.182668996974826"><ele></ele><time>2015-11-5T9:15:42Z</time></trkpt>
<trkpt lat="46.17711399681866" lon="7.182743931189179"><ele></ele><time>2015-11-5T9:15:45Z</time></trkpt>
<trkpt lat="46.1773469299078" lon="7.183156991377473"><ele></ele><time>2015-11-5T9:15:48Z</time></trkpt>
<trkpt lat="46.17777792736888" lon="7.183692930266261"><ele></ele><time>2015-11-5T9:15:51Z</time></trkpt>
<trkpt lat="46.17816299200058" lon="7.183954948559403"><ele></ele><time>2015-11-5T9:15:54Z</time></trkpt>
<trkpt lat="46.178625924512744" lon="7.184319980442524"><ele></ele><time>2015-11-5T9:15:57Z</time></trkpt>
<trkpt lat="46.178841926157475" lon="7.1845439448952675"><ele></ele><time>2015-11-5T9:16:0Z</time></trkpt>
<trkpt lat="46.17919396609068" lon="7.185075944289565"><ele></ele><time>2015-11-5T9:16:3Z</time></trkpt>
<trkpt lat="46.17952295579016" lon="7.185681955888867"><ele></ele><time>2015-11-5T9:16:6Z</time></trkpt>
<trkpt lat="46.179661927744746" lon="7.186126951128244"><ele></ele><time>2015-11-5T9:16:9Z</time></trkpt>
<trkpt lat="46.17984691634774" lon="7.186857936903834"><ele></ele><time>2015-11-5T9:16:12Z</time></trkpt>
<trkpt lat="46.17991195991635" lon="7.187029933556914"><ele></ele><time>2015-11-5T9:16:15Z</time></trkpt>
<trkpt lat="46.18005696684122" lon="7.1876919362694025"><ele></ele><time>2015-11-5T9:16:18Z</time></trkpt>
<trkpt lat="46.18008295074105" lon="7.188189988955855"><ele></ele><time>2015-11-5T9:16:21Z</time></trkpt>
<trkpt lat="46.18011597543955" lon="7.1883089281618595"><ele></ele><time>2015-11-5T9:16:24Z</time></trkpt>
<trkpt lat="46.180064929649234" lon="7.187912967056036"><ele></ele><time>2015-11-5T9:16:27Z</time></trkpt>
<trkpt lat="46.180066941305995" lon="7.188611933961511"><ele></ele><time>2015-11-5T9:16:30Z</time></trkpt>
<trkpt lat="46.17978296242654" lon="7.188433986157179"><ele></ele><time>2015-11-5T9:16:33Z</time></trkpt>
<trkpt lat="46.179528990760446" lon="7.1881569642573595"><ele></ele><time>2015-11-5T9:16:36Z</time></trkpt>
<trkpt lat="46.179162953048944" lon="7.187935933470726"><ele></ele><time>2015-11-5T9:16:39Z</time></trkpt>
<trkpt lat="46.17909195832908" lon="7.187907937914133"><ele></ele><time>2015-11-5T9:16:42Z</time></trkpt>
<trkpt lat="46.17859792895615" lon="7.187669975683093"><ele></ele><time>2015-11-5T9:16:45Z</time></trkpt>
<trkpt lat="46.17842593230307" lon="7.187531925737858"><ele></ele><time>2015-11-5T9:16:48Z</time></trkpt>
<trkpt lat="46.17802091874182" lon="7.187315924093127"><ele></ele><time>2015-11-5T9:16:51Z</time></trkpt>
<trkpt lat="46.17743393406272" lon="7.187208971008658"><ele></ele><time>2015-11-5T9:16:54Z</time></trkpt>
<trkpt lat="46.17709195241332" lon="7.187013924121857"><ele></ele><time>2015-11-5T9:16:57Z</time></trkpt>
<trkpt lat="46.17651091888547" lon="7.186544956639409"><ele></ele><time>2015-11-5T9:17:0Z</time></trkpt>
<trkpt lat="46.176068941131234" lon="7.186063919216394"><ele></ele><time>2015-11-5T9:17:3Z</time></trkpt>
<trkpt lat="46.17553694173694" lon="7.185415998101234"><ele></ele><time>2015-11-5T9:17:6Z</time></trkpt>
<trkpt lat="46.175232930108905" lon="7.185139982029796"><ele></ele><time>2015-11-5T9:17:9Z</time></trkpt>
<trkpt lat="46.17484895512462" lon="7.184607982635498"><ele></ele><time>2015-11-5T9:17:12Z</time></trkpt>
<trkpt lat="46.17444494739175" lon="7.184128956869245"><ele></ele><time>2015-11-5T9:17:15Z</time></trkpt>
<trkpt lat="46.17405996657908" lon="7.183915972709656"><ele></ele><time>2015-11-5T9:17:18Z</time></trkpt>
<trkpt lat="46.17398293688893" lon="7.183828968554735"><ele></ele><time>2015-11-5T9:17:21Z</time></trkpt>
<trkpt lat="46.173708932474256" lon="7.183512970805168"><ele></ele><time>2015-11-5T9:17:24Z</time></trkpt>
<trkpt lat="46.173401987180114" lon="7.1830169297754765"><ele></ele><time>2015-11-5T9:17:27Z</time></trkpt>
<trkpt lat="46.17321498692036" lon="7.182620968669653"><ele></ele><time>2015-11-5T9:17:30Z</time></trkpt>
<trkpt lat="46.17313896305859" lon="7.182440925389528"><ele></ele><time>2015-11-5T9:17:33Z</time></trkpt>
<trkpt lat="46.17300694808364" lon="7.182130962610245"><ele></ele><time>2015-11-5T9:17:36Z</time></trkpt>
<trkpt lat="46.17270293645561" lon="7.181830974295735"><ele></ele><time>2015-11-5T9:17:39Z</time></trkpt>
<trkpt lat="46.172097930684686" lon="7.181611955165863"><ele></ele><time>2015-11-5T9:17:42Z</time></trkpt>
<trkpt lat="46.17181294597685" lon="7.181354966014624"><ele></ele><time>2015-11-5T9:17:45Z</time></trkpt>
<trkpt lat="46.17128698155284" lon="7.181022958829999"><ele></ele><time>2015-11-5T9:17:48Z</time></trkpt>
<trkpt lat="46.1709229554981" lon="7.180641917511821"><ele></ele><time>2015-11-5T9:17:51Z</time></trkpt>
<trkpt lat="46.17077593691647" lon="7.180405966937542"><ele></ele><time>2015-11-5T9:17:54Z</time></trkpt>
<trkpt lat="46.17063797079027" lon="7.18016398139298"><ele></ele><time>2015-11-5T9:17:57Z</time></trkpt>
<trkpt lat="46.17049992084503" lon="7.18003791756928"><ele></ele><time>2015-11-5T9:18:0Z</time></trkpt>
<trkpt lat="46.170507967472076" lon="7.18018694780767"><ele></ele><time>2015-11-5T9:18:3Z</time></trkpt>
<trkpt lat="46.17064593359828" lon="7.180471932515502"><ele></ele><time>2015-11-5T9:18:6Z</time></trkpt>
<trkpt lat="46.170701924711466" lon="7.180561954155564"><ele></ele><time>2015-11-5T9:18:9Z</time></trkpt>
<trkpt lat="46.170783983543515" lon="7.180855991318822"><ele></ele><time>2015-11-5T9:18:12Z</time></trkpt>
<trkpt lat="46.170935947448015" lon="7.181271985173225"><ele></ele><time>2015-11-5T9:18:15Z</time></trkpt>
<trkpt lat="46.17098598740995" lon="7.181380949914455"><ele></ele><time>2015-11-5T9:18:18Z</time></trkpt>
<trkpt lat="46.171065950766206" lon="7.181782945990562"><ele></ele><time>2015-11-5T9:18:21Z</time></trkpt>
<trkpt lat="46.17103694938123" lon="7.181938933208585"><ele></ele><time>2015-11-5T9:18:24Z</time></trkpt>
<trkpt lat="46.17103099822998" lon="7.182450983673334"><ele></ele><time>2015-11-5T9:18:27Z</time></trkpt>
<trkpt lat="46.17114398628473" lon="7.182665979489684"><ele></ele><time>2015-11-5T9:18:30Z</time></trkpt>
<trkpt lat="46.17117499932647" lon="7.182713923975825"><ele></ele><time>2015-11-5T9:18:33Z</time></trkpt>
<trkpt lat="46.17132796905935" lon="7.182994969189167"><ele></ele><time>2015-11-5T9:18:36Z</time></trkpt>
<trkpt lat="46.171410949900746" lon="7.183207953348756"><ele></ele><time>2015-11-5T9:18:39Z</time></trkpt>
<trkpt lat="46.171532990410924" lon="7.183428984135389"><ele></ele><time>2015-11-5T9:18:42Z</time></trkpt>
<trkpt lat="46.17158898152411" lon="7.183534931391478"><ele></ele><time>2015-11-5T9:18:45Z</time></trkpt>
<trkpt lat="46.171835996210575" lon="7.18388294801116"><ele></ele><time>2015-11-5T9:18:48Z</time></trkpt>
<trkpt lat="46.171882934868336" lon="7.1839849557727575"><ele></ele><time>2015-11-5T9:18:51Z</time></trkpt>
<trkpt lat="46.171987960115075" lon="7.184224929660559"><ele></ele><time>2015-11-5T9:18:54Z</time></trkpt>
<trkpt lat="46.17188595235348" lon="7.18452894128859"><ele></ele><time>2015-11-5T9:18:57Z</time></trkpt>
<trkpt lat="46.17199692875147" lon="7.185112992301583"><ele></ele><time>2015-11-5T9:19:0Z</time></trkpt>
<trkpt lat="46.17199692875147" lon="7.185315918177366"><ele></ele><time>2015-11-5T9:19:3Z</time></trkpt>
<trkpt lat="46.17199692875147" lon="7.185315918177366"><ele></ele><time>2015-11-5T9:19:6Z</time></trkpt>
<trkpt lat="46.17199692875147" lon="7.185315918177366"><ele></ele><time>2015-11-5T9:19:9Z</time></trkpt>
<trkpt lat="46.17219993844628" lon="7.185819922015071"><ele></ele><time>2015-11-5T9:19:12Z</time></trkpt>
<trkpt lat="46.17234595119953" lon="7.185829980298877"><ele></ele><time>2015-11-5T9:19:15Z</time></trkpt>
<trkpt lat="46.17251199670136" lon="7.185809947550297"><ele></ele><time>2015-11-5T9:19:18Z</time></trkpt>
<trkpt lat="46.172976940870285" lon="7.186362985521555"><ele></ele><time>2015-11-5T9:19:21Z</time></trkpt>
<trkpt lat="46.17303594946861" lon="7.18644093722105"><ele></ele><time>2015-11-5T9:19:24Z</time></trkpt>
<trkpt lat="46.17339192889631" lon="7.186989951878786"><ele></ele><time>2015-11-5T9:19:27Z</time></trkpt>
<trkpt lat="46.17223296314478" lon="7.187397982925177"><ele></ele><time>2015-11-5T9:19:30Z</time></trkpt>
<trkpt lat="46.17251199670136" lon="7.185809947550297"><ele></ele><time>2015-11-5T9:19:33Z</time></trkpt>
<trkpt lat="46.17332797497511" lon="7.186840921640396"><ele></ele><time>2015-11-5T9:19:36Z</time></trkpt>
<trkpt lat="46.17329495027661" lon="7.18691292218864"><ele></ele><time>2015-11-5T9:19:39Z</time></trkpt>
<trkpt lat="46.173361921682954" lon="7.186919962987304"><ele></ele><time>2015-11-5T9:19:42Z</time></trkpt>
<trkpt lat="46.173405926674604" lon="7.1871959790587425"><ele></ele><time>2015-11-5T9:19:45Z</time></trkpt>
<trkpt lat="46.17341799661517" lon="7.18734391964972"><ele></ele><time>2015-11-5T9:19:48Z</time></trkpt>
<trkpt lat="46.17346594110131" lon="7.187716998159885"><ele></ele><time>2015-11-5T9:19:51Z</time></trkpt>
<trkpt lat="46.17346694692969" lon="7.187845995649695"><ele></ele><time>2015-11-5T9:19:54Z</time></trkpt>
<trkpt lat="46.17338991723955" lon="7.188017992302775"><ele></ele><time>2015-11-5T9:19:57Z</time></trkpt>
<trkpt lat="46.17327198386192" lon="7.188245980069041"><ele></ele><time>2015-11-5T9:20:0Z</time></trkpt>
<trkpt lat="46.17317693307996" lon="7.188427951186895"><ele></ele><time>2015-11-5T9:20:3Z</time></trkpt>
<trkpt lat="46.17296294309199" lon="7.188469944521785"><ele></ele><time>2015-11-5T9:20:6Z</time></trkpt>
<trkpt lat="46.17279396392405" lon="7.188279926776886"><ele></ele><time>2015-11-5T9:20:9Z</time></trkpt>
<trkpt lat="46.17257796227932" lon="7.188433986157179"><ele></ele><time>2015-11-5T9:20:12Z</time></trkpt>
<trkpt lat="46.172441923990846" lon="7.18869399279356"><ele></ele><time>2015-11-5T9:20:15Z</time></trkpt>
<trkpt lat="46.1722319573164" lon="7.189099928364158"><ele></ele><time>2015-11-5T9:20:18Z</time></trkpt>
<trkpt lat="46.17205895483494" lon="7.189415926113725"><ele></ele><time>2015-11-5T9:20:21Z</time></trkpt>
<trkpt lat="46.171901961788535" lon="7.189712980762124"><ele></ele><time>2015-11-5T9:20:24Z</time></trkpt>
<trkpt lat="46.17178092710674" lon="7.189953960478306"><ele></ele><time>2015-11-5T9:20:27Z</time></trkpt>
<trkpt lat="46.17165897041559" lon="7.190184965729713"><ele></ele><time>2015-11-5T9:20:30Z</time></trkpt>
<trkpt lat="46.17151999846101" lon="7.190441954880953"><ele></ele><time>2015-11-5T9:20:33Z</time></trkpt>
<trkpt lat="46.17139594629407" lon="7.1906649973243475"><ele></ele><time>2015-11-5T9:20:36Z</time></trkpt>
<trkpt lat="46.171281952410936" lon="7.19086691737175"><ele></ele><time>2015-11-5T9:20:39Z</time></trkpt>
<trkpt lat="46.1713579762727" lon="7.1909259259700775"><ele></ele><time>2015-11-5T9:20:42Z</time></trkpt>
<trkpt lat="46.17150197736919" lon="7.191077973693609"><ele></ele><time>2015-11-5T9:20:45Z</time></trkpt>
<trkpt lat="46.17165092378855" lon="7.191234966740012"><ele></ele><time>2015-11-5T9:20:48Z</time></trkpt>
<trkpt lat="46.17178897373378" lon="7.19138097949326"><ele></ele><time>2015-11-5T9:20:51Z</time></trkpt>
<trkpt lat="46.17176198400557" lon="7.191420961171389"><ele></ele><time>2015-11-5T9:20:54Z</time></trkpt>
<trkpt lat="46.17163893766701" lon="7.191221974790096"><ele></ele><time>2015-11-5T9:20:57Z</time></trkpt>
<trkpt lat="46.17141497321427" lon="7.190984934568405"><ele></ele><time>2015-11-5T9:21:0Z</time></trkpt>
<trkpt lat="46.171322939917445" lon="7.19088795594871"><ele></ele><time>2015-11-5T9:21:3Z</time></trkpt>
<trkpt lat="46.17114792577922" lon="7.191124996170402"><ele></ele><time>2015-11-5T9:21:6Z</time></trkpt>
<trkpt lat="46.17094692774117" lon="7.191510982811451"><ele></ele><time>2015-11-5T9:21:9Z</time></trkpt>
<trkpt lat="46.17077895440161" lon="7.1918359491974115"><ele></ele><time>2015-11-5T9:21:12Z</time></trkpt>
<trkpt lat="46.17062397301197" lon="7.192132920026779"><ele></ele><time>2015-11-5T9:21:15Z</time></trkpt>
<trkpt lat="46.170504949986935" lon="7.192361997440457"><ele></ele><time>2015-11-5T9:21:18Z</time></trkpt>
<trkpt lat="46.17049497552216" lon="7.192381946370006"><ele></ele><time>2015-11-5T9:21:21Z</time></trkpt>
<trkpt lat="46.17068792693317" lon="7.192010963335633"><ele></ele><time>2015-11-5T9:21:24Z</time></trkpt>
<trkpt lat="46.17068792693317" lon="7.192010963335633"><ele></ele><time>2015-11-5T9:21:27Z</time></trkpt>
<trkpt lat="46.17047594860196" lon="7.192417988553643"><ele></ele><time>2015-11-5T9:21:30Z</time></trkpt>
</trkseg></trk></gpx>